<?xml version="1.0" encoding="UTF-8" standalone="no" ?>
<gpx xmlns="http://www.topografix.com/GPX/1/1" xmlns:xsi="http://www.w3.org/2001/XMLSchema-instance" xsi:schemaLocation="http://www.topografix.com/GPX/1/1 http://www.topografix.com/GPX/1/1/gpx.xsd" version="1.1" creator="VisuGPX - https://www.visugpx.com">
  <metadata>
    <name>Regordane</name>
    <desc><![CDATA[Vista Hcx:
Le Puy-en-Velay - Costaros
Temps ensoleillé, avec vent de Sud.

]]></desc>
  </metadata>
  <trk>
    <name><![CDATA[ACTIVE LOG081648]]></name>
    <trkseg>
      <trkpt lat="45.04586" lon="3.88423">
        <ele>619.484</ele>
        <time>2011-05-30T06:16:46Z</time>
      </trkpt>
      <trkpt lat="45.04588" lon="3.88421">
        <ele>618.438</ele>
        <time>2011-05-30T06:16:58Z</time>
      </trkpt>
      <trkpt lat="45.04588" lon="3.88421">
        <ele>618.765</ele>
        <time>2011-05-30T06:17:08Z</time>
      </trkpt>
      <trkpt lat="45.04614" lon="3.88407">
        <ele>617.465</ele>
        <time>2011-05-30T06:17:18Z</time>
      </trkpt>
      <trkpt lat="45.04641" lon="3.8841">
        <ele>617.14</ele>
        <time>2011-05-30T06:17:28Z</time>
      </trkpt>
      <trkpt lat="45.04655" lon="3.8841">
        <ele>616.485</ele>
        <time>2011-05-30T06:17:38Z</time>
      </trkpt>
      <trkpt lat="45.04655" lon="3.88391">
        <ele>613.7</ele>
        <time>2011-05-30T06:17:48Z</time>
      </trkpt>
      <trkpt lat="45.04509" lon="3.88374">
        <ele>612.384</ele>
        <time>2011-05-30T06:17:58Z</time>
      </trkpt>
      <trkpt lat="45.0451" lon="3.88371">
        <ele>611.459</ele>
        <time>2011-05-30T06:17:59Z</time>
      </trkpt>
      <trkpt lat="45.04504" lon="3.88357">
        <ele>611.039</ele>
        <time>2011-05-30T06:18:08Z</time>
      </trkpt>
      <trkpt lat="45.0452" lon="3.88337">
        <ele>610.999</ele>
        <time>2011-05-30T06:18:18Z</time>
      </trkpt>
      <trkpt lat="45.04529" lon="3.88319">
        <ele>608.735</ele>
        <time>2011-05-30T06:18:28Z</time>
      </trkpt>
      <trkpt lat="45.04536" lon="3.88311">
        <ele>607.797</ele>
        <time>2011-05-30T06:18:38Z</time>
      </trkpt>
      <trkpt lat="45.04534" lon="3.88309">
        <ele>607.741</ele>
        <time>2011-05-30T06:18:48Z</time>
      </trkpt>
      <trkpt lat="45.04533" lon="3.88312">
        <ele>607.699</ele>
        <time>2011-05-30T06:18:58Z</time>
      </trkpt>
    </trkseg>
  </trk>
  <trk>
    <name><![CDATA[ACTIVE LOG081905]]></name>
    <trkseg>
      <trkpt lat="45.04533" lon="3.88312">
        <ele>608.481</ele>
        <time>2011-05-30T06:19:04Z</time>
      </trkpt>
      <trkpt lat="45.0453" lon="3.88309">
        <ele>607.971</ele>
        <time>2011-05-30T06:19:14Z</time>
      </trkpt>
      <trkpt lat="45.04531" lon="3.88307">
        <ele>607.942</ele>
        <time>2011-05-30T06:19:24Z</time>
      </trkpt>
      <trkpt lat="45.04539" lon="3.88281">
        <ele>608.518</ele>
        <time>2011-05-30T06:19:34Z</time>
      </trkpt>
      <trkpt lat="45.04557" lon="3.88265">
        <ele>607.984</ele>
        <time>2011-05-30T06:19:44Z</time>
      </trkpt>
      <trkpt lat="45.04568" lon="3.88255">
        <ele>607.784</ele>
        <time>2011-05-30T06:19:54Z</time>
      </trkpt>
      <trkpt lat="45.04569" lon="3.8825">
        <ele>607.541</ele>
        <time>2011-05-30T06:20:04Z</time>
      </trkpt>
      <trkpt lat="45.04567" lon="3.88248">
        <ele>608.386</ele>
        <time>2011-05-30T06:20:14Z</time>
      </trkpt>
      <trkpt lat="45.04559" lon="3.88239">
        <ele>607.749</ele>
        <time>2011-05-30T06:20:24Z</time>
      </trkpt>
      <trkpt lat="45.04558" lon="3.8824">
        <ele>608.191</ele>
        <time>2011-05-30T06:20:34Z</time>
      </trkpt>
      <trkpt lat="45.0456" lon="3.88241">
        <ele>607.821</ele>
        <time>2011-05-30T06:20:44Z</time>
      </trkpt>
      <trkpt lat="45.0456" lon="3.88241">
        <ele>607.784</ele>
        <time>2011-05-30T06:20:54Z</time>
      </trkpt>
      <trkpt lat="45.0456" lon="3.88239">
        <ele>607.43</ele>
        <time>2011-05-30T06:21:04Z</time>
      </trkpt>
      <trkpt lat="45.04578" lon="3.88243">
        <ele>607.876</ele>
        <time>2011-05-30T06:21:14Z</time>
      </trkpt>
      <trkpt lat="45.04586" lon="3.88244">
        <ele>607.279</ele>
        <time>2011-05-30T06:21:24Z</time>
      </trkpt>
      <trkpt lat="45.04584" lon="3.88244">
        <ele>607.62</ele>
        <time>2011-05-30T06:21:34Z</time>
      </trkpt>
      <trkpt lat="45.04588" lon="3.88234">
        <ele>607.242</ele>
        <time>2011-05-30T06:21:44Z</time>
      </trkpt>
      <trkpt lat="45.04585" lon="3.88218">
        <ele>606.888</ele>
        <time>2011-05-30T06:21:54Z</time>
      </trkpt>
      <trkpt lat="45.04587" lon="3.88215">
        <ele>605.95</ele>
        <time>2011-05-30T06:22:04Z</time>
      </trkpt>
      <trkpt lat="45.0457" lon="3.8821">
        <ele>606.122</ele>
        <time>2011-05-30T06:22:14Z</time>
      </trkpt>
      <trkpt lat="45.04572" lon="3.88205">
        <ele>604.285</ele>
        <time>2011-05-30T06:22:24Z</time>
      </trkpt>
      <trkpt lat="45.04585" lon="3.8819">
        <ele>603.498</ele>
        <time>2011-05-30T06:22:34Z</time>
      </trkpt>
      <trkpt lat="45.04595" lon="3.88177">
        <ele>602.61</ele>
        <time>2011-05-30T06:22:44Z</time>
      </trkpt>
      <trkpt lat="45.0461" lon="3.88168">
        <ele>600.779</ele>
        <time>2011-05-30T06:22:54Z</time>
      </trkpt>
      <trkpt lat="45.0461" lon="3.88151">
        <ele>600.256</ele>
        <time>2011-05-30T06:23:04Z</time>
      </trkpt>
      <trkpt lat="45.04618" lon="3.88135">
        <ele>599.032</ele>
        <time>2011-05-30T06:23:14Z</time>
      </trkpt>
      <trkpt lat="45.04631" lon="3.88123">
        <ele>597.397</ele>
        <time>2011-05-30T06:23:24Z</time>
      </trkpt>
      <trkpt lat="45.04635" lon="3.88113">
        <ele>603.462</ele>
        <time>2011-05-30T06:23:34Z</time>
      </trkpt>
      <trkpt lat="45.04645" lon="3.88107">
        <ele>609.955</ele>
        <time>2011-05-30T06:23:44Z</time>
      </trkpt>
      <trkpt lat="45.04657" lon="3.88099">
        <ele>614.377</ele>
        <time>2011-05-30T06:23:54Z</time>
      </trkpt>
      <trkpt lat="45.04662" lon="3.88085">
        <ele>617.58</ele>
        <time>2011-05-30T06:24:04Z</time>
      </trkpt>
      <trkpt lat="45.04669" lon="3.8807">
        <ele>620.922</ele>
        <time>2011-05-30T06:24:14Z</time>
      </trkpt>
      <trkpt lat="45.04677" lon="3.8806">
        <ele>626.426</ele>
        <time>2011-05-30T06:24:24Z</time>
      </trkpt>
      <trkpt lat="45.0468" lon="3.88044">
        <ele>628.348</ele>
        <time>2011-05-30T06:24:34Z</time>
      </trkpt>
      <trkpt lat="45.04679" lon="3.88031">
        <ele>630.339</ele>
        <time>2011-05-30T06:24:44Z</time>
      </trkpt>
      <trkpt lat="45.04686" lon="3.8802">
        <ele>632.147</ele>
        <time>2011-05-30T06:24:54Z</time>
      </trkpt>
      <trkpt lat="45.04675" lon="3.88">
        <ele>632.34</ele>
        <time>2011-05-30T06:25:04Z</time>
      </trkpt>
      <trkpt lat="45.04665" lon="3.87999">
        <ele>632.743</ele>
        <time>2011-05-30T06:25:14Z</time>
      </trkpt>
      <trkpt lat="45.04658" lon="3.87996">
        <ele>633.267</ele>
        <time>2011-05-30T06:25:24Z</time>
      </trkpt>
      <trkpt lat="45.04648" lon="3.88">
        <ele>633.607</ele>
        <time>2011-05-30T06:25:34Z</time>
      </trkpt>
      <trkpt lat="45.04638" lon="3.87999">
        <ele>634.837</ele>
        <time>2011-05-30T06:25:44Z</time>
      </trkpt>
      <trkpt lat="45.04629" lon="3.87999">
        <ele>634.672</ele>
        <time>2011-05-30T06:25:54Z</time>
      </trkpt>
      <trkpt lat="45.04616" lon="3.87995">
        <ele>636.012</ele>
        <time>2011-05-30T06:26:04Z</time>
      </trkpt>
      <trkpt lat="45.04602" lon="3.87998">
        <ele>636.43</ele>
        <time>2011-05-30T06:26:14Z</time>
      </trkpt>
      <trkpt lat="45.04595" lon="3.88005">
        <ele>636.922</ele>
        <time>2011-05-30T06:26:24Z</time>
      </trkpt>
      <trkpt lat="45.04587" lon="3.88012">
        <ele>637.751</ele>
        <time>2011-05-30T06:26:34Z</time>
      </trkpt>
      <trkpt lat="45.04573" lon="3.88008">
        <ele>638.81</ele>
        <time>2011-05-30T06:26:44Z</time>
      </trkpt>
      <trkpt lat="45.04561" lon="3.88011">
        <ele>639.213</ele>
        <time>2011-05-30T06:26:54Z</time>
      </trkpt>
      <trkpt lat="45.04552" lon="3.88012">
        <ele>640.11</ele>
        <time>2011-05-30T06:27:04Z</time>
      </trkpt>
      <trkpt lat="45.04543" lon="3.88019">
        <ele>640.986</ele>
        <time>2011-05-30T06:27:14Z</time>
      </trkpt>
      <trkpt lat="45.04533" lon="3.88022">
        <ele>642.048</ele>
        <time>2011-05-30T06:27:24Z</time>
      </trkpt>
      <trkpt lat="45.0452" lon="3.88016">
        <ele>642.18</ele>
        <time>2011-05-30T06:27:34Z</time>
      </trkpt>
      <trkpt lat="45.04513" lon="3.88016">
        <ele>642.968</ele>
        <time>2011-05-30T06:27:44Z</time>
      </trkpt>
      <trkpt lat="45.04505" lon="3.88017">
        <ele>643.606</ele>
        <time>2011-05-30T06:27:54Z</time>
      </trkpt>
      <trkpt lat="45.04497" lon="3.88019">
        <ele>643.976</ele>
        <time>2011-05-30T06:28:04Z</time>
      </trkpt>
      <trkpt lat="45.04487" lon="3.88014">
        <ele>645.383</ele>
        <time>2011-05-30T06:28:14Z</time>
      </trkpt>
      <trkpt lat="45.04476" lon="3.8802">
        <ele>646.019</ele>
        <time>2011-05-30T06:28:24Z</time>
      </trkpt>
      <trkpt lat="45.04467" lon="3.88027">
        <ele>646.366</ele>
        <time>2011-05-30T06:28:34Z</time>
      </trkpt>
      <trkpt lat="45.04459" lon="3.8803">
        <ele>645.565</ele>
        <time>2011-05-30T06:28:44Z</time>
      </trkpt>
      <trkpt lat="45.04453" lon="3.88041">
        <ele>644.833</ele>
        <time>2011-05-30T06:28:54Z</time>
      </trkpt>
      <trkpt lat="45.04448" lon="3.88053">
        <ele>644.951</ele>
        <time>2011-05-30T06:29:04Z</time>
      </trkpt>
      <trkpt lat="45.04443" lon="3.88063">
        <ele>644.167</ele>
        <time>2011-05-30T06:29:14Z</time>
      </trkpt>
      <trkpt lat="45.04433" lon="3.88072">
        <ele>643.895</ele>
        <time>2011-05-30T06:29:24Z</time>
      </trkpt>
      <trkpt lat="45.04428" lon="3.88082">
        <ele>643.463</ele>
        <time>2011-05-30T06:29:34Z</time>
      </trkpt>
      <trkpt lat="45.04421" lon="3.881">
        <ele>643.326</ele>
        <time>2011-05-30T06:29:44Z</time>
      </trkpt>
      <trkpt lat="45.04411" lon="3.88119">
        <ele>642.869</ele>
        <time>2011-05-30T06:29:54Z</time>
      </trkpt>
      <trkpt lat="45.04404" lon="3.88133">
        <ele>643.268</ele>
        <time>2011-05-30T06:30:04Z</time>
      </trkpt>
      <trkpt lat="45.044" lon="3.88153">
        <ele>643.64</ele>
        <time>2011-05-30T06:30:14Z</time>
      </trkpt>
      <trkpt lat="45.04392" lon="3.88168">
        <ele>643.212</ele>
        <time>2011-05-30T06:30:24Z</time>
      </trkpt>
      <trkpt lat="45.04377" lon="3.88179">
        <ele>642.933</ele>
        <time>2011-05-30T06:30:34Z</time>
      </trkpt>
      <trkpt lat="45.04375" lon="3.88195">
        <ele>643.062</ele>
        <time>2011-05-30T06:30:44Z</time>
      </trkpt>
      <trkpt lat="45.0437" lon="3.88209">
        <ele>643.324</ele>
        <time>2011-05-30T06:30:54Z</time>
      </trkpt>
      <trkpt lat="45.04368" lon="3.88231">
        <ele>643.341</ele>
        <time>2011-05-30T06:31:04Z</time>
      </trkpt>
      <trkpt lat="45.04365" lon="3.88244">
        <ele>643.314</ele>
        <time>2011-05-30T06:31:14Z</time>
      </trkpt>
      <trkpt lat="45.04363" lon="3.88255">
        <ele>643.071</ele>
        <time>2011-05-30T06:31:24Z</time>
      </trkpt>
      <trkpt lat="45.04358" lon="3.88258">
        <ele>643.022</ele>
        <time>2011-05-30T06:31:34Z</time>
      </trkpt>
      <trkpt lat="45.04347" lon="3.88256">
        <ele>642.56</ele>
        <time>2011-05-30T06:31:44Z</time>
      </trkpt>
      <trkpt lat="45.04335" lon="3.8825">
        <ele>642.454</ele>
        <time>2011-05-30T06:31:54Z</time>
      </trkpt>
      <trkpt lat="45.04328" lon="3.88248">
        <ele>642.851</ele>
        <time>2011-05-30T06:32:04Z</time>
      </trkpt>
      <trkpt lat="45.04315" lon="3.88244">
        <ele>642.783</ele>
        <time>2011-05-30T06:32:14Z</time>
      </trkpt>
      <trkpt lat="45.04306" lon="3.8824">
        <ele>642.321</ele>
        <time>2011-05-30T06:32:24Z</time>
      </trkpt>
      <trkpt lat="45.04306" lon="3.88244">
        <ele>641.884</ele>
        <time>2011-05-30T06:32:34Z</time>
      </trkpt>
      <trkpt lat="45.04307" lon="3.88246">
        <ele>642.481</ele>
        <time>2011-05-30T06:32:44Z</time>
      </trkpt>
      <trkpt lat="45.04309" lon="3.88245">
        <ele>643.782</ele>
        <time>2011-05-30T06:32:54Z</time>
      </trkpt>
      <trkpt lat="45.043" lon="3.88245">
        <ele>642.688</ele>
        <time>2011-05-30T06:33:04Z</time>
      </trkpt>
      <trkpt lat="45.0429" lon="3.88243">
        <ele>643.043</ele>
        <time>2011-05-30T06:33:14Z</time>
      </trkpt>
      <trkpt lat="45.0428" lon="3.88238">
        <ele>642.808</ele>
        <time>2011-05-30T06:33:24Z</time>
      </trkpt>
      <trkpt lat="45.0427" lon="3.88238">
        <ele>642.45</ele>
        <time>2011-05-30T06:33:34Z</time>
      </trkpt>
      <trkpt lat="45.04259" lon="3.88243">
        <ele>642.732</ele>
        <time>2011-05-30T06:33:44Z</time>
      </trkpt>
      <trkpt lat="45.04245" lon="3.88243">
        <ele>642.814</ele>
        <time>2011-05-30T06:33:54Z</time>
      </trkpt>
      <trkpt lat="45.04229" lon="3.8824">
        <ele>642.846</ele>
        <time>2011-05-30T06:34:04Z</time>
      </trkpt>
      <trkpt lat="45.04218" lon="3.88235">
        <ele>642.468</ele>
        <time>2011-05-30T06:34:14Z</time>
      </trkpt>
      <trkpt lat="45.042" lon="3.88229">
        <ele>642.097</ele>
        <time>2011-05-30T06:34:24Z</time>
      </trkpt>
      <trkpt lat="45.04192" lon="3.88229">
        <ele>642.349</ele>
        <time>2011-05-30T06:34:34Z</time>
      </trkpt>
      <trkpt lat="45.04182" lon="3.88232">
        <ele>641.997</ele>
        <time>2011-05-30T06:34:44Z</time>
      </trkpt>
      <trkpt lat="45.04169" lon="3.88232">
        <ele>641.556</ele>
        <time>2011-05-30T06:34:54Z</time>
      </trkpt>
      <trkpt lat="45.04156" lon="3.88232">
        <ele>641.55</ele>
        <time>2011-05-30T06:35:04Z</time>
      </trkpt>
      <trkpt lat="45.0415" lon="3.88234">
        <ele>641.059</ele>
        <time>2011-05-30T06:35:14Z</time>
      </trkpt>
      <trkpt lat="45.04125" lon="3.88226">
        <ele>640.993</ele>
        <time>2011-05-30T06:35:24Z</time>
      </trkpt>
      <trkpt lat="45.04112" lon="3.88224">
        <ele>641.141</ele>
        <time>2011-05-30T06:35:34Z</time>
      </trkpt>
      <trkpt lat="45.04101" lon="3.8822">
        <ele>640.755</ele>
        <time>2011-05-30T06:35:44Z</time>
      </trkpt>
      <trkpt lat="45.04089" lon="3.88227">
        <ele>640.977</ele>
        <time>2011-05-30T06:35:54Z</time>
      </trkpt>
      <trkpt lat="45.04075" lon="3.88222">
        <ele>640.419</ele>
        <time>2011-05-30T06:36:04Z</time>
      </trkpt>
      <trkpt lat="45.04061" lon="3.88217">
        <ele>641.037</ele>
        <time>2011-05-30T06:36:14Z</time>
      </trkpt>
      <trkpt lat="45.04048" lon="3.88212">
        <ele>640.981</ele>
        <time>2011-05-30T06:36:24Z</time>
      </trkpt>
      <trkpt lat="45.04035" lon="3.88211">
        <ele>641.377</ele>
        <time>2011-05-30T06:36:34Z</time>
      </trkpt>
      <trkpt lat="45.04024" lon="3.88208">
        <ele>641.52</ele>
        <time>2011-05-30T06:36:44Z</time>
      </trkpt>
      <trkpt lat="45.04016" lon="3.88203">
        <ele>641.38</ele>
        <time>2011-05-30T06:36:54Z</time>
      </trkpt>
      <trkpt lat="45.04003" lon="3.88202">
        <ele>641.987</ele>
        <time>2011-05-30T06:37:04Z</time>
      </trkpt>
      <trkpt lat="45.03992" lon="3.88198">
        <ele>641.691</ele>
        <time>2011-05-30T06:37:14Z</time>
      </trkpt>
      <trkpt lat="45.03978" lon="3.88198">
        <ele>642.508</ele>
        <time>2011-05-30T06:37:24Z</time>
      </trkpt>
      <trkpt lat="45.03966" lon="3.88197">
        <ele>642.577</ele>
        <time>2011-05-30T06:37:34Z</time>
      </trkpt>
      <trkpt lat="45.03951" lon="3.88198">
        <ele>642.73</ele>
        <time>2011-05-30T06:37:44Z</time>
      </trkpt>
      <trkpt lat="45.03937" lon="3.882">
        <ele>642.968</ele>
        <time>2011-05-30T06:37:54Z</time>
      </trkpt>
      <trkpt lat="45.03925" lon="3.88201">
        <ele>643.028</ele>
        <time>2011-05-30T06:38:04Z</time>
      </trkpt>
      <trkpt lat="45.03915" lon="3.88198">
        <ele>643.111</ele>
        <time>2011-05-30T06:38:14Z</time>
      </trkpt>
      <trkpt lat="45.03901" lon="3.88196">
        <ele>643.429</ele>
        <time>2011-05-30T06:38:24Z</time>
      </trkpt>
      <trkpt lat="45.03887" lon="3.88196">
        <ele>643.584</ele>
        <time>2011-05-30T06:38:34Z</time>
      </trkpt>
      <trkpt lat="45.03875" lon="3.88193">
        <ele>644.314</ele>
        <time>2011-05-30T06:38:44Z</time>
      </trkpt>
      <trkpt lat="45.03863" lon="3.8819">
        <ele>644.193</ele>
        <time>2011-05-30T06:38:54Z</time>
      </trkpt>
      <trkpt lat="45.03851" lon="3.88191">
        <ele>644.203</ele>
        <time>2011-05-30T06:39:04Z</time>
      </trkpt>
      <trkpt lat="45.03836" lon="3.88191">
        <ele>644.543</ele>
        <time>2011-05-30T06:39:14Z</time>
      </trkpt>
      <trkpt lat="45.03823" lon="3.8819">
        <ele>644.501</ele>
        <time>2011-05-30T06:39:24Z</time>
      </trkpt>
      <trkpt lat="45.03809" lon="3.88189">
        <ele>644.612</ele>
        <time>2011-05-30T06:39:34Z</time>
      </trkpt>
      <trkpt lat="45.03796" lon="3.88188">
        <ele>644.908</ele>
        <time>2011-05-30T06:39:44Z</time>
      </trkpt>
      <trkpt lat="45.03783" lon="3.88186">
        <ele>644.855</ele>
        <time>2011-05-30T06:39:54Z</time>
      </trkpt>
      <trkpt lat="45.03769" lon="3.88187">
        <ele>644.904</ele>
        <time>2011-05-30T06:40:04Z</time>
      </trkpt>
      <trkpt lat="45.03756" lon="3.88184">
        <ele>644.921</ele>
        <time>2011-05-30T06:40:14Z</time>
      </trkpt>
      <trkpt lat="45.03744" lon="3.88181">
        <ele>645.621</ele>
        <time>2011-05-30T06:40:24Z</time>
      </trkpt>
      <trkpt lat="45.03732" lon="3.88182">
        <ele>645.251</ele>
        <time>2011-05-30T06:40:34Z</time>
      </trkpt>
      <trkpt lat="45.0372" lon="3.88176">
        <ele>645.193</ele>
        <time>2011-05-30T06:40:44Z</time>
      </trkpt>
      <trkpt lat="45.03707" lon="3.88175">
        <ele>645.375</ele>
        <time>2011-05-30T06:40:54Z</time>
      </trkpt>
      <trkpt lat="45.03689" lon="3.88183">
        <ele>645.485</ele>
        <time>2011-05-30T06:41:04Z</time>
      </trkpt>
      <trkpt lat="45.03677" lon="3.88178">
        <ele>645.937</ele>
        <time>2011-05-30T06:41:14Z</time>
      </trkpt>
      <trkpt lat="45.03664" lon="3.88177">
        <ele>645.781</ele>
        <time>2011-05-30T06:41:24Z</time>
      </trkpt>
      <trkpt lat="45.03651" lon="3.88175">
        <ele>645.897</ele>
        <time>2011-05-30T06:41:34Z</time>
      </trkpt>
      <trkpt lat="45.03639" lon="3.88169">
        <ele>646.198</ele>
        <time>2011-05-30T06:41:44Z</time>
      </trkpt>
      <trkpt lat="45.03627" lon="3.88167">
        <ele>646.734</ele>
        <time>2011-05-30T06:41:54Z</time>
      </trkpt>
      <trkpt lat="45.03619" lon="3.88158">
        <ele>646.99</ele>
        <time>2011-05-30T06:42:04Z</time>
      </trkpt>
      <trkpt lat="45.03613" lon="3.88156">
        <ele>646.996</ele>
        <time>2011-05-30T06:42:14Z</time>
      </trkpt>
      <trkpt lat="45.03597" lon="3.8815">
        <ele>646.972</ele>
        <time>2011-05-30T06:42:24Z</time>
      </trkpt>
      <trkpt lat="45.03583" lon="3.88147">
        <ele>647.455</ele>
        <time>2011-05-30T06:42:34Z</time>
      </trkpt>
      <trkpt lat="45.03571" lon="3.88138">
        <ele>647.487</ele>
        <time>2011-05-30T06:42:44Z</time>
      </trkpt>
      <trkpt lat="45.03563" lon="3.88132">
        <ele>647.674</ele>
        <time>2011-05-30T06:42:54Z</time>
      </trkpt>
      <trkpt lat="45.03553" lon="3.88123">
        <ele>647.913</ele>
        <time>2011-05-30T06:43:04Z</time>
      </trkpt>
      <trkpt lat="45.03544" lon="3.88117">
        <ele>647.761</ele>
        <time>2011-05-30T06:43:14Z</time>
      </trkpt>
      <trkpt lat="45.03535" lon="3.88114">
        <ele>647.996</ele>
        <time>2011-05-30T06:43:24Z</time>
      </trkpt>
      <trkpt lat="45.03521" lon="3.88103">
        <ele>648.491</ele>
        <time>2011-05-30T06:43:34Z</time>
      </trkpt>
      <trkpt lat="45.03509" lon="3.88096">
        <ele>648.564</ele>
        <time>2011-05-30T06:43:44Z</time>
      </trkpt>
      <trkpt lat="45.03497" lon="3.88093">
        <ele>647.838</ele>
        <time>2011-05-30T06:43:54Z</time>
      </trkpt>
      <trkpt lat="45.03485" lon="3.88088">
        <ele>649.155</ele>
        <time>2011-05-30T06:44:04Z</time>
      </trkpt>
      <trkpt lat="45.03469" lon="3.8808">
        <ele>649.411</ele>
        <time>2011-05-30T06:44:14Z</time>
      </trkpt>
      <trkpt lat="45.03454" lon="3.88068">
        <ele>649.197</ele>
        <time>2011-05-30T06:44:24Z</time>
      </trkpt>
      <trkpt lat="45.03445" lon="3.88057">
        <ele>649.436</ele>
        <time>2011-05-30T06:44:34Z</time>
      </trkpt>
      <trkpt lat="45.03432" lon="3.88049">
        <ele>649.902</ele>
        <time>2011-05-30T06:44:44Z</time>
      </trkpt>
      <trkpt lat="45.03421" lon="3.88037">
        <ele>650.316</ele>
        <time>2011-05-30T06:44:54Z</time>
      </trkpt>
      <trkpt lat="45.03412" lon="3.88027">
        <ele>650.09</ele>
        <time>2011-05-30T06:45:04Z</time>
      </trkpt>
      <trkpt lat="45.03399" lon="3.88021">
        <ele>650.376</ele>
        <time>2011-05-30T06:45:14Z</time>
      </trkpt>
      <trkpt lat="45.03393" lon="3.88009">
        <ele>650.592</ele>
        <time>2011-05-30T06:45:24Z</time>
      </trkpt>
      <trkpt lat="45.03385" lon="3.88005">
        <ele>650.47</ele>
        <time>2011-05-30T06:45:34Z</time>
      </trkpt>
      <trkpt lat="45.03374" lon="3.87997">
        <ele>650.385</ele>
        <time>2011-05-30T06:45:44Z</time>
      </trkpt>
      <trkpt lat="45.03362" lon="3.87989">
        <ele>650.797</ele>
        <time>2011-05-30T06:45:54Z</time>
      </trkpt>
      <trkpt lat="45.03351" lon="3.87976">
        <ele>651.56</ele>
        <time>2011-05-30T06:46:04Z</time>
      </trkpt>
      <trkpt lat="45.03341" lon="3.87967">
        <ele>651.465</ele>
        <time>2011-05-30T06:46:14Z</time>
      </trkpt>
      <trkpt lat="45.03331" lon="3.87959">
        <ele>651.727</ele>
        <time>2011-05-30T06:46:24Z</time>
      </trkpt>
      <trkpt lat="45.03321" lon="3.87948">
        <ele>651.582</ele>
        <time>2011-05-30T06:46:34Z</time>
      </trkpt>
      <trkpt lat="45.03309" lon="3.87939">
        <ele>652.185</ele>
        <time>2011-05-30T06:46:44Z</time>
      </trkpt>
      <trkpt lat="45.03297" lon="3.87933">
        <ele>652.814</ele>
        <time>2011-05-30T06:46:54Z</time>
      </trkpt>
      <trkpt lat="45.03286" lon="3.87925">
        <ele>652.993</ele>
        <time>2011-05-30T06:47:04Z</time>
      </trkpt>
      <trkpt lat="45.03275" lon="3.87916">
        <ele>652.928</ele>
        <time>2011-05-30T06:47:14Z</time>
      </trkpt>
      <trkpt lat="45.03264" lon="3.87907">
        <ele>653.049</ele>
        <time>2011-05-30T06:47:24Z</time>
      </trkpt>
      <trkpt lat="45.03251" lon="3.87898">
        <ele>653.435</ele>
        <time>2011-05-30T06:47:34Z</time>
      </trkpt>
      <trkpt lat="45.0324" lon="3.87888">
        <ele>653.751</ele>
        <time>2011-05-30T06:47:44Z</time>
      </trkpt>
      <trkpt lat="45.03228" lon="3.87878">
        <ele>654.563</ele>
        <time>2011-05-30T06:47:54Z</time>
      </trkpt>
      <trkpt lat="45.03216" lon="3.87866">
        <ele>654.54</ele>
        <time>2011-05-30T06:48:04Z</time>
      </trkpt>
      <trkpt lat="45.03206" lon="3.87855">
        <ele>654.63</ele>
        <time>2011-05-30T06:48:14Z</time>
      </trkpt>
      <trkpt lat="45.03195" lon="3.87843">
        <ele>655.235</ele>
        <time>2011-05-30T06:48:24Z</time>
      </trkpt>
      <trkpt lat="45.03185" lon="3.8783">
        <ele>655.291</ele>
        <time>2011-05-30T06:48:34Z</time>
      </trkpt>
      <trkpt lat="45.03177" lon="3.87817">
        <ele>655.479</ele>
        <time>2011-05-30T06:48:44Z</time>
      </trkpt>
      <trkpt lat="45.03169" lon="3.87804">
        <ele>655.26</ele>
        <time>2011-05-30T06:48:54Z</time>
      </trkpt>
      <trkpt lat="45.03167" lon="3.87791">
        <ele>656.312</ele>
        <time>2011-05-30T06:49:04Z</time>
      </trkpt>
      <trkpt lat="45.0316" lon="3.87779">
        <ele>656.053</ele>
        <time>2011-05-30T06:49:14Z</time>
      </trkpt>
      <trkpt lat="45.03153" lon="3.87767">
        <ele>656.52</ele>
        <time>2011-05-30T06:49:24Z</time>
      </trkpt>
      <trkpt lat="45.03145" lon="3.87757">
        <ele>656.447</ele>
        <time>2011-05-30T06:49:34Z</time>
      </trkpt>
      <trkpt lat="45.03136" lon="3.87748">
        <ele>656.952</ele>
        <time>2011-05-30T06:49:44Z</time>
      </trkpt>
      <trkpt lat="45.03129" lon="3.87738">
        <ele>657.094</ele>
        <time>2011-05-30T06:49:54Z</time>
      </trkpt>
      <trkpt lat="45.03116" lon="3.87732">
        <ele>656.94</ele>
        <time>2011-05-30T06:50:04Z</time>
      </trkpt>
      <trkpt lat="45.03105" lon="3.87727">
        <ele>657.285</ele>
        <time>2011-05-30T06:50:14Z</time>
      </trkpt>
      <trkpt lat="45.03091" lon="3.87719">
        <ele>657.794</ele>
        <time>2011-05-30T06:50:24Z</time>
      </trkpt>
      <trkpt lat="45.03078" lon="3.87713">
        <ele>657.871</ele>
        <time>2011-05-30T06:50:34Z</time>
      </trkpt>
      <trkpt lat="45.03066" lon="3.87708">
        <ele>658.454</ele>
        <time>2011-05-30T06:50:44Z</time>
      </trkpt>
      <trkpt lat="45.03064" lon="3.87676">
        <ele>658.578</ele>
        <time>2011-05-30T06:50:54Z</time>
      </trkpt>
      <trkpt lat="45.0305" lon="3.87665">
        <ele>659.049</ele>
        <time>2011-05-30T06:51:04Z</time>
      </trkpt>
      <trkpt lat="45.0304" lon="3.87655">
        <ele>659.027</ele>
        <time>2011-05-30T06:51:14Z</time>
      </trkpt>
      <trkpt lat="45.03033" lon="3.87648">
        <ele>659.643</ele>
        <time>2011-05-30T06:51:24Z</time>
      </trkpt>
      <trkpt lat="45.03022" lon="3.87639">
        <ele>659.097</ele>
        <time>2011-05-30T06:51:34Z</time>
      </trkpt>
      <trkpt lat="45.03009" lon="3.8763">
        <ele>658.402</ele>
        <time>2011-05-30T06:51:44Z</time>
      </trkpt>
      <trkpt lat="45.02997" lon="3.8763">
        <ele>658.148</ele>
        <time>2011-05-30T06:51:54Z</time>
      </trkpt>
      <trkpt lat="45.02989" lon="3.87631">
        <ele>658.183</ele>
        <time>2011-05-30T06:52:04Z</time>
      </trkpt>
      <trkpt lat="45.02985" lon="3.87635">
        <ele>658.37</ele>
        <time>2011-05-30T06:52:14Z</time>
      </trkpt>
      <trkpt lat="45.02976" lon="3.87632">
        <ele>658.06</ele>
        <time>2011-05-30T06:52:24Z</time>
      </trkpt>
      <trkpt lat="45.02962" lon="3.87623">
        <ele>657.674</ele>
        <time>2011-05-30T06:52:34Z</time>
      </trkpt>
      <trkpt lat="45.02948" lon="3.87618">
        <ele>658.108</ele>
        <time>2011-05-30T06:52:44Z</time>
      </trkpt>
      <trkpt lat="45.02936" lon="3.87607">
        <ele>657.797</ele>
        <time>2011-05-30T06:52:54Z</time>
      </trkpt>
      <trkpt lat="45.02928" lon="3.87605">
        <ele>658.282</ele>
        <time>2011-05-30T06:53:04Z</time>
      </trkpt>
      <trkpt lat="45.02922" lon="3.87595">
        <ele>658.395</ele>
        <time>2011-05-30T06:53:14Z</time>
      </trkpt>
      <trkpt lat="45.02914" lon="3.87582">
        <ele>658.736</ele>
        <time>2011-05-30T06:53:24Z</time>
      </trkpt>
      <trkpt lat="45.02904" lon="3.87563">
        <ele>659.003</ele>
        <time>2011-05-30T06:53:34Z</time>
      </trkpt>
      <trkpt lat="45.02894" lon="3.87553">
        <ele>659.538</ele>
        <time>2011-05-30T06:53:44Z</time>
      </trkpt>
      <trkpt lat="45.02886" lon="3.8754">
        <ele>659.913</ele>
        <time>2011-05-30T06:53:54Z</time>
      </trkpt>
      <trkpt lat="45.02884" lon="3.87524">
        <ele>660.264</ele>
        <time>2011-05-30T06:54:04Z</time>
      </trkpt>
      <trkpt lat="45.02877" lon="3.87517">
        <ele>661.11</ele>
        <time>2011-05-30T06:54:14Z</time>
      </trkpt>
      <trkpt lat="45.02865" lon="3.87518">
        <ele>662.278</ele>
        <time>2011-05-30T06:54:24Z</time>
      </trkpt>
      <trkpt lat="45.02861" lon="3.87514">
        <ele>661.188</ele>
        <time>2011-05-30T06:54:34Z</time>
      </trkpt>
      <trkpt lat="45.02854" lon="3.87505">
        <ele>659.178</ele>
        <time>2011-05-30T06:54:44Z</time>
      </trkpt>
      <trkpt lat="45.02853" lon="3.87506">
        <ele>659.303</ele>
        <time>2011-05-30T06:54:54Z</time>
      </trkpt>
      <trkpt lat="45.02856" lon="3.87508">
        <ele>658.982</ele>
        <time>2011-05-30T06:55:04Z</time>
      </trkpt>
      <trkpt lat="45.02859" lon="3.87516">
        <ele>659.679</ele>
        <time>2011-05-30T06:55:14Z</time>
      </trkpt>
      <trkpt lat="45.02864" lon="3.87518">
        <ele>662.3</ele>
        <time>2011-05-30T06:55:24Z</time>
      </trkpt>
      <trkpt lat="45.02858" lon="3.87526">
        <ele>662.591</ele>
        <time>2011-05-30T06:55:34Z</time>
      </trkpt>
      <trkpt lat="45.02853" lon="3.87529">
        <ele>662.994</ele>
        <time>2011-05-30T06:55:44Z</time>
      </trkpt>
      <trkpt lat="45.02841" lon="3.87542">
        <ele>663.281</ele>
        <time>2011-05-30T06:55:54Z</time>
      </trkpt>
      <trkpt lat="45.02831" lon="3.87551">
        <ele>663.683</ele>
        <time>2011-05-30T06:56:04Z</time>
      </trkpt>
      <trkpt lat="45.02823" lon="3.87552">
        <ele>664.033</ele>
        <time>2011-05-30T06:56:14Z</time>
      </trkpt>
      <trkpt lat="45.02815" lon="3.8755">
        <ele>664.061</ele>
        <time>2011-05-30T06:56:24Z</time>
      </trkpt>
      <trkpt lat="45.02816" lon="3.8755">
        <ele>664.26</ele>
        <time>2011-05-30T06:56:34Z</time>
      </trkpt>
      <trkpt lat="45.02816" lon="3.8755">
        <ele>663.974</ele>
        <time>2011-05-30T06:56:44Z</time>
      </trkpt>
      <trkpt lat="45.02815" lon="3.8755">
        <ele>664.126</ele>
        <time>2011-05-30T06:56:54Z</time>
      </trkpt>
      <trkpt lat="45.02815" lon="3.8755">
        <ele>664.405</ele>
        <time>2011-05-30T06:57:04Z</time>
      </trkpt>
      <trkpt lat="45.02815" lon="3.87551">
        <ele>664.25</ele>
        <time>2011-05-30T06:57:14Z</time>
      </trkpt>
      <trkpt lat="45.02815" lon="3.87551">
        <ele>664.293</ele>
        <time>2011-05-30T06:57:24Z</time>
      </trkpt>
      <trkpt lat="45.02814" lon="3.87552">
        <ele>664.26</ele>
        <time>2011-05-30T06:57:34Z</time>
      </trkpt>
      <trkpt lat="45.02814" lon="3.87552">
        <ele>663.618</ele>
        <time>2011-05-30T06:57:44Z</time>
      </trkpt>
      <trkpt lat="45.02814" lon="3.87552">
        <ele>663.029</ele>
        <time>2011-05-30T06:57:54Z</time>
      </trkpt>
      <trkpt lat="45.02814" lon="3.87552">
        <ele>663.632</ele>
        <time>2011-05-30T06:58:04Z</time>
      </trkpt>
      <trkpt lat="45.02814" lon="3.87552">
        <ele>663.798</ele>
        <time>2011-05-30T06:58:14Z</time>
      </trkpt>
      <trkpt lat="45.02814" lon="3.87552">
        <ele>663.887</ele>
        <time>2011-05-30T06:58:24Z</time>
      </trkpt>
      <trkpt lat="45.02814" lon="3.87552">
        <ele>663.884</ele>
        <time>2011-05-30T06:58:34Z</time>
      </trkpt>
      <trkpt lat="45.02814" lon="3.87552">
        <ele>663.987</ele>
        <time>2011-05-30T06:58:44Z</time>
      </trkpt>
      <trkpt lat="45.02814" lon="3.87552">
        <ele>663.866</ele>
        <time>2011-05-30T06:58:54Z</time>
      </trkpt>
      <trkpt lat="45.02815" lon="3.87553">
        <ele>663.825</ele>
        <time>2011-05-30T06:59:04Z</time>
      </trkpt>
      <trkpt lat="45.02818" lon="3.87549">
        <ele>663.488</ele>
        <time>2011-05-30T06:59:14Z</time>
      </trkpt>
      <trkpt lat="45.02818" lon="3.87549">
        <ele>663.571</ele>
        <time>2011-05-30T06:59:24Z</time>
      </trkpt>
      <trkpt lat="45.02817" lon="3.87548">
        <ele>663.408</ele>
        <time>2011-05-30T06:59:34Z</time>
      </trkpt>
      <trkpt lat="45.02811" lon="3.8754">
        <ele>663.824</ele>
        <time>2011-05-30T06:59:44Z</time>
      </trkpt>
      <trkpt lat="45.02806" lon="3.8753">
        <ele>664.136</ele>
        <time>2011-05-30T06:59:54Z</time>
      </trkpt>
      <trkpt lat="45.02807" lon="3.87532">
        <ele>664.248</ele>
        <time>2011-05-30T07:00:04Z</time>
      </trkpt>
      <trkpt lat="45.02811" lon="3.87542">
        <ele>663.795</ele>
        <time>2011-05-30T07:00:14Z</time>
      </trkpt>
      <trkpt lat="45.02817" lon="3.87554">
        <ele>663.428</ele>
        <time>2011-05-30T07:00:24Z</time>
      </trkpt>
      <trkpt lat="45.02822" lon="3.87573">
        <ele>663.705</ele>
        <time>2011-05-30T07:00:34Z</time>
      </trkpt>
      <trkpt lat="45.02811" lon="3.87583">
        <ele>663.592</ele>
        <time>2011-05-30T07:00:44Z</time>
      </trkpt>
      <trkpt lat="45.028" lon="3.87591">
        <ele>663.802</ele>
        <time>2011-05-30T07:00:54Z</time>
      </trkpt>
      <trkpt lat="45.0279" lon="3.87596">
        <ele>664.639</ele>
        <time>2011-05-30T07:01:04Z</time>
      </trkpt>
      <trkpt lat="45.02776" lon="3.87602">
        <ele>664.766</ele>
        <time>2011-05-30T07:01:14Z</time>
      </trkpt>
      <trkpt lat="45.02765" lon="3.87603">
        <ele>664.497</ele>
        <time>2011-05-30T07:01:24Z</time>
      </trkpt>
      <trkpt lat="45.02751" lon="3.87613">
        <ele>665.085</ele>
        <time>2011-05-30T07:01:34Z</time>
      </trkpt>
      <trkpt lat="45.02741" lon="3.87616">
        <ele>664.483</ele>
        <time>2011-05-30T07:01:44Z</time>
      </trkpt>
      <trkpt lat="45.02728" lon="3.87613">
        <ele>664.618</ele>
        <time>2011-05-30T07:01:54Z</time>
      </trkpt>
      <trkpt lat="45.0271" lon="3.87615">
        <ele>665.536</ele>
        <time>2011-05-30T07:02:04Z</time>
      </trkpt>
      <trkpt lat="45.02703" lon="3.87618">
        <ele>666.037</ele>
        <time>2011-05-30T07:02:14Z</time>
      </trkpt>
      <trkpt lat="45.0269" lon="3.87614">
        <ele>666.211</ele>
        <time>2011-05-30T07:02:24Z</time>
      </trkpt>
      <trkpt lat="45.02673" lon="3.87618">
        <ele>667.029</ele>
        <time>2011-05-30T07:02:34Z</time>
      </trkpt>
      <trkpt lat="45.02664" lon="3.87625">
        <ele>667.229</ele>
        <time>2011-05-30T07:02:44Z</time>
      </trkpt>
      <trkpt lat="45.02658" lon="3.8762">
        <ele>668.28</ele>
        <time>2011-05-30T07:02:54Z</time>
      </trkpt>
      <trkpt lat="45.02648" lon="3.87612">
        <ele>668.784</ele>
        <time>2011-05-30T07:03:04Z</time>
      </trkpt>
      <trkpt lat="45.02636" lon="3.87612">
        <ele>669.457</ele>
        <time>2011-05-30T07:03:14Z</time>
      </trkpt>
      <trkpt lat="45.02626" lon="3.87609">
        <ele>670.21</ele>
        <time>2011-05-30T07:03:24Z</time>
      </trkpt>
      <trkpt lat="45.02616" lon="3.87605">
        <ele>671.049</ele>
        <time>2011-05-30T07:03:34Z</time>
      </trkpt>
      <trkpt lat="45.02603" lon="3.87601">
        <ele>671.901</ele>
        <time>2011-05-30T07:03:44Z</time>
      </trkpt>
      <trkpt lat="45.02595" lon="3.87601">
        <ele>672.404</ele>
        <time>2011-05-30T07:03:54Z</time>
      </trkpt>
      <trkpt lat="45.02583" lon="3.87598">
        <ele>673.868</ele>
        <time>2011-05-30T07:04:04Z</time>
      </trkpt>
      <trkpt lat="45.02572" lon="3.87596">
        <ele>674.413</ele>
        <time>2011-05-30T07:04:14Z</time>
      </trkpt>
      <trkpt lat="45.02558" lon="3.87594">
        <ele>675.5</ele>
        <time>2011-05-30T07:04:24Z</time>
      </trkpt>
      <trkpt lat="45.02547" lon="3.87591">
        <ele>677.012</ele>
        <time>2011-05-30T07:04:34Z</time>
      </trkpt>
      <trkpt lat="45.02538" lon="3.8759">
        <ele>677.863</ele>
        <time>2011-05-30T07:04:44Z</time>
      </trkpt>
      <trkpt lat="45.02526" lon="3.87587">
        <ele>679.353</ele>
        <time>2011-05-30T07:04:54Z</time>
      </trkpt>
      <trkpt lat="45.02513" lon="3.87581">
        <ele>679.995</ele>
        <time>2011-05-30T07:05:04Z</time>
      </trkpt>
      <trkpt lat="45.02505" lon="3.87584">
        <ele>681.705</ele>
        <time>2011-05-30T07:05:14Z</time>
      </trkpt>
      <trkpt lat="45.02495" lon="3.87582">
        <ele>683.271</ele>
        <time>2011-05-30T07:05:24Z</time>
      </trkpt>
      <trkpt lat="45.02485" lon="3.87582">
        <ele>684.867</ele>
        <time>2011-05-30T07:05:34Z</time>
      </trkpt>
      <trkpt lat="45.0248" lon="3.87581">
        <ele>685.76</ele>
        <time>2011-05-30T07:05:44Z</time>
      </trkpt>
      <trkpt lat="45.02471" lon="3.87574">
        <ele>688.257</ele>
        <time>2011-05-30T07:05:54Z</time>
      </trkpt>
      <trkpt lat="45.02461" lon="3.87566">
        <ele>689.717</ele>
        <time>2011-05-30T07:06:04Z</time>
      </trkpt>
      <trkpt lat="45.0245" lon="3.87564">
        <ele>691.891</ele>
        <time>2011-05-30T07:06:14Z</time>
      </trkpt>
      <trkpt lat="45.02443" lon="3.87561">
        <ele>692.71</ele>
        <time>2011-05-30T07:06:24Z</time>
      </trkpt>
      <trkpt lat="45.02431" lon="3.87561">
        <ele>693.912</ele>
        <time>2011-05-30T07:06:34Z</time>
      </trkpt>
      <trkpt lat="45.02421" lon="3.87559">
        <ele>695.823</ele>
        <time>2011-05-30T07:06:44Z</time>
      </trkpt>
      <trkpt lat="45.02411" lon="3.87555">
        <ele>696.391</ele>
        <time>2011-05-30T07:06:54Z</time>
      </trkpt>
      <trkpt lat="45.02403" lon="3.87552">
        <ele>697.24</ele>
        <time>2011-05-30T07:07:04Z</time>
      </trkpt>
      <trkpt lat="45.02395" lon="3.87541">
        <ele>698.912</ele>
        <time>2011-05-30T07:07:14Z</time>
      </trkpt>
      <trkpt lat="45.02386" lon="3.87534">
        <ele>699.419</ele>
        <time>2011-05-30T07:07:24Z</time>
      </trkpt>
      <trkpt lat="45.02375" lon="3.87529">
        <ele>700.567</ele>
        <time>2011-05-30T07:07:34Z</time>
      </trkpt>
      <trkpt lat="45.02368" lon="3.87526">
        <ele>702.115</ele>
        <time>2011-05-30T07:07:44Z</time>
      </trkpt>
      <trkpt lat="45.02356" lon="3.87519">
        <ele>703.29</ele>
        <time>2011-05-30T07:07:54Z</time>
      </trkpt>
      <trkpt lat="45.02344" lon="3.8751">
        <ele>704.779</ele>
        <time>2011-05-30T07:08:04Z</time>
      </trkpt>
      <trkpt lat="45.0234" lon="3.8751">
        <ele>706.613</ele>
        <time>2011-05-30T07:08:14Z</time>
      </trkpt>
      <trkpt lat="45.02334" lon="3.87511">
        <ele>707.909</ele>
        <time>2011-05-30T07:08:24Z</time>
      </trkpt>
      <trkpt lat="45.02328" lon="3.87509">
        <ele>709.491</ele>
        <time>2011-05-30T07:08:34Z</time>
      </trkpt>
      <trkpt lat="45.02314" lon="3.87503">
        <ele>710.701</ele>
        <time>2011-05-30T07:08:44Z</time>
      </trkpt>
      <trkpt lat="45.02304" lon="3.87498">
        <ele>712.768</ele>
        <time>2011-05-30T07:08:54Z</time>
      </trkpt>
      <trkpt lat="45.02295" lon="3.87497">
        <ele>713.994</ele>
        <time>2011-05-30T07:09:04Z</time>
      </trkpt>
      <trkpt lat="45.02289" lon="3.87495">
        <ele>714.492</ele>
        <time>2011-05-30T07:09:14Z</time>
      </trkpt>
      <trkpt lat="45.02288" lon="3.87496">
        <ele>714.235</ele>
        <time>2011-05-30T07:09:24Z</time>
      </trkpt>
      <trkpt lat="45.02282" lon="3.87492">
        <ele>715.506</ele>
        <time>2011-05-30T07:09:34Z</time>
      </trkpt>
      <trkpt lat="45.02273" lon="3.8749">
        <ele>717.195</ele>
        <time>2011-05-30T07:09:44Z</time>
      </trkpt>
      <trkpt lat="45.02264" lon="3.87483">
        <ele>719.09</ele>
        <time>2011-05-30T07:09:54Z</time>
      </trkpt>
      <trkpt lat="45.02258" lon="3.87478">
        <ele>720.899</ele>
        <time>2011-05-30T07:10:04Z</time>
      </trkpt>
      <trkpt lat="45.02258" lon="3.87479">
        <ele>721.423</ele>
        <time>2011-05-30T07:10:14Z</time>
      </trkpt>
      <trkpt lat="45.02256" lon="3.87478">
        <ele>720.968</ele>
        <time>2011-05-30T07:10:24Z</time>
      </trkpt>
      <trkpt lat="45.02255" lon="3.8748">
        <ele>721.261</ele>
        <time>2011-05-30T07:10:34Z</time>
      </trkpt>
      <trkpt lat="45.02247" lon="3.87476">
        <ele>722.255</ele>
        <time>2011-05-30T07:10:44Z</time>
      </trkpt>
      <trkpt lat="45.02237" lon="3.87469">
        <ele>724.1</ele>
        <time>2011-05-30T07:10:54Z</time>
      </trkpt>
      <trkpt lat="45.02227" lon="3.87464">
        <ele>724.726</ele>
        <time>2011-05-30T07:11:04Z</time>
      </trkpt>
      <trkpt lat="45.02219" lon="3.87461">
        <ele>726.49</ele>
        <time>2011-05-30T07:11:14Z</time>
      </trkpt>
      <trkpt lat="45.02209" lon="3.87454">
        <ele>728.204</ele>
        <time>2011-05-30T07:11:24Z</time>
      </trkpt>
      <trkpt lat="45.02197" lon="3.87448">
        <ele>729.354</ele>
        <time>2011-05-30T07:11:34Z</time>
      </trkpt>
      <trkpt lat="45.02189" lon="3.87443">
        <ele>730.7</ele>
        <time>2011-05-30T07:11:44Z</time>
      </trkpt>
      <trkpt lat="45.02181" lon="3.87439">
        <ele>731.761</ele>
        <time>2011-05-30T07:11:54Z</time>
      </trkpt>
      <trkpt lat="45.02168" lon="3.87433">
        <ele>732.764</ele>
        <time>2011-05-30T07:12:04Z</time>
      </trkpt>
      <trkpt lat="45.02159" lon="3.87421">
        <ele>734.115</ele>
        <time>2011-05-30T07:12:14Z</time>
      </trkpt>
      <trkpt lat="45.02152" lon="3.87415">
        <ele>734.598</ele>
        <time>2011-05-30T07:12:24Z</time>
      </trkpt>
      <trkpt lat="45.02147" lon="3.87407">
        <ele>735.858</ele>
        <time>2011-05-30T07:12:34Z</time>
      </trkpt>
      <trkpt lat="45.02138" lon="3.874">
        <ele>736.727</ele>
        <time>2011-05-30T07:12:44Z</time>
      </trkpt>
      <trkpt lat="45.02127" lon="3.87391">
        <ele>737.81</ele>
        <time>2011-05-30T07:12:54Z</time>
      </trkpt>
      <trkpt lat="45.02118" lon="3.87384">
        <ele>738.928</ele>
        <time>2011-05-30T07:13:04Z</time>
      </trkpt>
      <trkpt lat="45.02107" lon="3.87375">
        <ele>740.144</ele>
        <time>2011-05-30T07:13:14Z</time>
      </trkpt>
      <trkpt lat="45.02096" lon="3.87369">
        <ele>741.694</ele>
        <time>2011-05-30T07:13:24Z</time>
      </trkpt>
      <trkpt lat="45.02087" lon="3.87363">
        <ele>742.732</ele>
        <time>2011-05-30T07:13:34Z</time>
      </trkpt>
      <trkpt lat="45.02078" lon="3.87356">
        <ele>744.225</ele>
        <time>2011-05-30T07:13:44Z</time>
      </trkpt>
      <trkpt lat="45.02069" lon="3.8735">
        <ele>745.376</ele>
        <time>2011-05-30T07:13:54Z</time>
      </trkpt>
      <trkpt lat="45.02061" lon="3.87344">
        <ele>746.174</ele>
        <time>2011-05-30T07:14:04Z</time>
      </trkpt>
      <trkpt lat="45.02053" lon="3.87336">
        <ele>747.58</ele>
        <time>2011-05-30T07:14:14Z</time>
      </trkpt>
      <trkpt lat="45.02045" lon="3.87329">
        <ele>749.241</ele>
        <time>2011-05-30T07:14:24Z</time>
      </trkpt>
      <trkpt lat="45.02037" lon="3.8732">
        <ele>751.307</ele>
        <time>2011-05-30T07:14:34Z</time>
      </trkpt>
      <trkpt lat="45.0203" lon="3.87311">
        <ele>751.855</ele>
        <time>2011-05-30T07:14:44Z</time>
      </trkpt>
      <trkpt lat="45.02026" lon="3.87301">
        <ele>753.604</ele>
        <time>2011-05-30T07:14:54Z</time>
      </trkpt>
      <trkpt lat="45.02021" lon="3.87293">
        <ele>755.025</ele>
        <time>2011-05-30T07:15:04Z</time>
      </trkpt>
      <trkpt lat="45.02015" lon="3.87284">
        <ele>756.467</ele>
        <time>2011-05-30T07:15:14Z</time>
      </trkpt>
      <trkpt lat="45.0201" lon="3.8728">
        <ele>758.346</ele>
        <time>2011-05-30T07:15:24Z</time>
      </trkpt>
      <trkpt lat="45.02005" lon="3.87272">
        <ele>759.979</ele>
        <time>2011-05-30T07:15:34Z</time>
      </trkpt>
      <trkpt lat="45.02001" lon="3.87265">
        <ele>762.318</ele>
        <time>2011-05-30T07:15:44Z</time>
      </trkpt>
      <trkpt lat="45.01997" lon="3.87261">
        <ele>764.233</ele>
        <time>2011-05-30T07:15:54Z</time>
      </trkpt>
      <trkpt lat="45.0199" lon="3.87257">
        <ele>766.084</ele>
        <time>2011-05-30T07:16:04Z</time>
      </trkpt>
      <trkpt lat="45.01985" lon="3.8725">
        <ele>767.85</ele>
        <time>2011-05-30T07:16:14Z</time>
      </trkpt>
      <trkpt lat="45.01982" lon="3.87241">
        <ele>769.427</ele>
        <time>2011-05-30T07:16:24Z</time>
      </trkpt>
      <trkpt lat="45.01977" lon="3.87241">
        <ele>770.445</ele>
        <time>2011-05-30T07:16:34Z</time>
      </trkpt>
      <trkpt lat="45.01976" lon="3.87241">
        <ele>770.116</ele>
        <time>2011-05-30T07:16:44Z</time>
      </trkpt>
      <trkpt lat="45.01976" lon="3.87241">
        <ele>770.484</ele>
        <time>2011-05-30T07:16:54Z</time>
      </trkpt>
      <trkpt lat="45.01976" lon="3.8724">
        <ele>770.405</ele>
        <time>2011-05-30T07:17:04Z</time>
      </trkpt>
      <trkpt lat="45.01976" lon="3.8724">
        <ele>770.148</ele>
        <time>2011-05-30T07:17:14Z</time>
      </trkpt>
      <trkpt lat="45.01976" lon="3.8724">
        <ele>770.398</ele>
        <time>2011-05-30T07:17:24Z</time>
      </trkpt>
      <trkpt lat="45.01976" lon="3.8724">
        <ele>770.424</ele>
        <time>2011-05-30T07:17:34Z</time>
      </trkpt>
      <trkpt lat="45.01976" lon="3.8724">
        <ele>769.402</ele>
        <time>2011-05-30T07:17:44Z</time>
      </trkpt>
      <trkpt lat="45.01976" lon="3.8724">
        <ele>771.082</ele>
        <time>2011-05-30T07:17:54Z</time>
      </trkpt>
      <trkpt lat="45.01976" lon="3.8724">
        <ele>770.42</ele>
        <time>2011-05-30T07:18:04Z</time>
      </trkpt>
      <trkpt lat="45.01976" lon="3.8724">
        <ele>769.958</ele>
        <time>2011-05-30T07:18:14Z</time>
      </trkpt>
      <trkpt lat="45.01976" lon="3.8724">
        <ele>770.802</ele>
        <time>2011-05-30T07:18:24Z</time>
      </trkpt>
      <trkpt lat="45.01976" lon="3.8724">
        <ele>770.476</ele>
        <time>2011-05-30T07:18:34Z</time>
      </trkpt>
      <trkpt lat="45.01977" lon="3.8724">
        <ele>770.974</ele>
        <time>2011-05-30T07:18:44Z</time>
      </trkpt>
      <trkpt lat="45.01977" lon="3.8724">
        <ele>770.972</ele>
        <time>2011-05-30T07:18:54Z</time>
      </trkpt>
      <trkpt lat="45.01977" lon="3.8724">
        <ele>770.703</ele>
        <time>2011-05-30T07:19:04Z</time>
      </trkpt>
      <trkpt lat="45.01977" lon="3.8724">
        <ele>770.911</ele>
        <time>2011-05-30T07:19:14Z</time>
      </trkpt>
      <trkpt lat="45.0197" lon="3.87244">
        <ele>771.239</ele>
        <time>2011-05-30T07:19:24Z</time>
      </trkpt>
      <trkpt lat="45.01964" lon="3.87246">
        <ele>772.516</ele>
        <time>2011-05-30T07:19:34Z</time>
      </trkpt>
      <trkpt lat="45.01959" lon="3.87246">
        <ele>772.627</ele>
        <time>2011-05-30T07:19:44Z</time>
      </trkpt>
      <trkpt lat="45.01957" lon="3.87246">
        <ele>772.856</ele>
        <time>2011-05-30T07:19:54Z</time>
      </trkpt>
      <trkpt lat="45.01948" lon="3.87246">
        <ele>774.003</ele>
        <time>2011-05-30T07:20:04Z</time>
      </trkpt>
      <trkpt lat="45.0194" lon="3.87248">
        <ele>774.85</ele>
        <time>2011-05-30T07:20:14Z</time>
      </trkpt>
      <trkpt lat="45.01931" lon="3.87247">
        <ele>776.365</ele>
        <time>2011-05-30T07:20:24Z</time>
      </trkpt>
      <trkpt lat="45.01923" lon="3.87249">
        <ele>777.618</ele>
        <time>2011-05-30T07:20:34Z</time>
      </trkpt>
      <trkpt lat="45.01914" lon="3.8725">
        <ele>778.603</ele>
        <time>2011-05-30T07:20:44Z</time>
      </trkpt>
      <trkpt lat="45.01905" lon="3.87252">
        <ele>780.105</ele>
        <time>2011-05-30T07:20:54Z</time>
      </trkpt>
      <trkpt lat="45.01897" lon="3.87254">
        <ele>781.08</ele>
        <time>2011-05-30T07:21:04Z</time>
      </trkpt>
      <trkpt lat="45.01889" lon="3.87257">
        <ele>782.611</ele>
        <time>2011-05-30T07:21:14Z</time>
      </trkpt>
      <trkpt lat="45.01881" lon="3.8726">
        <ele>783.486</ele>
        <time>2011-05-30T07:21:24Z</time>
      </trkpt>
      <trkpt lat="45.01873" lon="3.87261">
        <ele>784.858</ele>
        <time>2011-05-30T07:21:34Z</time>
      </trkpt>
      <trkpt lat="45.01865" lon="3.87261">
        <ele>785.8</ele>
        <time>2011-05-30T07:21:44Z</time>
      </trkpt>
      <trkpt lat="45.01858" lon="3.87262">
        <ele>787.077</ele>
        <time>2011-05-30T07:21:54Z</time>
      </trkpt>
      <trkpt lat="45.0185" lon="3.87258">
        <ele>787.714</ele>
        <time>2011-05-30T07:22:04Z</time>
      </trkpt>
      <trkpt lat="45.01843" lon="3.87252">
        <ele>788.497</ele>
        <time>2011-05-30T07:22:14Z</time>
      </trkpt>
      <trkpt lat="45.01835" lon="3.87245">
        <ele>789.503</ele>
        <time>2011-05-30T07:22:24Z</time>
      </trkpt>
      <trkpt lat="45.01827" lon="3.87238">
        <ele>790.617</ele>
        <time>2011-05-30T07:22:34Z</time>
      </trkpt>
      <trkpt lat="45.01817" lon="3.87233">
        <ele>791.481</ele>
        <time>2011-05-30T07:22:44Z</time>
      </trkpt>
      <trkpt lat="45.01809" lon="3.87227">
        <ele>792.399</ele>
        <time>2011-05-30T07:22:54Z</time>
      </trkpt>
      <trkpt lat="45.018" lon="3.87219">
        <ele>793.135</ele>
        <time>2011-05-30T07:23:04Z</time>
      </trkpt>
      <trkpt lat="45.01791" lon="3.87211">
        <ele>793.371</ele>
        <time>2011-05-30T07:23:14Z</time>
      </trkpt>
      <trkpt lat="45.01782" lon="3.87204">
        <ele>794.448</ele>
        <time>2011-05-30T07:23:24Z</time>
      </trkpt>
      <trkpt lat="45.01773" lon="3.87198">
        <ele>795.237</ele>
        <time>2011-05-30T07:23:34Z</time>
      </trkpt>
      <trkpt lat="45.01764" lon="3.8719">
        <ele>796.358</ele>
        <time>2011-05-30T07:23:44Z</time>
      </trkpt>
      <trkpt lat="45.01754" lon="3.87188">
        <ele>797.113</ele>
        <time>2011-05-30T07:23:54Z</time>
      </trkpt>
      <trkpt lat="45.01745" lon="3.8718">
        <ele>797.933</ele>
        <time>2011-05-30T07:24:04Z</time>
      </trkpt>
      <trkpt lat="45.01735" lon="3.87174">
        <ele>798.536</ele>
        <time>2011-05-30T07:24:14Z</time>
      </trkpt>
      <trkpt lat="45.01725" lon="3.87168">
        <ele>799.998</ele>
        <time>2011-05-30T07:24:24Z</time>
      </trkpt>
      <trkpt lat="45.01716" lon="3.87163">
        <ele>800.828</ele>
        <time>2011-05-30T07:24:34Z</time>
      </trkpt>
      <trkpt lat="45.01705" lon="3.87157">
        <ele>801.231</ele>
        <time>2011-05-30T07:24:44Z</time>
      </trkpt>
      <trkpt lat="45.01695" lon="3.8715">
        <ele>802.013</ele>
        <time>2011-05-30T07:24:54Z</time>
      </trkpt>
      <trkpt lat="45.01684" lon="3.87142">
        <ele>802.841</ele>
        <time>2011-05-30T07:25:04Z</time>
      </trkpt>
      <trkpt lat="45.01673" lon="3.87136">
        <ele>804.102</ele>
        <time>2011-05-30T07:25:14Z</time>
      </trkpt>
      <trkpt lat="45.01662" lon="3.87128">
        <ele>805.301</ele>
        <time>2011-05-30T07:25:24Z</time>
      </trkpt>
      <trkpt lat="45.01651" lon="3.8712">
        <ele>806.447</ele>
        <time>2011-05-30T07:25:34Z</time>
      </trkpt>
      <trkpt lat="45.0164" lon="3.87116">
        <ele>807.636</ele>
        <time>2011-05-30T07:25:44Z</time>
      </trkpt>
      <trkpt lat="45.0163" lon="3.87113">
        <ele>808.621</ele>
        <time>2011-05-30T07:25:54Z</time>
      </trkpt>
      <trkpt lat="45.01621" lon="3.87106">
        <ele>809.312</ele>
        <time>2011-05-30T07:26:04Z</time>
      </trkpt>
      <trkpt lat="45.01612" lon="3.87101">
        <ele>810.472</ele>
        <time>2011-05-30T07:26:14Z</time>
      </trkpt>
      <trkpt lat="45.01602" lon="3.87093">
        <ele>811.419</ele>
        <time>2011-05-30T07:26:24Z</time>
      </trkpt>
      <trkpt lat="45.01592" lon="3.87086">
        <ele>812.42</ele>
        <time>2011-05-30T07:26:34Z</time>
      </trkpt>
      <trkpt lat="45.01581" lon="3.87081">
        <ele>813.504</ele>
        <time>2011-05-30T07:26:44Z</time>
      </trkpt>
      <trkpt lat="45.01571" lon="3.87076">
        <ele>814.428</ele>
        <time>2011-05-30T07:26:54Z</time>
      </trkpt>
      <trkpt lat="45.01563" lon="3.87073">
        <ele>815.775</ele>
        <time>2011-05-30T07:27:04Z</time>
      </trkpt>
      <trkpt lat="45.01551" lon="3.87069">
        <ele>816.974</ele>
        <time>2011-05-30T07:27:14Z</time>
      </trkpt>
      <trkpt lat="45.01543" lon="3.87062">
        <ele>817.957</ele>
        <time>2011-05-30T07:27:24Z</time>
      </trkpt>
      <trkpt lat="45.01535" lon="3.87053">
        <ele>819.529</ele>
        <time>2011-05-30T07:27:34Z</time>
      </trkpt>
      <trkpt lat="45.01528" lon="3.87043">
        <ele>821.578</ele>
        <time>2011-05-30T07:27:44Z</time>
      </trkpt>
      <trkpt lat="45.01521" lon="3.87036">
        <ele>823.071</ele>
        <time>2011-05-30T07:27:54Z</time>
      </trkpt>
      <trkpt lat="45.01512" lon="3.87028">
        <ele>824.255</ele>
        <time>2011-05-30T07:28:04Z</time>
      </trkpt>
      <trkpt lat="45.01504" lon="3.87023">
        <ele>825.805</ele>
        <time>2011-05-30T07:28:14Z</time>
      </trkpt>
      <trkpt lat="45.01496" lon="3.87021">
        <ele>828.078</ele>
        <time>2011-05-30T07:28:24Z</time>
      </trkpt>
      <trkpt lat="45.01486" lon="3.87015">
        <ele>828.896</ele>
        <time>2011-05-30T07:28:34Z</time>
      </trkpt>
      <trkpt lat="45.01477" lon="3.87011">
        <ele>829.972</ele>
        <time>2011-05-30T07:28:44Z</time>
      </trkpt>
      <trkpt lat="45.01467" lon="3.87007">
        <ele>831.222</ele>
        <time>2011-05-30T07:28:54Z</time>
      </trkpt>
      <trkpt lat="45.01455" lon="3.87004">
        <ele>832.567</ele>
        <time>2011-05-30T07:29:04Z</time>
      </trkpt>
      <trkpt lat="45.01447" lon="3.87004">
        <ele>833.986</ele>
        <time>2011-05-30T07:29:14Z</time>
      </trkpt>
      <trkpt lat="45.01438" lon="3.87007">
        <ele>835.83</ele>
        <time>2011-05-30T07:29:24Z</time>
      </trkpt>
      <trkpt lat="45.0143" lon="3.87013">
        <ele>836.944</ele>
        <time>2011-05-30T07:29:34Z</time>
      </trkpt>
      <trkpt lat="45.01423" lon="3.87014">
        <ele>838.02</ele>
        <time>2011-05-30T07:29:44Z</time>
      </trkpt>
      <trkpt lat="45.01415" lon="3.87018">
        <ele>840.227</ele>
        <time>2011-05-30T07:29:54Z</time>
      </trkpt>
      <trkpt lat="45.01408" lon="3.87016">
        <ele>841.511</ele>
        <time>2011-05-30T07:30:04Z</time>
      </trkpt>
      <trkpt lat="45.01398" lon="3.87014">
        <ele>843.3</ele>
        <time>2011-05-30T07:30:14Z</time>
      </trkpt>
      <trkpt lat="45.01385" lon="3.87012">
        <ele>844.852</ele>
        <time>2011-05-30T07:30:24Z</time>
      </trkpt>
      <trkpt lat="45.01378" lon="3.87012">
        <ele>845.9</ele>
        <time>2011-05-30T07:30:34Z</time>
      </trkpt>
      <trkpt lat="45.01369" lon="3.87014">
        <ele>847.624</ele>
        <time>2011-05-30T07:30:44Z</time>
      </trkpt>
      <trkpt lat="45.01359" lon="3.87023">
        <ele>849.825</ele>
        <time>2011-05-30T07:30:54Z</time>
      </trkpt>
      <trkpt lat="45.01349" lon="3.87022">
        <ele>849.581</ele>
        <time>2011-05-30T07:31:04Z</time>
      </trkpt>
      <trkpt lat="45.01338" lon="3.87017">
        <ele>850.591</ele>
        <time>2011-05-30T07:31:14Z</time>
      </trkpt>
      <trkpt lat="45.01331" lon="3.87008">
        <ele>851.093</ele>
        <time>2011-05-30T07:31:24Z</time>
      </trkpt>
      <trkpt lat="45.01321" lon="3.86996">
        <ele>852.317</ele>
        <time>2011-05-30T07:31:34Z</time>
      </trkpt>
      <trkpt lat="45.01312" lon="3.86987">
        <ele>852.662</ele>
        <time>2011-05-30T07:31:44Z</time>
      </trkpt>
      <trkpt lat="45.01301" lon="3.8698">
        <ele>852.698</ele>
        <time>2011-05-30T07:31:54Z</time>
      </trkpt>
      <trkpt lat="45.01294" lon="3.86975">
        <ele>853.999</ele>
        <time>2011-05-30T07:32:04Z</time>
      </trkpt>
      <trkpt lat="45.01282" lon="3.86968">
        <ele>853.257</ele>
        <time>2011-05-30T07:32:14Z</time>
      </trkpt>
      <trkpt lat="45.01271" lon="3.86962">
        <ele>853.774</ele>
        <time>2011-05-30T07:32:24Z</time>
      </trkpt>
      <trkpt lat="45.01262" lon="3.86956">
        <ele>854.199</ele>
        <time>2011-05-30T07:32:34Z</time>
      </trkpt>
      <trkpt lat="45.01262" lon="3.86953">
        <ele>854.18</ele>
        <time>2011-05-30T07:32:44Z</time>
      </trkpt>
      <trkpt lat="45.01262" lon="3.86956">
        <ele>853.656</ele>
        <time>2011-05-30T07:32:54Z</time>
      </trkpt>
      <trkpt lat="45.01256" lon="3.86949">
        <ele>854.085</ele>
        <time>2011-05-30T07:33:04Z</time>
      </trkpt>
      <trkpt lat="45.01245" lon="3.86942">
        <ele>854.112</ele>
        <time>2011-05-30T07:33:14Z</time>
      </trkpt>
      <trkpt lat="45.01233" lon="3.86934">
        <ele>855.788</ele>
        <time>2011-05-30T07:33:24Z</time>
      </trkpt>
      <trkpt lat="45.01224" lon="3.8693">
        <ele>855.315</ele>
        <time>2011-05-30T07:33:34Z</time>
      </trkpt>
      <trkpt lat="45.01224" lon="3.8693">
        <ele>856.051</ele>
        <time>2011-05-30T07:33:44Z</time>
      </trkpt>
      <trkpt lat="45.01223" lon="3.86931">
        <ele>855.735</ele>
        <time>2011-05-30T07:33:54Z</time>
      </trkpt>
      <trkpt lat="45.01223" lon="3.86931">
        <ele>856.405</ele>
        <time>2011-05-30T07:34:04Z</time>
      </trkpt>
      <trkpt lat="45.01222" lon="3.86932">
        <ele>856.252</ele>
        <time>2011-05-30T07:34:14Z</time>
      </trkpt>
      <trkpt lat="45.01224" lon="3.86937">
        <ele>855.738</ele>
        <time>2011-05-30T07:34:24Z</time>
      </trkpt>
      <trkpt lat="45.01224" lon="3.86937">
        <ele>855.122</ele>
        <time>2011-05-30T07:34:34Z</time>
      </trkpt>
      <trkpt lat="45.01223" lon="3.86938">
        <ele>856.296</ele>
        <time>2011-05-30T07:34:44Z</time>
      </trkpt>
      <trkpt lat="45.01223" lon="3.86935">
        <ele>854.931</ele>
        <time>2011-05-30T07:34:54Z</time>
      </trkpt>
      <trkpt lat="45.01218" lon="3.86928">
        <ele>855.055</ele>
        <time>2011-05-30T07:35:04Z</time>
      </trkpt>
      <trkpt lat="45.01215" lon="3.86927">
        <ele>855.054</ele>
        <time>2011-05-30T07:35:14Z</time>
      </trkpt>
      <trkpt lat="45.0121" lon="3.86925">
        <ele>854.858</ele>
        <time>2011-05-30T07:35:24Z</time>
      </trkpt>
      <trkpt lat="45.01202" lon="3.86916">
        <ele>855.779</ele>
        <time>2011-05-30T07:35:34Z</time>
      </trkpt>
      <trkpt lat="45.01191" lon="3.86909">
        <ele>855.777</ele>
        <time>2011-05-30T07:35:44Z</time>
      </trkpt>
      <trkpt lat="45.01181" lon="3.86904">
        <ele>856.466</ele>
        <time>2011-05-30T07:35:54Z</time>
      </trkpt>
      <trkpt lat="45.01173" lon="3.86898">
        <ele>856.215</ele>
        <time>2011-05-30T07:36:04Z</time>
      </trkpt>
      <trkpt lat="45.01172" lon="3.86902">
        <ele>856.286</ele>
        <time>2011-05-30T07:36:14Z</time>
      </trkpt>
      <trkpt lat="45.01172" lon="3.86902">
        <ele>855.997</ele>
        <time>2011-05-30T07:36:24Z</time>
      </trkpt>
      <trkpt lat="45.01172" lon="3.86903">
        <ele>856.311</ele>
        <time>2011-05-30T07:36:34Z</time>
      </trkpt>
      <trkpt lat="45.01171" lon="3.86902">
        <ele>856.54</ele>
        <time>2011-05-30T07:36:44Z</time>
      </trkpt>
      <trkpt lat="45.01171" lon="3.86898">
        <ele>856.842</ele>
        <time>2011-05-30T07:36:54Z</time>
      </trkpt>
      <trkpt lat="45.01161" lon="3.86888">
        <ele>857.347</ele>
        <time>2011-05-30T07:37:04Z</time>
      </trkpt>
      <trkpt lat="45.01151" lon="3.86882">
        <ele>858.312</ele>
        <time>2011-05-30T07:37:14Z</time>
      </trkpt>
      <trkpt lat="45.01141" lon="3.86875">
        <ele>859.075</ele>
        <time>2011-05-30T07:37:24Z</time>
      </trkpt>
      <trkpt lat="45.01131" lon="3.86869">
        <ele>858.912</ele>
        <time>2011-05-30T07:37:34Z</time>
      </trkpt>
      <trkpt lat="45.0112" lon="3.86864">
        <ele>859.941</ele>
        <time>2011-05-30T07:37:44Z</time>
      </trkpt>
      <trkpt lat="45.01109" lon="3.86857">
        <ele>860.34</ele>
        <time>2011-05-30T07:37:54Z</time>
      </trkpt>
      <trkpt lat="45.01098" lon="3.86849">
        <ele>860.381</ele>
        <time>2011-05-30T07:38:04Z</time>
      </trkpt>
      <trkpt lat="45.01086" lon="3.86842">
        <ele>861.015</ele>
        <time>2011-05-30T07:38:14Z</time>
      </trkpt>
      <trkpt lat="45.01073" lon="3.86835">
        <ele>861.179</ele>
        <time>2011-05-30T07:38:24Z</time>
      </trkpt>
      <trkpt lat="45.01063" lon="3.86824">
        <ele>861.101</ele>
        <time>2011-05-30T07:38:34Z</time>
      </trkpt>
      <trkpt lat="45.01053" lon="3.86811">
        <ele>862.12</ele>
        <time>2011-05-30T07:38:44Z</time>
      </trkpt>
      <trkpt lat="45.01044" lon="3.86803">
        <ele>861.632</ele>
        <time>2011-05-30T07:38:54Z</time>
      </trkpt>
      <trkpt lat="45.01033" lon="3.86794">
        <ele>862.035</ele>
        <time>2011-05-30T07:39:04Z</time>
      </trkpt>
      <trkpt lat="45.01024" lon="3.86783">
        <ele>861.875</ele>
        <time>2011-05-30T07:39:14Z</time>
      </trkpt>
      <trkpt lat="45.01015" lon="3.86772">
        <ele>861.601</ele>
        <time>2011-05-30T07:39:24Z</time>
      </trkpt>
      <trkpt lat="45.01005" lon="3.86761">
        <ele>861.855</ele>
        <time>2011-05-30T07:39:34Z</time>
      </trkpt>
      <trkpt lat="45.00993" lon="3.86752">
        <ele>861.351</ele>
        <time>2011-05-30T07:39:44Z</time>
      </trkpt>
      <trkpt lat="45.00983" lon="3.86741">
        <ele>861.11</ele>
        <time>2011-05-30T07:39:54Z</time>
      </trkpt>
      <trkpt lat="45.00969" lon="3.86734">
        <ele>860.969</ele>
        <time>2011-05-30T07:40:04Z</time>
      </trkpt>
      <trkpt lat="45.00956" lon="3.86733">
        <ele>861.412</ele>
        <time>2011-05-30T07:40:14Z</time>
      </trkpt>
      <trkpt lat="45.00944" lon="3.86727">
        <ele>861.735</ele>
        <time>2011-05-30T07:40:24Z</time>
      </trkpt>
      <trkpt lat="45.00933" lon="3.86721">
        <ele>862.416</ele>
        <time>2011-05-30T07:40:34Z</time>
      </trkpt>
      <trkpt lat="45.00922" lon="3.86711">
        <ele>862.853</ele>
        <time>2011-05-30T07:40:44Z</time>
      </trkpt>
      <trkpt lat="45.0091" lon="3.86706">
        <ele>862.24</ele>
        <time>2011-05-30T07:40:54Z</time>
      </trkpt>
      <trkpt lat="45.00898" lon="3.867">
        <ele>863.48</ele>
        <time>2011-05-30T07:41:04Z</time>
      </trkpt>
      <trkpt lat="45.00886" lon="3.86694">
        <ele>863.426</ele>
        <time>2011-05-30T07:41:14Z</time>
      </trkpt>
      <trkpt lat="45.00875" lon="3.86687">
        <ele>864.468</ele>
        <time>2011-05-30T07:41:24Z</time>
      </trkpt>
      <trkpt lat="45.00864" lon="3.86683">
        <ele>864.474</ele>
        <time>2011-05-30T07:41:34Z</time>
      </trkpt>
      <trkpt lat="45.00851" lon="3.86677">
        <ele>864.486</ele>
        <time>2011-05-30T07:41:44Z</time>
      </trkpt>
      <trkpt lat="45.00841" lon="3.86669">
        <ele>864.336</ele>
        <time>2011-05-30T07:41:54Z</time>
      </trkpt>
      <trkpt lat="45.00829" lon="3.86662">
        <ele>864.438</ele>
        <time>2011-05-30T07:42:04Z</time>
      </trkpt>
      <trkpt lat="45.00817" lon="3.86655">
        <ele>864.605</ele>
        <time>2011-05-30T07:42:14Z</time>
      </trkpt>
      <trkpt lat="45.00805" lon="3.86648">
        <ele>864.716</ele>
        <time>2011-05-30T07:42:24Z</time>
      </trkpt>
      <trkpt lat="45.00794" lon="3.86644">
        <ele>864.449</ele>
        <time>2011-05-30T07:42:34Z</time>
      </trkpt>
      <trkpt lat="45.00783" lon="3.86637">
        <ele>864.397</ele>
        <time>2011-05-30T07:42:44Z</time>
      </trkpt>
      <trkpt lat="45.00772" lon="3.8663">
        <ele>865.124</ele>
        <time>2011-05-30T07:42:54Z</time>
      </trkpt>
      <trkpt lat="45.00759" lon="3.86624">
        <ele>865.548</ele>
        <time>2011-05-30T07:43:04Z</time>
      </trkpt>
      <trkpt lat="45.00748" lon="3.86616">
        <ele>865.698</ele>
        <time>2011-05-30T07:43:14Z</time>
      </trkpt>
      <trkpt lat="45.00736" lon="3.86606">
        <ele>866.578</ele>
        <time>2011-05-30T07:43:24Z</time>
      </trkpt>
      <trkpt lat="45.00724" lon="3.86597">
        <ele>865.115</ele>
        <time>2011-05-30T07:43:34Z</time>
      </trkpt>
      <trkpt lat="45.00714" lon="3.86589">
        <ele>865.626</ele>
        <time>2011-05-30T07:43:44Z</time>
      </trkpt>
      <trkpt lat="45.00702" lon="3.86578">
        <ele>866.095</ele>
        <time>2011-05-30T07:43:54Z</time>
      </trkpt>
      <trkpt lat="45.0069" lon="3.86569">
        <ele>865.784</ele>
        <time>2011-05-30T07:44:04Z</time>
      </trkpt>
      <trkpt lat="45.00678" lon="3.86562">
        <ele>865.981</ele>
        <time>2011-05-30T07:44:14Z</time>
      </trkpt>
      <trkpt lat="45.00669" lon="3.86552">
        <ele>866.398</ele>
        <time>2011-05-30T07:44:24Z</time>
      </trkpt>
      <trkpt lat="45.00662" lon="3.86543">
        <ele>866.341</ele>
        <time>2011-05-30T07:44:34Z</time>
      </trkpt>
      <trkpt lat="45.0066" lon="3.8654">
        <ele>866.813</ele>
        <time>2011-05-30T07:44:44Z</time>
      </trkpt>
      <trkpt lat="45.0065" lon="3.86529">
        <ele>866.283</ele>
        <time>2011-05-30T07:44:54Z</time>
      </trkpt>
      <trkpt lat="45.0064" lon="3.86519">
        <ele>865.981</ele>
        <time>2011-05-30T07:45:04Z</time>
      </trkpt>
      <trkpt lat="45.00631" lon="3.86508">
        <ele>865.969</ele>
        <time>2011-05-30T07:45:14Z</time>
      </trkpt>
      <trkpt lat="45.00621" lon="3.86498">
        <ele>866.508</ele>
        <time>2011-05-30T07:45:24Z</time>
      </trkpt>
      <trkpt lat="45.0061" lon="3.86487">
        <ele>866.199</ele>
        <time>2011-05-30T07:45:34Z</time>
      </trkpt>
      <trkpt lat="45.00601" lon="3.86474">
        <ele>866.296</ele>
        <time>2011-05-30T07:45:44Z</time>
      </trkpt>
      <trkpt lat="45.00591" lon="3.86463">
        <ele>866.346</ele>
        <time>2011-05-30T07:45:54Z</time>
      </trkpt>
      <trkpt lat="45.00582" lon="3.86451">
        <ele>866.954</ele>
        <time>2011-05-30T07:46:04Z</time>
      </trkpt>
      <trkpt lat="45.00574" lon="3.8644">
        <ele>866.036</ele>
        <time>2011-05-30T07:46:14Z</time>
      </trkpt>
      <trkpt lat="45.00565" lon="3.86429">
        <ele>866.174</ele>
        <time>2011-05-30T07:46:24Z</time>
      </trkpt>
      <trkpt lat="45.00556" lon="3.86418">
        <ele>867.187</ele>
        <time>2011-05-30T07:46:34Z</time>
      </trkpt>
      <trkpt lat="45.00548" lon="3.8641">
        <ele>867.844</ele>
        <time>2011-05-30T07:46:44Z</time>
      </trkpt>
      <trkpt lat="45.00538" lon="3.86395">
        <ele>868.108</ele>
        <time>2011-05-30T07:46:54Z</time>
      </trkpt>
      <trkpt lat="45.00528" lon="3.86385">
        <ele>868.492</ele>
        <time>2011-05-30T07:47:04Z</time>
      </trkpt>
      <trkpt lat="45.00519" lon="3.86376">
        <ele>868.793</ele>
        <time>2011-05-30T07:47:14Z</time>
      </trkpt>
      <trkpt lat="45.00509" lon="3.86365">
        <ele>868.987</ele>
        <time>2011-05-30T07:47:24Z</time>
      </trkpt>
      <trkpt lat="45.00504" lon="3.86361">
        <ele>869.625</ele>
        <time>2011-05-30T07:47:34Z</time>
      </trkpt>
      <trkpt lat="45.00504" lon="3.86361">
        <ele>869.843</ele>
        <time>2011-05-30T07:47:44Z</time>
      </trkpt>
      <trkpt lat="45.00496" lon="3.86353">
        <ele>868.774</ele>
        <time>2011-05-30T07:47:54Z</time>
      </trkpt>
      <trkpt lat="45.00486" lon="3.86342">
        <ele>869.58</ele>
        <time>2011-05-30T07:48:04Z</time>
      </trkpt>
      <trkpt lat="45.00476" lon="3.86334">
        <ele>869.551</ele>
        <time>2011-05-30T07:48:14Z</time>
      </trkpt>
      <trkpt lat="45.00463" lon="3.86325">
        <ele>869.598</ele>
        <time>2011-05-30T07:48:24Z</time>
      </trkpt>
      <trkpt lat="45.00453" lon="3.86321">
        <ele>870.156</ele>
        <time>2011-05-30T07:48:34Z</time>
      </trkpt>
      <trkpt lat="45.00443" lon="3.86309">
        <ele>870.549</ele>
        <time>2011-05-30T07:48:44Z</time>
      </trkpt>
      <trkpt lat="45.00434" lon="3.86303">
        <ele>871.239</ele>
        <time>2011-05-30T07:48:54Z</time>
      </trkpt>
      <trkpt lat="45.00425" lon="3.86293">
        <ele>871.267</ele>
        <time>2011-05-30T07:49:04Z</time>
      </trkpt>
      <trkpt lat="45.00415" lon="3.86285">
        <ele>872.472</ele>
        <time>2011-05-30T07:49:14Z</time>
      </trkpt>
      <trkpt lat="45.00404" lon="3.86276">
        <ele>872.496</ele>
        <time>2011-05-30T07:49:24Z</time>
      </trkpt>
      <trkpt lat="45.00399" lon="3.86267">
        <ele>871.714</ele>
        <time>2011-05-30T07:49:34Z</time>
      </trkpt>
      <trkpt lat="45.0039" lon="3.86269">
        <ele>871.696</ele>
        <time>2011-05-30T07:49:44Z</time>
      </trkpt>
      <trkpt lat="45.00386" lon="3.86268">
        <ele>872.582</ele>
        <time>2011-05-30T07:49:54Z</time>
      </trkpt>
      <trkpt lat="45.0038" lon="3.86265">
        <ele>872.855</ele>
        <time>2011-05-30T07:50:04Z</time>
      </trkpt>
      <trkpt lat="45.00373" lon="3.86258">
        <ele>872.893</ele>
        <time>2011-05-30T07:50:14Z</time>
      </trkpt>
      <trkpt lat="45.0037" lon="3.86257">
        <ele>873.248</ele>
        <time>2011-05-30T07:50:24Z</time>
      </trkpt>
      <trkpt lat="45.0037" lon="3.86257">
        <ele>873.391</ele>
        <time>2011-05-30T07:50:34Z</time>
      </trkpt>
      <trkpt lat="45.00362" lon="3.86249">
        <ele>873.552</ele>
        <time>2011-05-30T07:50:44Z</time>
      </trkpt>
      <trkpt lat="45.00353" lon="3.86239">
        <ele>873.716</ele>
        <time>2011-05-30T07:50:54Z</time>
      </trkpt>
      <trkpt lat="45.00344" lon="3.86229">
        <ele>874.074</ele>
        <time>2011-05-30T07:51:04Z</time>
      </trkpt>
      <trkpt lat="45.00333" lon="3.86219">
        <ele>873.766</ele>
        <time>2011-05-30T07:51:14Z</time>
      </trkpt>
      <trkpt lat="45.00323" lon="3.86211">
        <ele>874.6</ele>
        <time>2011-05-30T07:51:24Z</time>
      </trkpt>
      <trkpt lat="45.00313" lon="3.86203">
        <ele>874.865</ele>
        <time>2011-05-30T07:51:34Z</time>
      </trkpt>
      <trkpt lat="45.00302" lon="3.86191">
        <ele>874.861</ele>
        <time>2011-05-30T07:51:44Z</time>
      </trkpt>
      <trkpt lat="45.0029" lon="3.86183">
        <ele>875.484</ele>
        <time>2011-05-30T07:51:54Z</time>
      </trkpt>
      <trkpt lat="45.00281" lon="3.86174">
        <ele>875.504</ele>
        <time>2011-05-30T07:52:04Z</time>
      </trkpt>
      <trkpt lat="45.0027" lon="3.86164">
        <ele>875.971</ele>
        <time>2011-05-30T07:52:14Z</time>
      </trkpt>
      <trkpt lat="45.00258" lon="3.86153">
        <ele>876.488</ele>
        <time>2011-05-30T07:52:24Z</time>
      </trkpt>
      <trkpt lat="45.00248" lon="3.86142">
        <ele>876.88</ele>
        <time>2011-05-30T07:52:34Z</time>
      </trkpt>
      <trkpt lat="45.00238" lon="3.86131">
        <ele>875.948</ele>
        <time>2011-05-30T07:52:44Z</time>
      </trkpt>
      <trkpt lat="45.00228" lon="3.86119">
        <ele>876.672</ele>
        <time>2011-05-30T07:52:54Z</time>
      </trkpt>
      <trkpt lat="45.00218" lon="3.86107">
        <ele>876.156</ele>
        <time>2011-05-30T07:53:04Z</time>
      </trkpt>
      <trkpt lat="45.00208" lon="3.86096">
        <ele>876.152</ele>
        <time>2011-05-30T07:53:14Z</time>
      </trkpt>
      <trkpt lat="45.00199" lon="3.86083">
        <ele>875.406</ele>
        <time>2011-05-30T07:53:24Z</time>
      </trkpt>
      <trkpt lat="45.00188" lon="3.86072">
        <ele>874.237</ele>
        <time>2011-05-30T07:53:34Z</time>
      </trkpt>
      <trkpt lat="45.00178" lon="3.8606">
        <ele>874.367</ele>
        <time>2011-05-30T07:53:44Z</time>
      </trkpt>
      <trkpt lat="45.00169" lon="3.86047">
        <ele>874.564</ele>
        <time>2011-05-30T07:53:54Z</time>
      </trkpt>
      <trkpt lat="45.00159" lon="3.86034">
        <ele>874.056</ele>
        <time>2011-05-30T07:54:04Z</time>
      </trkpt>
      <trkpt lat="45.00151" lon="3.86021">
        <ele>872.81</ele>
        <time>2011-05-30T07:54:14Z</time>
      </trkpt>
      <trkpt lat="45.00142" lon="3.86008">
        <ele>872.516</ele>
        <time>2011-05-30T07:54:24Z</time>
      </trkpt>
      <trkpt lat="45.00134" lon="3.85995">
        <ele>870.722</ele>
        <time>2011-05-30T07:54:34Z</time>
      </trkpt>
      <trkpt lat="45.00125" lon="3.85982">
        <ele>869.942</ele>
        <time>2011-05-30T07:54:44Z</time>
      </trkpt>
      <trkpt lat="45.00116" lon="3.85969">
        <ele>869.052</ele>
        <time>2011-05-30T07:54:54Z</time>
      </trkpt>
      <trkpt lat="45.00106" lon="3.85958">
        <ele>868.922</ele>
        <time>2011-05-30T07:55:04Z</time>
      </trkpt>
      <trkpt lat="45.00095" lon="3.85948">
        <ele>867.867</ele>
        <time>2011-05-30T07:55:14Z</time>
      </trkpt>
      <trkpt lat="45.00085" lon="3.85939">
        <ele>867.5</ele>
        <time>2011-05-30T07:55:24Z</time>
      </trkpt>
      <trkpt lat="45.00075" lon="3.85929">
        <ele>867.087</ele>
        <time>2011-05-30T07:55:34Z</time>
      </trkpt>
      <trkpt lat="45.00065" lon="3.8592">
        <ele>866.727</ele>
        <time>2011-05-30T07:55:44Z</time>
      </trkpt>
      <trkpt lat="45.00054" lon="3.8591">
        <ele>865.795</ele>
        <time>2011-05-30T07:55:54Z</time>
      </trkpt>
      <trkpt lat="45.00044" lon="3.85901">
        <ele>864.915</ele>
        <time>2011-05-30T07:56:04Z</time>
      </trkpt>
      <trkpt lat="45.00034" lon="3.85889">
        <ele>865.499</ele>
        <time>2011-05-30T07:56:14Z</time>
      </trkpt>
      <trkpt lat="45.00024" lon="3.85877">
        <ele>866.099</ele>
        <time>2011-05-30T07:56:24Z</time>
      </trkpt>
      <trkpt lat="45.00017" lon="3.85863">
        <ele>865.413</ele>
        <time>2011-05-30T07:56:34Z</time>
      </trkpt>
      <trkpt lat="45.0001" lon="3.8585">
        <ele>865.457</ele>
        <time>2011-05-30T07:56:44Z</time>
      </trkpt>
      <trkpt lat="45.00009" lon="3.85847">
        <ele>864.929</ele>
        <time>2011-05-30T07:56:54Z</time>
      </trkpt>
      <trkpt lat="45.00009" lon="3.85847">
        <ele>864.942</ele>
        <time>2011-05-30T07:57:04Z</time>
      </trkpt>
      <trkpt lat="45.00009" lon="3.85847">
        <ele>864.924</ele>
        <time>2011-05-30T07:57:14Z</time>
      </trkpt>
      <trkpt lat="45.00009" lon="3.85847">
        <ele>864.637</ele>
        <time>2011-05-30T07:57:24Z</time>
      </trkpt>
      <trkpt lat="45.00008" lon="3.85847">
        <ele>865.281</ele>
        <time>2011-05-30T07:57:34Z</time>
      </trkpt>
      <trkpt lat="45.00008" lon="3.85846">
        <ele>865.118</ele>
        <time>2011-05-30T07:57:44Z</time>
      </trkpt>
      <trkpt lat="45.00008" lon="3.85847">
        <ele>864.818</ele>
        <time>2011-05-30T07:57:54Z</time>
      </trkpt>
      <trkpt lat="45.00008" lon="3.85847">
        <ele>865.348</ele>
        <time>2011-05-30T07:58:04Z</time>
      </trkpt>
      <trkpt lat="45.00008" lon="3.85847">
        <ele>864.745</ele>
        <time>2011-05-30T07:58:14Z</time>
      </trkpt>
      <trkpt lat="45.00008" lon="3.85847">
        <ele>864.884</ele>
        <time>2011-05-30T07:58:24Z</time>
      </trkpt>
      <trkpt lat="45.00008" lon="3.85847">
        <ele>864.815</ele>
        <time>2011-05-30T07:58:34Z</time>
      </trkpt>
      <trkpt lat="45.00008" lon="3.85847">
        <ele>865.102</ele>
        <time>2011-05-30T07:58:44Z</time>
      </trkpt>
      <trkpt lat="45.00008" lon="3.85847">
        <ele>865.04</ele>
        <time>2011-05-30T07:58:54Z</time>
      </trkpt>
      <trkpt lat="45.00008" lon="3.85847">
        <ele>865.239</ele>
        <time>2011-05-30T07:59:04Z</time>
      </trkpt>
      <trkpt lat="45.00008" lon="3.85847">
        <ele>865.504</ele>
        <time>2011-05-30T07:59:14Z</time>
      </trkpt>
      <trkpt lat="45.00008" lon="3.85846">
        <ele>865.34</ele>
        <time>2011-05-30T07:59:24Z</time>
      </trkpt>
      <trkpt lat="45.00008" lon="3.85845">
        <ele>864.641</ele>
        <time>2011-05-30T07:59:34Z</time>
      </trkpt>
      <trkpt lat="45.00008" lon="3.85845">
        <ele>865.328</ele>
        <time>2011-05-30T07:59:44Z</time>
      </trkpt>
      <trkpt lat="45.00008" lon="3.85845">
        <ele>865.163</ele>
        <time>2011-05-30T07:59:54Z</time>
      </trkpt>
      <trkpt lat="45.00008" lon="3.85845">
        <ele>864.972</ele>
        <time>2011-05-30T08:00:04Z</time>
      </trkpt>
      <trkpt lat="45.00008" lon="3.85845">
        <ele>864.792</ele>
        <time>2011-05-30T08:00:14Z</time>
      </trkpt>
      <trkpt lat="45.00008" lon="3.85845">
        <ele>865.191</ele>
        <time>2011-05-30T08:00:24Z</time>
      </trkpt>
      <trkpt lat="45.00008" lon="3.85845">
        <ele>864.978</ele>
        <time>2011-05-30T08:00:34Z</time>
      </trkpt>
      <trkpt lat="45.00008" lon="3.85845">
        <ele>865.025</ele>
        <time>2011-05-30T08:00:44Z</time>
      </trkpt>
      <trkpt lat="45.00008" lon="3.85845">
        <ele>865.201</ele>
        <time>2011-05-30T08:00:54Z</time>
      </trkpt>
      <trkpt lat="45.00008" lon="3.85845">
        <ele>865.231</ele>
        <time>2011-05-30T08:01:04Z</time>
      </trkpt>
      <trkpt lat="45.00008" lon="3.85844">
        <ele>864.784</ele>
        <time>2011-05-30T08:01:14Z</time>
      </trkpt>
      <trkpt lat="45.00006" lon="3.85841">
        <ele>864.871</ele>
        <time>2011-05-30T08:01:24Z</time>
      </trkpt>
      <trkpt lat="45.00004" lon="3.85835">
        <ele>864.74</ele>
        <time>2011-05-30T08:01:34Z</time>
      </trkpt>
      <trkpt lat="45.00004" lon="3.85835">
        <ele>865.16</ele>
        <time>2011-05-30T08:01:44Z</time>
      </trkpt>
      <trkpt lat="45.00004" lon="3.85835">
        <ele>864.957</ele>
        <time>2011-05-30T08:01:54Z</time>
      </trkpt>
      <trkpt lat="44.99999" lon="3.85823">
        <ele>864.711</ele>
        <time>2011-05-30T08:02:04Z</time>
      </trkpt>
      <trkpt lat="44.99995" lon="3.85809">
        <ele>864.396</ele>
        <time>2011-05-30T08:02:14Z</time>
      </trkpt>
      <trkpt lat="44.99989" lon="3.85795">
        <ele>863.895</ele>
        <time>2011-05-30T08:02:24Z</time>
      </trkpt>
      <trkpt lat="44.99982" lon="3.85786">
        <ele>863.522</ele>
        <time>2011-05-30T08:02:34Z</time>
      </trkpt>
      <trkpt lat="44.99972" lon="3.85781">
        <ele>862.984</ele>
        <time>2011-05-30T08:02:44Z</time>
      </trkpt>
      <trkpt lat="44.99962" lon="3.8578">
        <ele>862.767</ele>
        <time>2011-05-30T08:02:54Z</time>
      </trkpt>
      <trkpt lat="44.9995" lon="3.85779">
        <ele>862.199</ele>
        <time>2011-05-30T08:03:04Z</time>
      </trkpt>
      <trkpt lat="44.99939" lon="3.85779">
        <ele>862.939</ele>
        <time>2011-05-30T08:03:14Z</time>
      </trkpt>
      <trkpt lat="44.99928" lon="3.85778">
        <ele>864</ele>
        <time>2011-05-30T08:03:24Z</time>
      </trkpt>
      <trkpt lat="44.99916" lon="3.85776">
        <ele>864.137</ele>
        <time>2011-05-30T08:03:34Z</time>
      </trkpt>
      <trkpt lat="44.99904" lon="3.85774">
        <ele>866.121</ele>
        <time>2011-05-30T08:03:44Z</time>
      </trkpt>
      <trkpt lat="44.99893" lon="3.85771">
        <ele>866.188</ele>
        <time>2011-05-30T08:03:54Z</time>
      </trkpt>
      <trkpt lat="44.99881" lon="3.85768">
        <ele>867.302</ele>
        <time>2011-05-30T08:04:04Z</time>
      </trkpt>
      <trkpt lat="44.99869" lon="3.85765">
        <ele>868.109</ele>
        <time>2011-05-30T08:04:14Z</time>
      </trkpt>
      <trkpt lat="44.99858" lon="3.85764">
        <ele>868.716</ele>
        <time>2011-05-30T08:04:24Z</time>
      </trkpt>
      <trkpt lat="44.99847" lon="3.85761">
        <ele>868.55</ele>
        <time>2011-05-30T08:04:34Z</time>
      </trkpt>
      <trkpt lat="44.99835" lon="3.85759">
        <ele>868.63</ele>
        <time>2011-05-30T08:04:44Z</time>
      </trkpt>
      <trkpt lat="44.99822" lon="3.85756">
        <ele>870.735</ele>
        <time>2011-05-30T08:04:54Z</time>
      </trkpt>
      <trkpt lat="44.99811" lon="3.85753">
        <ele>871.103</ele>
        <time>2011-05-30T08:05:04Z</time>
      </trkpt>
      <trkpt lat="44.99801" lon="3.85748">
        <ele>870.585</ele>
        <time>2011-05-30T08:05:14Z</time>
      </trkpt>
      <trkpt lat="44.9979" lon="3.85744">
        <ele>871.626</ele>
        <time>2011-05-30T08:05:24Z</time>
      </trkpt>
      <trkpt lat="44.99779" lon="3.85738">
        <ele>872.534</ele>
        <time>2011-05-30T08:05:34Z</time>
      </trkpt>
      <trkpt lat="44.99766" lon="3.85735">
        <ele>873.015</ele>
        <time>2011-05-30T08:05:44Z</time>
      </trkpt>
      <trkpt lat="44.99753" lon="3.85733">
        <ele>873.655</ele>
        <time>2011-05-30T08:05:54Z</time>
      </trkpt>
      <trkpt lat="44.99741" lon="3.85731">
        <ele>874.258</ele>
        <time>2011-05-30T08:06:04Z</time>
      </trkpt>
      <trkpt lat="44.99729" lon="3.8573">
        <ele>875.156</ele>
        <time>2011-05-30T08:06:14Z</time>
      </trkpt>
      <trkpt lat="44.99716" lon="3.8573">
        <ele>874.84</ele>
        <time>2011-05-30T08:06:24Z</time>
      </trkpt>
      <trkpt lat="44.99704" lon="3.85732">
        <ele>875.832</ele>
        <time>2011-05-30T08:06:34Z</time>
      </trkpt>
      <trkpt lat="44.99693" lon="3.85733">
        <ele>877.045</ele>
        <time>2011-05-30T08:06:44Z</time>
      </trkpt>
      <trkpt lat="44.99681" lon="3.85732">
        <ele>877.868</ele>
        <time>2011-05-30T08:06:54Z</time>
      </trkpt>
      <trkpt lat="44.99668" lon="3.8573">
        <ele>879.18</ele>
        <time>2011-05-30T08:07:04Z</time>
      </trkpt>
      <trkpt lat="44.99655" lon="3.85728">
        <ele>879.459</ele>
        <time>2011-05-30T08:07:14Z</time>
      </trkpt>
      <trkpt lat="44.99644" lon="3.85727">
        <ele>880.039</ele>
        <time>2011-05-30T08:07:24Z</time>
      </trkpt>
      <trkpt lat="44.99633" lon="3.85725">
        <ele>881.461</ele>
        <time>2011-05-30T08:07:34Z</time>
      </trkpt>
      <trkpt lat="44.99621" lon="3.85723">
        <ele>881.19</ele>
        <time>2011-05-30T08:07:44Z</time>
      </trkpt>
      <trkpt lat="44.99611" lon="3.85722">
        <ele>881.749</ele>
        <time>2011-05-30T08:07:54Z</time>
      </trkpt>
      <trkpt lat="44.99599" lon="3.85721">
        <ele>882.143</ele>
        <time>2011-05-30T08:08:04Z</time>
      </trkpt>
      <trkpt lat="44.99587" lon="3.85719">
        <ele>882.911</ele>
        <time>2011-05-30T08:08:14Z</time>
      </trkpt>
      <trkpt lat="44.99575" lon="3.85716">
        <ele>883.766</ele>
        <time>2011-05-30T08:08:24Z</time>
      </trkpt>
      <trkpt lat="44.99563" lon="3.85711">
        <ele>884.384</ele>
        <time>2011-05-30T08:08:34Z</time>
      </trkpt>
      <trkpt lat="44.99551" lon="3.85706">
        <ele>885.389</ele>
        <time>2011-05-30T08:08:44Z</time>
      </trkpt>
      <trkpt lat="44.99539" lon="3.85701">
        <ele>885.998</ele>
        <time>2011-05-30T08:08:54Z</time>
      </trkpt>
      <trkpt lat="44.99526" lon="3.85697">
        <ele>886.508</ele>
        <time>2011-05-30T08:09:04Z</time>
      </trkpt>
      <trkpt lat="44.99514" lon="3.85694">
        <ele>887.783</ele>
        <time>2011-05-30T08:09:14Z</time>
      </trkpt>
      <trkpt lat="44.99503" lon="3.85687">
        <ele>888.585</ele>
        <time>2011-05-30T08:09:24Z</time>
      </trkpt>
      <trkpt lat="44.99491" lon="3.85682">
        <ele>889.642</ele>
        <time>2011-05-30T08:09:34Z</time>
      </trkpt>
      <trkpt lat="44.9948" lon="3.85674">
        <ele>890.58</ele>
        <time>2011-05-30T08:09:44Z</time>
      </trkpt>
      <trkpt lat="44.99469" lon="3.85667">
        <ele>891.375</ele>
        <time>2011-05-30T08:09:54Z</time>
      </trkpt>
      <trkpt lat="44.99458" lon="3.85661">
        <ele>892.088</ele>
        <time>2011-05-30T08:10:04Z</time>
      </trkpt>
      <trkpt lat="44.99449" lon="3.85653">
        <ele>893.481</ele>
        <time>2011-05-30T08:10:14Z</time>
      </trkpt>
      <trkpt lat="44.99439" lon="3.85647">
        <ele>895.136</ele>
        <time>2011-05-30T08:10:24Z</time>
      </trkpt>
      <trkpt lat="44.99429" lon="3.85641">
        <ele>895.719</ele>
        <time>2011-05-30T08:10:34Z</time>
      </trkpt>
      <trkpt lat="44.99419" lon="3.85639">
        <ele>897.331</ele>
        <time>2011-05-30T08:10:44Z</time>
      </trkpt>
      <trkpt lat="44.99409" lon="3.85639">
        <ele>898.841</ele>
        <time>2011-05-30T08:10:54Z</time>
      </trkpt>
      <trkpt lat="44.99399" lon="3.85641">
        <ele>899.87</ele>
        <time>2011-05-30T08:11:04Z</time>
      </trkpt>
      <trkpt lat="44.99387" lon="3.85642">
        <ele>900.25</ele>
        <time>2011-05-30T08:11:14Z</time>
      </trkpt>
      <trkpt lat="44.99375" lon="3.85645">
        <ele>901.59</ele>
        <time>2011-05-30T08:11:24Z</time>
      </trkpt>
      <trkpt lat="44.99364" lon="3.85645">
        <ele>901.807</ele>
        <time>2011-05-30T08:11:34Z</time>
      </trkpt>
      <trkpt lat="44.99351" lon="3.85648">
        <ele>902.414</ele>
        <time>2011-05-30T08:11:44Z</time>
      </trkpt>
      <trkpt lat="44.99338" lon="3.85649">
        <ele>903.154</ele>
        <time>2011-05-30T08:11:54Z</time>
      </trkpt>
      <trkpt lat="44.99328" lon="3.85651">
        <ele>904.586</ele>
        <time>2011-05-30T08:12:04Z</time>
      </trkpt>
      <trkpt lat="44.99316" lon="3.85651">
        <ele>904.906</ele>
        <time>2011-05-30T08:12:14Z</time>
      </trkpt>
      <trkpt lat="44.99305" lon="3.85649">
        <ele>905.635</ele>
        <time>2011-05-30T08:12:24Z</time>
      </trkpt>
      <trkpt lat="44.99293" lon="3.85649">
        <ele>906.271</ele>
        <time>2011-05-30T08:12:34Z</time>
      </trkpt>
      <trkpt lat="44.99281" lon="3.85648">
        <ele>906.571</ele>
        <time>2011-05-30T08:12:44Z</time>
      </trkpt>
      <trkpt lat="44.99269" lon="3.85647">
        <ele>907.358</ele>
        <time>2011-05-30T08:12:54Z</time>
      </trkpt>
      <trkpt lat="44.99256" lon="3.85645">
        <ele>907.192</ele>
        <time>2011-05-30T08:13:04Z</time>
      </trkpt>
      <trkpt lat="44.99243" lon="3.85644">
        <ele>907.638</ele>
        <time>2011-05-30T08:13:14Z</time>
      </trkpt>
      <trkpt lat="44.99231" lon="3.85643">
        <ele>907.586</ele>
        <time>2011-05-30T08:13:24Z</time>
      </trkpt>
      <trkpt lat="44.99219" lon="3.8564">
        <ele>907.981</ele>
        <time>2011-05-30T08:13:34Z</time>
      </trkpt>
      <trkpt lat="44.99207" lon="3.85637">
        <ele>907.65</ele>
        <time>2011-05-30T08:13:44Z</time>
      </trkpt>
      <trkpt lat="44.99195" lon="3.85634">
        <ele>908.049</ele>
        <time>2011-05-30T08:13:54Z</time>
      </trkpt>
      <trkpt lat="44.99183" lon="3.85631">
        <ele>908.161</ele>
        <time>2011-05-30T08:14:04Z</time>
      </trkpt>
      <trkpt lat="44.99172" lon="3.85629">
        <ele>908.918</ele>
        <time>2011-05-30T08:14:14Z</time>
      </trkpt>
      <trkpt lat="44.99158" lon="3.85625">
        <ele>909.063</ele>
        <time>2011-05-30T08:14:24Z</time>
      </trkpt>
      <trkpt lat="44.99146" lon="3.85624">
        <ele>909.173</ele>
        <time>2011-05-30T08:14:34Z</time>
      </trkpt>
      <trkpt lat="44.99132" lon="3.85622">
        <ele>908.954</ele>
        <time>2011-05-30T08:14:44Z</time>
      </trkpt>
      <trkpt lat="44.99119" lon="3.8562">
        <ele>909.19</ele>
        <time>2011-05-30T08:14:54Z</time>
      </trkpt>
      <trkpt lat="44.99106" lon="3.85619">
        <ele>908.632</ele>
        <time>2011-05-30T08:15:04Z</time>
      </trkpt>
      <trkpt lat="44.99095" lon="3.85621">
        <ele>909.098</ele>
        <time>2011-05-30T08:15:14Z</time>
      </trkpt>
      <trkpt lat="44.99082" lon="3.85625">
        <ele>909.052</ele>
        <time>2011-05-30T08:15:24Z</time>
      </trkpt>
      <trkpt lat="44.9907" lon="3.85626">
        <ele>910.043</ele>
        <time>2011-05-30T08:15:34Z</time>
      </trkpt>
      <trkpt lat="44.99058" lon="3.85626">
        <ele>909.866</ele>
        <time>2011-05-30T08:15:44Z</time>
      </trkpt>
      <trkpt lat="44.99046" lon="3.85626">
        <ele>910.231</ele>
        <time>2011-05-30T08:15:54Z</time>
      </trkpt>
      <trkpt lat="44.99033" lon="3.85626">
        <ele>910.924</ele>
        <time>2011-05-30T08:16:04Z</time>
      </trkpt>
      <trkpt lat="44.99021" lon="3.85625">
        <ele>911.839</ele>
        <time>2011-05-30T08:16:14Z</time>
      </trkpt>
      <trkpt lat="44.9901" lon="3.85623">
        <ele>912.872</ele>
        <time>2011-05-30T08:16:24Z</time>
      </trkpt>
      <trkpt lat="44.98999" lon="3.85622">
        <ele>914.139</ele>
        <time>2011-05-30T08:16:34Z</time>
      </trkpt>
      <trkpt lat="44.98987" lon="3.85621">
        <ele>915.618</ele>
        <time>2011-05-30T08:16:44Z</time>
      </trkpt>
      <trkpt lat="44.98975" lon="3.85623">
        <ele>915.893</ele>
        <time>2011-05-30T08:16:54Z</time>
      </trkpt>
      <trkpt lat="44.98963" lon="3.85624">
        <ele>916.756</ele>
        <time>2011-05-30T08:17:04Z</time>
      </trkpt>
      <trkpt lat="44.98951" lon="3.85626">
        <ele>917.125</ele>
        <time>2011-05-30T08:17:14Z</time>
      </trkpt>
      <trkpt lat="44.98939" lon="3.85627">
        <ele>917.74</ele>
        <time>2011-05-30T08:17:24Z</time>
      </trkpt>
      <trkpt lat="44.98927" lon="3.85628">
        <ele>918.611</ele>
        <time>2011-05-30T08:17:34Z</time>
      </trkpt>
      <trkpt lat="44.98915" lon="3.85628">
        <ele>919.174</ele>
        <time>2011-05-30T08:17:44Z</time>
      </trkpt>
      <trkpt lat="44.98902" lon="3.85629">
        <ele>920.3</ele>
        <time>2011-05-30T08:17:54Z</time>
      </trkpt>
      <trkpt lat="44.98893" lon="3.85628">
        <ele>921.326</ele>
        <time>2011-05-30T08:18:04Z</time>
      </trkpt>
      <trkpt lat="44.9888" lon="3.85633">
        <ele>922.505</ele>
        <time>2011-05-30T08:18:14Z</time>
      </trkpt>
      <trkpt lat="44.98868" lon="3.85632">
        <ele>923.655</ele>
        <time>2011-05-30T08:18:24Z</time>
      </trkpt>
      <trkpt lat="44.98857" lon="3.85631">
        <ele>924.538</ele>
        <time>2011-05-30T08:18:34Z</time>
      </trkpt>
      <trkpt lat="44.98847" lon="3.85631">
        <ele>925.272</ele>
        <time>2011-05-30T08:18:44Z</time>
      </trkpt>
      <trkpt lat="44.98836" lon="3.8563">
        <ele>926.051</ele>
        <time>2011-05-30T08:18:54Z</time>
      </trkpt>
      <trkpt lat="44.98825" lon="3.85628">
        <ele>927.063</ele>
        <time>2011-05-30T08:19:04Z</time>
      </trkpt>
      <trkpt lat="44.98813" lon="3.85626">
        <ele>928.232</ele>
        <time>2011-05-30T08:19:14Z</time>
      </trkpt>
      <trkpt lat="44.98802" lon="3.85621">
        <ele>928.98</ele>
        <time>2011-05-30T08:19:24Z</time>
      </trkpt>
      <trkpt lat="44.98791" lon="3.85617">
        <ele>930.061</ele>
        <time>2011-05-30T08:19:34Z</time>
      </trkpt>
      <trkpt lat="44.98781" lon="3.85613">
        <ele>931.278</ele>
        <time>2011-05-30T08:19:44Z</time>
      </trkpt>
      <trkpt lat="44.98771" lon="3.85609">
        <ele>932.67</ele>
        <time>2011-05-30T08:19:54Z</time>
      </trkpt>
      <trkpt lat="44.98761" lon="3.85606">
        <ele>933.459</ele>
        <time>2011-05-30T08:20:04Z</time>
      </trkpt>
      <trkpt lat="44.98751" lon="3.85602">
        <ele>934.55</ele>
        <time>2011-05-30T08:20:14Z</time>
      </trkpt>
      <trkpt lat="44.9874" lon="3.85599">
        <ele>935.47</ele>
        <time>2011-05-30T08:20:24Z</time>
      </trkpt>
      <trkpt lat="44.98732" lon="3.85596">
        <ele>936.462</ele>
        <time>2011-05-30T08:20:34Z</time>
      </trkpt>
      <trkpt lat="44.98722" lon="3.85592">
        <ele>936.317</ele>
        <time>2011-05-30T08:20:44Z</time>
      </trkpt>
      <trkpt lat="44.9871" lon="3.85589">
        <ele>937.568</ele>
        <time>2011-05-30T08:20:54Z</time>
      </trkpt>
      <trkpt lat="44.98697" lon="3.85585">
        <ele>938.523</ele>
        <time>2011-05-30T08:21:04Z</time>
      </trkpt>
      <trkpt lat="44.98686" lon="3.85583">
        <ele>939.051</ele>
        <time>2011-05-30T08:21:14Z</time>
      </trkpt>
      <trkpt lat="44.98676" lon="3.85579">
        <ele>939.178</ele>
        <time>2011-05-30T08:21:24Z</time>
      </trkpt>
      <trkpt lat="44.98665" lon="3.85574">
        <ele>940.359</ele>
        <time>2011-05-30T08:21:34Z</time>
      </trkpt>
      <trkpt lat="44.98654" lon="3.8557">
        <ele>941.401</ele>
        <time>2011-05-30T08:21:44Z</time>
      </trkpt>
      <trkpt lat="44.98643" lon="3.85568">
        <ele>941.392</ele>
        <time>2011-05-30T08:21:54Z</time>
      </trkpt>
      <trkpt lat="44.98633" lon="3.8556">
        <ele>941.537</ele>
        <time>2011-05-30T08:22:04Z</time>
      </trkpt>
      <trkpt lat="44.98622" lon="3.85556">
        <ele>942.58</ele>
        <time>2011-05-30T08:22:14Z</time>
      </trkpt>
      <trkpt lat="44.98611" lon="3.85548">
        <ele>943.706</ele>
        <time>2011-05-30T08:22:24Z</time>
      </trkpt>
      <trkpt lat="44.986" lon="3.85544">
        <ele>944.547</ele>
        <time>2011-05-30T08:22:34Z</time>
      </trkpt>
      <trkpt lat="44.98588" lon="3.85543">
        <ele>945.557</ele>
        <time>2011-05-30T08:22:44Z</time>
      </trkpt>
      <trkpt lat="44.98577" lon="3.85542">
        <ele>946.449</ele>
        <time>2011-05-30T08:22:54Z</time>
      </trkpt>
      <trkpt lat="44.98565" lon="3.85538">
        <ele>947.232</ele>
        <time>2011-05-30T08:23:04Z</time>
      </trkpt>
      <trkpt lat="44.98553" lon="3.85535">
        <ele>948.111</ele>
        <time>2011-05-30T08:23:14Z</time>
      </trkpt>
      <trkpt lat="44.98543" lon="3.85531">
        <ele>947.309</ele>
        <time>2011-05-30T08:23:24Z</time>
      </trkpt>
      <trkpt lat="44.98533" lon="3.85526">
        <ele>948.554</ele>
        <time>2011-05-30T08:23:34Z</time>
      </trkpt>
      <trkpt lat="44.98532" lon="3.85522">
        <ele>949.764</ele>
        <time>2011-05-30T08:23:44Z</time>
      </trkpt>
      <trkpt lat="44.98532" lon="3.85521">
        <ele>949.74</ele>
        <time>2011-05-30T08:23:54Z</time>
      </trkpt>
      <trkpt lat="44.98532" lon="3.85521">
        <ele>949.763</ele>
        <time>2011-05-30T08:24:04Z</time>
      </trkpt>
      <trkpt lat="44.98532" lon="3.85521">
        <ele>949.857</ele>
        <time>2011-05-30T08:24:14Z</time>
      </trkpt>
      <trkpt lat="44.98532" lon="3.85521">
        <ele>949.099</ele>
        <time>2011-05-30T08:24:24Z</time>
      </trkpt>
      <trkpt lat="44.98532" lon="3.85521">
        <ele>949.294</ele>
        <time>2011-05-30T08:24:34Z</time>
      </trkpt>
      <trkpt lat="44.98532" lon="3.85521">
        <ele>949.562</ele>
        <time>2011-05-30T08:24:44Z</time>
      </trkpt>
      <trkpt lat="44.9853" lon="3.85521">
        <ele>950.037</ele>
        <time>2011-05-30T08:24:54Z</time>
      </trkpt>
      <trkpt lat="44.9852" lon="3.85521">
        <ele>949.159</ele>
        <time>2011-05-30T08:25:04Z</time>
      </trkpt>
      <trkpt lat="44.98509" lon="3.8552">
        <ele>950.448</ele>
        <time>2011-05-30T08:25:14Z</time>
      </trkpt>
      <trkpt lat="44.98498" lon="3.85519">
        <ele>952.49</ele>
        <time>2011-05-30T08:25:24Z</time>
      </trkpt>
      <trkpt lat="44.98487" lon="3.8552">
        <ele>952.458</ele>
        <time>2011-05-30T08:25:34Z</time>
      </trkpt>
      <trkpt lat="44.98476" lon="3.85521">
        <ele>953.346</ele>
        <time>2011-05-30T08:25:44Z</time>
      </trkpt>
      <trkpt lat="44.98464" lon="3.85522">
        <ele>954.801</ele>
        <time>2011-05-30T08:25:54Z</time>
      </trkpt>
      <trkpt lat="44.98453" lon="3.85524">
        <ele>955.98</ele>
        <time>2011-05-30T08:26:04Z</time>
      </trkpt>
      <trkpt lat="44.98444" lon="3.85526">
        <ele>956.826</ele>
        <time>2011-05-30T08:26:14Z</time>
      </trkpt>
      <trkpt lat="44.98433" lon="3.85529">
        <ele>958.217</ele>
        <time>2011-05-30T08:26:24Z</time>
      </trkpt>
      <trkpt lat="44.98424" lon="3.85531">
        <ele>959.543</ele>
        <time>2011-05-30T08:26:34Z</time>
      </trkpt>
      <trkpt lat="44.98414" lon="3.85534">
        <ele>960.464</ele>
        <time>2011-05-30T08:26:44Z</time>
      </trkpt>
      <trkpt lat="44.98405" lon="3.85537">
        <ele>961.284</ele>
        <time>2011-05-30T08:26:54Z</time>
      </trkpt>
      <trkpt lat="44.98395" lon="3.85544">
        <ele>962.389</ele>
        <time>2011-05-30T08:27:04Z</time>
      </trkpt>
      <trkpt lat="44.98385" lon="3.85549">
        <ele>964.19</ele>
        <time>2011-05-30T08:27:14Z</time>
      </trkpt>
      <trkpt lat="44.98374" lon="3.85553">
        <ele>964.909</ele>
        <time>2011-05-30T08:27:24Z</time>
      </trkpt>
      <trkpt lat="44.98364" lon="3.85557">
        <ele>966.255</ele>
        <time>2011-05-30T08:27:34Z</time>
      </trkpt>
      <trkpt lat="44.98354" lon="3.85562">
        <ele>967.15</ele>
        <time>2011-05-30T08:27:44Z</time>
      </trkpt>
      <trkpt lat="44.98345" lon="3.85566">
        <ele>968.067</ele>
        <time>2011-05-30T08:27:54Z</time>
      </trkpt>
      <trkpt lat="44.98336" lon="3.85573">
        <ele>969.687</ele>
        <time>2011-05-30T08:28:04Z</time>
      </trkpt>
      <trkpt lat="44.98326" lon="3.85579">
        <ele>970.65</ele>
        <time>2011-05-30T08:28:14Z</time>
      </trkpt>
      <trkpt lat="44.98316" lon="3.85584">
        <ele>971.532</ele>
        <time>2011-05-30T08:28:24Z</time>
      </trkpt>
      <trkpt lat="44.98306" lon="3.8559">
        <ele>972.052</ele>
        <time>2011-05-30T08:28:34Z</time>
      </trkpt>
      <trkpt lat="44.98298" lon="3.85599">
        <ele>973.629</ele>
        <time>2011-05-30T08:28:44Z</time>
      </trkpt>
      <trkpt lat="44.98288" lon="3.85605">
        <ele>975.07</ele>
        <time>2011-05-30T08:28:54Z</time>
      </trkpt>
      <trkpt lat="44.9828" lon="3.85612">
        <ele>975.811</ele>
        <time>2011-05-30T08:29:04Z</time>
      </trkpt>
      <trkpt lat="44.98269" lon="3.85618">
        <ele>976.365</ele>
        <time>2011-05-30T08:29:14Z</time>
      </trkpt>
      <trkpt lat="44.98258" lon="3.85619">
        <ele>977.16</ele>
        <time>2011-05-30T08:29:24Z</time>
      </trkpt>
      <trkpt lat="44.98246" lon="3.85617">
        <ele>977.743</ele>
        <time>2011-05-30T08:29:34Z</time>
      </trkpt>
      <trkpt lat="44.98235" lon="3.85613">
        <ele>978.448</ele>
        <time>2011-05-30T08:29:44Z</time>
      </trkpt>
      <trkpt lat="44.98224" lon="3.8561">
        <ele>978.3</ele>
        <time>2011-05-30T08:29:54Z</time>
      </trkpt>
      <trkpt lat="44.98212" lon="3.85605">
        <ele>978.475</ele>
        <time>2011-05-30T08:30:04Z</time>
      </trkpt>
      <trkpt lat="44.982" lon="3.85601">
        <ele>977.233</ele>
        <time>2011-05-30T08:30:14Z</time>
      </trkpt>
      <trkpt lat="44.98188" lon="3.85598">
        <ele>978.014</ele>
        <time>2011-05-30T08:30:24Z</time>
      </trkpt>
      <trkpt lat="44.98175" lon="3.85595">
        <ele>977.999</ele>
        <time>2011-05-30T08:30:34Z</time>
      </trkpt>
      <trkpt lat="44.98163" lon="3.85594">
        <ele>978.097</ele>
        <time>2011-05-30T08:30:44Z</time>
      </trkpt>
      <trkpt lat="44.9815" lon="3.85592">
        <ele>978.715</ele>
        <time>2011-05-30T08:30:54Z</time>
      </trkpt>
      <trkpt lat="44.98137" lon="3.85592">
        <ele>979.374</ele>
        <time>2011-05-30T08:31:04Z</time>
      </trkpt>
      <trkpt lat="44.98125" lon="3.8559">
        <ele>978.428</ele>
        <time>2011-05-30T08:31:14Z</time>
      </trkpt>
      <trkpt lat="44.98112" lon="3.85589">
        <ele>979.089</ele>
        <time>2011-05-30T08:31:24Z</time>
      </trkpt>
      <trkpt lat="44.98101" lon="3.85588">
        <ele>980.408</ele>
        <time>2011-05-30T08:31:34Z</time>
      </trkpt>
      <trkpt lat="44.98088" lon="3.85587">
        <ele>980.727</ele>
        <time>2011-05-30T08:31:44Z</time>
      </trkpt>
      <trkpt lat="44.98076" lon="3.85585">
        <ele>981.201</ele>
        <time>2011-05-30T08:31:54Z</time>
      </trkpt>
      <trkpt lat="44.98064" lon="3.85584">
        <ele>981</ele>
        <time>2011-05-30T08:32:04Z</time>
      </trkpt>
      <trkpt lat="44.98052" lon="3.85581">
        <ele>981.251</ele>
        <time>2011-05-30T08:32:14Z</time>
      </trkpt>
      <trkpt lat="44.98041" lon="3.85579">
        <ele>982.035</ele>
        <time>2011-05-30T08:32:24Z</time>
      </trkpt>
      <trkpt lat="44.9803" lon="3.85575">
        <ele>981.199</ele>
        <time>2011-05-30T08:32:34Z</time>
      </trkpt>
      <trkpt lat="44.98019" lon="3.85571">
        <ele>981.444</ele>
        <time>2011-05-30T08:32:44Z</time>
      </trkpt>
      <trkpt lat="44.98007" lon="3.85568">
        <ele>982.3</ele>
        <time>2011-05-30T08:32:54Z</time>
      </trkpt>
      <trkpt lat="44.97995" lon="3.85565">
        <ele>981.84</ele>
        <time>2011-05-30T08:33:04Z</time>
      </trkpt>
      <trkpt lat="44.97984" lon="3.85561">
        <ele>982.091</ele>
        <time>2011-05-30T08:33:14Z</time>
      </trkpt>
      <trkpt lat="44.97972" lon="3.85559">
        <ele>982.62</ele>
        <time>2011-05-30T08:33:24Z</time>
      </trkpt>
      <trkpt lat="44.97961" lon="3.85557">
        <ele>982.435</ele>
        <time>2011-05-30T08:33:34Z</time>
      </trkpt>
      <trkpt lat="44.97948" lon="3.85554">
        <ele>982.362</ele>
        <time>2011-05-30T08:33:44Z</time>
      </trkpt>
      <trkpt lat="44.97936" lon="3.85551">
        <ele>982.466</ele>
        <time>2011-05-30T08:33:54Z</time>
      </trkpt>
      <trkpt lat="44.97923" lon="3.85549">
        <ele>981.829</ele>
        <time>2011-05-30T08:34:04Z</time>
      </trkpt>
      <trkpt lat="44.97912" lon="3.85542">
        <ele>981.779</ele>
        <time>2011-05-30T08:34:14Z</time>
      </trkpt>
      <trkpt lat="44.97901" lon="3.85538">
        <ele>982.634</ele>
        <time>2011-05-30T08:34:24Z</time>
      </trkpt>
      <trkpt lat="44.9789" lon="3.85529">
        <ele>982.393</ele>
        <time>2011-05-30T08:34:34Z</time>
      </trkpt>
      <trkpt lat="44.97878" lon="3.85524">
        <ele>981.84</ele>
        <time>2011-05-30T08:34:44Z</time>
      </trkpt>
      <trkpt lat="44.97868" lon="3.85513">
        <ele>982.143</ele>
        <time>2011-05-30T08:34:54Z</time>
      </trkpt>
      <trkpt lat="44.97857" lon="3.85506">
        <ele>983.256</ele>
        <time>2011-05-30T08:35:04Z</time>
      </trkpt>
      <trkpt lat="44.97848" lon="3.85497">
        <ele>983.9</ele>
        <time>2011-05-30T08:35:14Z</time>
      </trkpt>
      <trkpt lat="44.97837" lon="3.85488">
        <ele>983.006</ele>
        <time>2011-05-30T08:35:24Z</time>
      </trkpt>
      <trkpt lat="44.97827" lon="3.85477">
        <ele>982.742</ele>
        <time>2011-05-30T08:35:34Z</time>
      </trkpt>
      <trkpt lat="44.97818" lon="3.85467">
        <ele>982.046</ele>
        <time>2011-05-30T08:35:44Z</time>
      </trkpt>
      <trkpt lat="44.97808" lon="3.85459">
        <ele>981.47</ele>
        <time>2011-05-30T08:35:54Z</time>
      </trkpt>
      <trkpt lat="44.97799" lon="3.85449">
        <ele>980.391</ele>
        <time>2011-05-30T08:36:04Z</time>
      </trkpt>
      <trkpt lat="44.97795" lon="3.85439">
        <ele>979.826</ele>
        <time>2011-05-30T08:36:14Z</time>
      </trkpt>
      <trkpt lat="44.97796" lon="3.85438">
        <ele>980.201</ele>
        <time>2011-05-30T08:36:24Z</time>
      </trkpt>
      <trkpt lat="44.978" lon="3.85436">
        <ele>980.951</ele>
        <time>2011-05-30T08:36:34Z</time>
      </trkpt>
      <trkpt lat="44.97797" lon="3.8544">
        <ele>979.583</ele>
        <time>2011-05-30T08:36:44Z</time>
      </trkpt>
      <trkpt lat="44.97789" lon="3.85435">
        <ele>979.754</ele>
        <time>2011-05-30T08:36:54Z</time>
      </trkpt>
      <trkpt lat="44.9778" lon="3.85424">
        <ele>978.531</ele>
        <time>2011-05-30T08:37:04Z</time>
      </trkpt>
      <trkpt lat="44.97768" lon="3.85414">
        <ele>977.352</ele>
        <time>2011-05-30T08:37:14Z</time>
      </trkpt>
      <trkpt lat="44.97757" lon="3.85406">
        <ele>976.722</ele>
        <time>2011-05-30T08:37:24Z</time>
      </trkpt>
      <trkpt lat="44.97746" lon="3.85396">
        <ele>975.712</ele>
        <time>2011-05-30T08:37:34Z</time>
      </trkpt>
      <trkpt lat="44.97736" lon="3.85387">
        <ele>974.663</ele>
        <time>2011-05-30T08:37:44Z</time>
      </trkpt>
      <trkpt lat="44.9773" lon="3.85379">
        <ele>973.914</ele>
        <time>2011-05-30T08:37:54Z</time>
      </trkpt>
      <trkpt lat="44.97721" lon="3.85371">
        <ele>972.551</ele>
        <time>2011-05-30T08:38:04Z</time>
      </trkpt>
      <trkpt lat="44.97712" lon="3.85361">
        <ele>971.907</ele>
        <time>2011-05-30T08:38:14Z</time>
      </trkpt>
      <trkpt lat="44.97703" lon="3.8535">
        <ele>971.982</ele>
        <time>2011-05-30T08:38:24Z</time>
      </trkpt>
      <trkpt lat="44.97694" lon="3.85339">
        <ele>971.157</ele>
        <time>2011-05-30T08:38:34Z</time>
      </trkpt>
      <trkpt lat="44.97684" lon="3.85328">
        <ele>969.833</ele>
        <time>2011-05-30T08:38:44Z</time>
      </trkpt>
      <trkpt lat="44.97676" lon="3.85315">
        <ele>969.943</ele>
        <time>2011-05-30T08:38:54Z</time>
      </trkpt>
      <trkpt lat="44.97666" lon="3.85302">
        <ele>968.195</ele>
        <time>2011-05-30T08:39:04Z</time>
      </trkpt>
      <trkpt lat="44.97656" lon="3.85295">
        <ele>967.999</ele>
        <time>2011-05-30T08:39:14Z</time>
      </trkpt>
      <trkpt lat="44.97645" lon="3.85284">
        <ele>967.657</ele>
        <time>2011-05-30T08:39:24Z</time>
      </trkpt>
      <trkpt lat="44.97634" lon="3.85275">
        <ele>966.746</ele>
        <time>2011-05-30T08:39:34Z</time>
      </trkpt>
      <trkpt lat="44.97623" lon="3.85268">
        <ele>966.53</ele>
        <time>2011-05-30T08:39:44Z</time>
      </trkpt>
      <trkpt lat="44.97613" lon="3.85262">
        <ele>966.749</ele>
        <time>2011-05-30T08:39:54Z</time>
      </trkpt>
      <trkpt lat="44.97599" lon="3.85259">
        <ele>965.837</ele>
        <time>2011-05-30T08:40:04Z</time>
      </trkpt>
      <trkpt lat="44.97594" lon="3.85258">
        <ele>965.558</ele>
        <time>2011-05-30T08:40:14Z</time>
      </trkpt>
      <trkpt lat="44.97582" lon="3.85271">
        <ele>963.588</ele>
        <time>2011-05-30T08:40:24Z</time>
      </trkpt>
      <trkpt lat="44.97579" lon="3.85275">
        <ele>963.971</ele>
        <time>2011-05-30T08:40:34Z</time>
      </trkpt>
      <trkpt lat="44.97568" lon="3.85261">
        <ele>963.524</ele>
        <time>2011-05-30T08:40:44Z</time>
      </trkpt>
      <trkpt lat="44.97562" lon="3.85249">
        <ele>964.976</ele>
        <time>2011-05-30T08:40:54Z</time>
      </trkpt>
      <trkpt lat="44.97555" lon="3.8524">
        <ele>966.832</ele>
        <time>2011-05-30T08:41:04Z</time>
      </trkpt>
      <trkpt lat="44.97555" lon="3.85239">
        <ele>967.324</ele>
        <time>2011-05-30T08:41:14Z</time>
      </trkpt>
      <trkpt lat="44.97554" lon="3.85232">
        <ele>966.822</ele>
        <time>2011-05-30T08:41:24Z</time>
      </trkpt>
      <trkpt lat="44.97551" lon="3.85231">
        <ele>966.503</ele>
        <time>2011-05-30T08:41:34Z</time>
      </trkpt>
      <trkpt lat="44.97539" lon="3.85225">
        <ele>965.665</ele>
        <time>2011-05-30T08:41:44Z</time>
      </trkpt>
      <trkpt lat="44.9753" lon="3.85221">
        <ele>966.181</ele>
        <time>2011-05-30T08:41:54Z</time>
      </trkpt>
      <trkpt lat="44.97521" lon="3.85214">
        <ele>966.522</ele>
        <time>2011-05-30T08:42:04Z</time>
      </trkpt>
      <trkpt lat="44.97513" lon="3.85207">
        <ele>967.443</ele>
        <time>2011-05-30T08:42:14Z</time>
      </trkpt>
      <trkpt lat="44.97502" lon="3.85196">
        <ele>965.783</ele>
        <time>2011-05-30T08:42:24Z</time>
      </trkpt>
      <trkpt lat="44.97492" lon="3.85188">
        <ele>966.687</ele>
        <time>2011-05-30T08:42:34Z</time>
      </trkpt>
      <trkpt lat="44.97483" lon="3.85179">
        <ele>967.577</ele>
        <time>2011-05-30T08:42:44Z</time>
      </trkpt>
      <trkpt lat="44.97475" lon="3.85172">
        <ele>967.62</ele>
        <time>2011-05-30T08:42:54Z</time>
      </trkpt>
      <trkpt lat="44.97467" lon="3.85163">
        <ele>967.584</ele>
        <time>2011-05-30T08:43:04Z</time>
      </trkpt>
      <trkpt lat="44.97459" lon="3.85151">
        <ele>968.312</ele>
        <time>2011-05-30T08:43:14Z</time>
      </trkpt>
      <trkpt lat="44.97453" lon="3.85138">
        <ele>968.612</ele>
        <time>2011-05-30T08:43:24Z</time>
      </trkpt>
      <trkpt lat="44.97446" lon="3.85124">
        <ele>968.491</ele>
        <time>2011-05-30T08:43:34Z</time>
      </trkpt>
      <trkpt lat="44.97442" lon="3.85107">
        <ele>968.662</ele>
        <time>2011-05-30T08:43:44Z</time>
      </trkpt>
      <trkpt lat="44.97438" lon="3.85093">
        <ele>968.202</ele>
        <time>2011-05-30T08:43:54Z</time>
      </trkpt>
      <trkpt lat="44.97432" lon="3.85077">
        <ele>969.848</ele>
        <time>2011-05-30T08:44:04Z</time>
      </trkpt>
      <trkpt lat="44.97423" lon="3.85063">
        <ele>968.546</ele>
        <time>2011-05-30T08:44:14Z</time>
      </trkpt>
      <trkpt lat="44.97415" lon="3.8505">
        <ele>967.874</ele>
        <time>2011-05-30T08:44:24Z</time>
      </trkpt>
      <trkpt lat="44.97406" lon="3.85037">
        <ele>967.385</ele>
        <time>2011-05-30T08:44:34Z</time>
      </trkpt>
      <trkpt lat="44.97398" lon="3.85023">
        <ele>967.119</ele>
        <time>2011-05-30T08:44:44Z</time>
      </trkpt>
      <trkpt lat="44.9739" lon="3.85011">
        <ele>965.943</ele>
        <time>2011-05-30T08:44:54Z</time>
      </trkpt>
      <trkpt lat="44.97381" lon="3.84997">
        <ele>965.5</ele>
        <time>2011-05-30T08:45:04Z</time>
      </trkpt>
      <trkpt lat="44.97372" lon="3.84985">
        <ele>964.697</ele>
        <time>2011-05-30T08:45:14Z</time>
      </trkpt>
      <trkpt lat="44.97359" lon="3.84975">
        <ele>965.068</ele>
        <time>2011-05-30T08:45:24Z</time>
      </trkpt>
      <trkpt lat="44.97349" lon="3.84965">
        <ele>964.634</ele>
        <time>2011-05-30T08:45:34Z</time>
      </trkpt>
      <trkpt lat="44.97338" lon="3.84954">
        <ele>962.319</ele>
        <time>2011-05-30T08:45:44Z</time>
      </trkpt>
      <trkpt lat="44.97326" lon="3.8495">
        <ele>961.751</ele>
        <time>2011-05-30T08:45:54Z</time>
      </trkpt>
      <trkpt lat="44.97314" lon="3.84949">
        <ele>961.494</ele>
        <time>2011-05-30T08:46:04Z</time>
      </trkpt>
      <trkpt lat="44.97301" lon="3.84947">
        <ele>960.299</ele>
        <time>2011-05-30T08:46:14Z</time>
      </trkpt>
      <trkpt lat="44.97289" lon="3.84947">
        <ele>958.87</ele>
        <time>2011-05-30T08:46:24Z</time>
      </trkpt>
      <trkpt lat="44.97276" lon="3.84947">
        <ele>958.116</ele>
        <time>2011-05-30T08:46:34Z</time>
      </trkpt>
      <trkpt lat="44.97263" lon="3.84948">
        <ele>957.604</ele>
        <time>2011-05-30T08:46:44Z</time>
      </trkpt>
      <trkpt lat="44.97251" lon="3.84948">
        <ele>956.785</ele>
        <time>2011-05-30T08:46:54Z</time>
      </trkpt>
      <trkpt lat="44.9724" lon="3.84943">
        <ele>952.025</ele>
        <time>2011-05-30T08:47:04Z</time>
      </trkpt>
      <trkpt lat="44.97232" lon="3.84932">
        <ele>951.989</ele>
        <time>2011-05-30T08:47:14Z</time>
      </trkpt>
      <trkpt lat="44.97223" lon="3.84921">
        <ele>951.059</ele>
        <time>2011-05-30T08:47:24Z</time>
      </trkpt>
      <trkpt lat="44.97214" lon="3.8491">
        <ele>950.015</ele>
        <time>2011-05-30T08:47:34Z</time>
      </trkpt>
      <trkpt lat="44.97204" lon="3.84899">
        <ele>949.375</ele>
        <time>2011-05-30T08:47:44Z</time>
      </trkpt>
      <trkpt lat="44.97196" lon="3.84887">
        <ele>948.534</ele>
        <time>2011-05-30T08:47:54Z</time>
      </trkpt>
      <trkpt lat="44.97187" lon="3.84875">
        <ele>946.807</ele>
        <time>2011-05-30T08:48:04Z</time>
      </trkpt>
      <trkpt lat="44.97179" lon="3.84863">
        <ele>946.054</ele>
        <time>2011-05-30T08:48:14Z</time>
      </trkpt>
      <trkpt lat="44.97173" lon="3.84851">
        <ele>944.412</ele>
        <time>2011-05-30T08:48:24Z</time>
      </trkpt>
      <trkpt lat="44.97169" lon="3.84842">
        <ele>942.778</ele>
        <time>2011-05-30T08:48:34Z</time>
      </trkpt>
      <trkpt lat="44.97159" lon="3.84836">
        <ele>941.096</ele>
        <time>2011-05-30T08:48:44Z</time>
      </trkpt>
      <trkpt lat="44.97153" lon="3.84826">
        <ele>939.029</ele>
        <time>2011-05-30T08:48:54Z</time>
      </trkpt>
      <trkpt lat="44.97145" lon="3.84814">
        <ele>937.322</ele>
        <time>2011-05-30T08:49:04Z</time>
      </trkpt>
      <trkpt lat="44.97134" lon="3.84805">
        <ele>935.458</ele>
        <time>2011-05-30T08:49:14Z</time>
      </trkpt>
      <trkpt lat="44.9713" lon="3.84792">
        <ele>934.739</ele>
        <time>2011-05-30T08:49:24Z</time>
      </trkpt>
      <trkpt lat="44.97125" lon="3.84777">
        <ele>932.675</ele>
        <time>2011-05-30T08:49:34Z</time>
      </trkpt>
      <trkpt lat="44.97123" lon="3.84765">
        <ele>931.957</ele>
        <time>2011-05-30T08:49:44Z</time>
      </trkpt>
      <trkpt lat="44.97113" lon="3.84754">
        <ele>932.354</ele>
        <time>2011-05-30T08:49:54Z</time>
      </trkpt>
      <trkpt lat="44.97103" lon="3.84751">
        <ele>931.179</ele>
        <time>2011-05-30T08:50:04Z</time>
      </trkpt>
      <trkpt lat="44.97093" lon="3.84751">
        <ele>929.967</ele>
        <time>2011-05-30T08:50:14Z</time>
      </trkpt>
      <trkpt lat="44.97084" lon="3.8476">
        <ele>929.77</ele>
        <time>2011-05-30T08:50:24Z</time>
      </trkpt>
      <trkpt lat="44.9708" lon="3.84769">
        <ele>931.946</ele>
        <time>2011-05-30T08:50:34Z</time>
      </trkpt>
      <trkpt lat="44.97074" lon="3.84779">
        <ele>933.206</ele>
        <time>2011-05-30T08:50:44Z</time>
      </trkpt>
      <trkpt lat="44.97073" lon="3.84796">
        <ele>933.552</ele>
        <time>2011-05-30T08:50:54Z</time>
      </trkpt>
      <trkpt lat="44.97073" lon="3.84812">
        <ele>934.58</ele>
        <time>2011-05-30T08:51:04Z</time>
      </trkpt>
      <trkpt lat="44.97071" lon="3.84826">
        <ele>934.822</ele>
        <time>2011-05-30T08:51:14Z</time>
      </trkpt>
      <trkpt lat="44.97068" lon="3.84844">
        <ele>935.603</ele>
        <time>2011-05-30T08:51:24Z</time>
      </trkpt>
      <trkpt lat="44.97067" lon="3.84861">
        <ele>936.147</ele>
        <time>2011-05-30T08:51:34Z</time>
      </trkpt>
      <trkpt lat="44.97064" lon="3.84874">
        <ele>936.069</ele>
        <time>2011-05-30T08:51:44Z</time>
      </trkpt>
      <trkpt lat="44.97057" lon="3.84894">
        <ele>937.194</ele>
        <time>2011-05-30T08:51:54Z</time>
      </trkpt>
      <trkpt lat="44.97049" lon="3.84905">
        <ele>938.028</ele>
        <time>2011-05-30T08:52:04Z</time>
      </trkpt>
      <trkpt lat="44.97043" lon="3.84917">
        <ele>938.118</ele>
        <time>2011-05-30T08:52:14Z</time>
      </trkpt>
      <trkpt lat="44.97033" lon="3.84925">
        <ele>939.026</ele>
        <time>2011-05-30T08:52:24Z</time>
      </trkpt>
      <trkpt lat="44.97025" lon="3.84934">
        <ele>940.133</ele>
        <time>2011-05-30T08:52:34Z</time>
      </trkpt>
      <trkpt lat="44.97014" lon="3.84941">
        <ele>940.564</ele>
        <time>2011-05-30T08:52:44Z</time>
      </trkpt>
      <trkpt lat="44.97004" lon="3.84948">
        <ele>940.719</ele>
        <time>2011-05-30T08:52:54Z</time>
      </trkpt>
      <trkpt lat="44.96993" lon="3.84959">
        <ele>942.03</ele>
        <time>2011-05-30T08:53:04Z</time>
      </trkpt>
      <trkpt lat="44.96985" lon="3.84965">
        <ele>943.131</ele>
        <time>2011-05-30T08:53:14Z</time>
      </trkpt>
      <trkpt lat="44.96975" lon="3.84975">
        <ele>943.25</ele>
        <time>2011-05-30T08:53:24Z</time>
      </trkpt>
      <trkpt lat="44.96966" lon="3.84978">
        <ele>944.945</ele>
        <time>2011-05-30T08:53:34Z</time>
      </trkpt>
      <trkpt lat="44.96957" lon="3.84971">
        <ele>946.522</ele>
        <time>2011-05-30T08:53:44Z</time>
      </trkpt>
      <trkpt lat="44.96949" lon="3.84961">
        <ele>946.961</ele>
        <time>2011-05-30T08:53:54Z</time>
      </trkpt>
      <trkpt lat="44.96938" lon="3.8495">
        <ele>947.832</ele>
        <time>2011-05-30T08:54:04Z</time>
      </trkpt>
      <trkpt lat="44.96929" lon="3.84943">
        <ele>947.548</ele>
        <time>2011-05-30T08:54:14Z</time>
      </trkpt>
      <trkpt lat="44.96919" lon="3.84936">
        <ele>948.252</ele>
        <time>2011-05-30T08:54:24Z</time>
      </trkpt>
      <trkpt lat="44.9691" lon="3.84925">
        <ele>948.271</ele>
        <time>2011-05-30T08:54:34Z</time>
      </trkpt>
      <trkpt lat="44.969" lon="3.84914">
        <ele>947.662</ele>
        <time>2011-05-30T08:54:44Z</time>
      </trkpt>
      <trkpt lat="44.9689" lon="3.84907">
        <ele>948.051</ele>
        <time>2011-05-30T08:54:54Z</time>
      </trkpt>
      <trkpt lat="44.96879" lon="3.84898">
        <ele>947.573</ele>
        <time>2011-05-30T08:55:04Z</time>
      </trkpt>
      <trkpt lat="44.96869" lon="3.84891">
        <ele>947.598</ele>
        <time>2011-05-30T08:55:14Z</time>
      </trkpt>
      <trkpt lat="44.96858" lon="3.84887">
        <ele>945.407</ele>
        <time>2011-05-30T08:55:24Z</time>
      </trkpt>
      <trkpt lat="44.96847" lon="3.84881">
        <ele>947.222</ele>
        <time>2011-05-30T08:55:34Z</time>
      </trkpt>
      <trkpt lat="44.96836" lon="3.84877">
        <ele>947.919</ele>
        <time>2011-05-30T08:55:44Z</time>
      </trkpt>
      <trkpt lat="44.96825" lon="3.8487">
        <ele>946.966</ele>
        <time>2011-05-30T08:55:54Z</time>
      </trkpt>
      <trkpt lat="44.96811" lon="3.84862">
        <ele>946.824</ele>
        <time>2011-05-30T08:56:04Z</time>
      </trkpt>
      <trkpt lat="44.96801" lon="3.84856">
        <ele>946.74</ele>
        <time>2011-05-30T08:56:14Z</time>
      </trkpt>
      <trkpt lat="44.96789" lon="3.84851">
        <ele>947.335</ele>
        <time>2011-05-30T08:56:24Z</time>
      </trkpt>
      <trkpt lat="44.96776" lon="3.84847">
        <ele>946.521</ele>
        <time>2011-05-30T08:56:34Z</time>
      </trkpt>
      <trkpt lat="44.96765" lon="3.84843">
        <ele>947.356</ele>
        <time>2011-05-30T08:56:44Z</time>
      </trkpt>
      <trkpt lat="44.96754" lon="3.84841">
        <ele>947.122</ele>
        <time>2011-05-30T08:56:54Z</time>
      </trkpt>
      <trkpt lat="44.96743" lon="3.84839">
        <ele>947.475</ele>
        <time>2011-05-30T08:57:04Z</time>
      </trkpt>
      <trkpt lat="44.96732" lon="3.84837">
        <ele>948.463</ele>
        <time>2011-05-30T08:57:14Z</time>
      </trkpt>
      <trkpt lat="44.9672" lon="3.84834">
        <ele>946.668</ele>
        <time>2011-05-30T08:57:24Z</time>
      </trkpt>
      <trkpt lat="44.96708" lon="3.84831">
        <ele>948.929</ele>
        <time>2011-05-30T08:57:34Z</time>
      </trkpt>
      <trkpt lat="44.96697" lon="3.84825">
        <ele>949.062</ele>
        <time>2011-05-30T08:57:44Z</time>
      </trkpt>
      <trkpt lat="44.96686" lon="3.8482">
        <ele>948.981</ele>
        <time>2011-05-30T08:57:54Z</time>
      </trkpt>
      <trkpt lat="44.96675" lon="3.84815">
        <ele>950.287</ele>
        <time>2011-05-30T08:58:04Z</time>
      </trkpt>
      <trkpt lat="44.96666" lon="3.84807">
        <ele>949.085</ele>
        <time>2011-05-30T08:58:14Z</time>
      </trkpt>
      <trkpt lat="44.96657" lon="3.84801">
        <ele>951.306</ele>
        <time>2011-05-30T08:58:24Z</time>
      </trkpt>
      <trkpt lat="44.96647" lon="3.84794">
        <ele>952.259</ele>
        <time>2011-05-30T08:58:34Z</time>
      </trkpt>
      <trkpt lat="44.96637" lon="3.84789">
        <ele>952.422</ele>
        <time>2011-05-30T08:58:44Z</time>
      </trkpt>
      <trkpt lat="44.96627" lon="3.84792">
        <ele>954.054</ele>
        <time>2011-05-30T08:58:54Z</time>
      </trkpt>
      <trkpt lat="44.96624" lon="3.84795">
        <ele>954.712</ele>
        <time>2011-05-30T08:59:04Z</time>
      </trkpt>
      <trkpt lat="44.96625" lon="3.84795">
        <ele>954.518</ele>
        <time>2011-05-30T08:59:14Z</time>
      </trkpt>
      <trkpt lat="44.96625" lon="3.84795">
        <ele>955.216</ele>
        <time>2011-05-30T08:59:24Z</time>
      </trkpt>
      <trkpt lat="44.96625" lon="3.84795">
        <ele>954.283</ele>
        <time>2011-05-30T08:59:34Z</time>
      </trkpt>
      <trkpt lat="44.96619" lon="3.848">
        <ele>954.857</ele>
        <time>2011-05-30T08:59:44Z</time>
      </trkpt>
      <trkpt lat="44.96612" lon="3.84807">
        <ele>955.949</ele>
        <time>2011-05-30T08:59:54Z</time>
      </trkpt>
      <trkpt lat="44.96603" lon="3.84815">
        <ele>956.369</ele>
        <time>2011-05-30T09:00:04Z</time>
      </trkpt>
      <trkpt lat="44.96593" lon="3.84823">
        <ele>957.178</ele>
        <time>2011-05-30T09:00:14Z</time>
      </trkpt>
      <trkpt lat="44.96587" lon="3.84829">
        <ele>957.842</ele>
        <time>2011-05-30T09:00:24Z</time>
      </trkpt>
      <trkpt lat="44.96587" lon="3.84831">
        <ele>958.387</ele>
        <time>2011-05-30T09:00:34Z</time>
      </trkpt>
      <trkpt lat="44.96585" lon="3.84831">
        <ele>958.31</ele>
        <time>2011-05-30T09:00:44Z</time>
      </trkpt>
      <trkpt lat="44.96582" lon="3.84833">
        <ele>959.127</ele>
        <time>2011-05-30T09:00:54Z</time>
      </trkpt>
      <trkpt lat="44.96572" lon="3.84839">
        <ele>959.975</ele>
        <time>2011-05-30T09:01:04Z</time>
      </trkpt>
      <trkpt lat="44.96562" lon="3.84837">
        <ele>960.477</ele>
        <time>2011-05-30T09:01:14Z</time>
      </trkpt>
      <trkpt lat="44.96555" lon="3.84826">
        <ele>961.468</ele>
        <time>2011-05-30T09:01:24Z</time>
      </trkpt>
      <trkpt lat="44.96551" lon="3.84809">
        <ele>963.572</ele>
        <time>2011-05-30T09:01:34Z</time>
      </trkpt>
      <trkpt lat="44.9655" lon="3.84796">
        <ele>963.361</ele>
        <time>2011-05-30T09:01:44Z</time>
      </trkpt>
      <trkpt lat="44.96549" lon="3.84779">
        <ele>963.367</ele>
        <time>2011-05-30T09:01:54Z</time>
      </trkpt>
      <trkpt lat="44.96545" lon="3.84765">
        <ele>962.916</ele>
        <time>2011-05-30T09:02:04Z</time>
      </trkpt>
      <trkpt lat="44.96541" lon="3.84746">
        <ele>964.467</ele>
        <time>2011-05-30T09:02:14Z</time>
      </trkpt>
      <trkpt lat="44.96534" lon="3.84735">
        <ele>963.505</ele>
        <time>2011-05-30T09:02:24Z</time>
      </trkpt>
      <trkpt lat="44.96523" lon="3.84729">
        <ele>964.664</ele>
        <time>2011-05-30T09:02:34Z</time>
      </trkpt>
      <trkpt lat="44.96512" lon="3.84724">
        <ele>963.821</ele>
        <time>2011-05-30T09:02:44Z</time>
      </trkpt>
      <trkpt lat="44.965" lon="3.84718">
        <ele>964.643</ele>
        <time>2011-05-30T09:02:54Z</time>
      </trkpt>
      <trkpt lat="44.96489" lon="3.84712">
        <ele>965.283</ele>
        <time>2011-05-30T09:03:04Z</time>
      </trkpt>
      <trkpt lat="44.96478" lon="3.84706">
        <ele>964.772</ele>
        <time>2011-05-30T09:03:14Z</time>
      </trkpt>
      <trkpt lat="44.96467" lon="3.84701">
        <ele>964.745</ele>
        <time>2011-05-30T09:03:24Z</time>
      </trkpt>
      <trkpt lat="44.96456" lon="3.84695">
        <ele>964.232</ele>
        <time>2011-05-30T09:03:34Z</time>
      </trkpt>
      <trkpt lat="44.96443" lon="3.84691">
        <ele>965.473</ele>
        <time>2011-05-30T09:03:44Z</time>
      </trkpt>
      <trkpt lat="44.96431" lon="3.84688">
        <ele>964.859</ele>
        <time>2011-05-30T09:03:54Z</time>
      </trkpt>
      <trkpt lat="44.96419" lon="3.84679">
        <ele>965.172</ele>
        <time>2011-05-30T09:04:04Z</time>
      </trkpt>
      <trkpt lat="44.96405" lon="3.84676">
        <ele>964.24</ele>
        <time>2011-05-30T09:04:14Z</time>
      </trkpt>
      <trkpt lat="44.96392" lon="3.84672">
        <ele>964.693</ele>
        <time>2011-05-30T09:04:24Z</time>
      </trkpt>
      <trkpt lat="44.96378" lon="3.84667">
        <ele>964.65</ele>
        <time>2011-05-30T09:04:34Z</time>
      </trkpt>
      <trkpt lat="44.96366" lon="3.84661">
        <ele>964.91</ele>
        <time>2011-05-30T09:04:44Z</time>
      </trkpt>
      <trkpt lat="44.96354" lon="3.84653">
        <ele>965.28</ele>
        <time>2011-05-30T09:04:54Z</time>
      </trkpt>
      <trkpt lat="44.96343" lon="3.84647">
        <ele>966.647</ele>
        <time>2011-05-30T09:05:04Z</time>
      </trkpt>
      <trkpt lat="44.96333" lon="3.84642">
        <ele>965.974</ele>
        <time>2011-05-30T09:05:14Z</time>
      </trkpt>
      <trkpt lat="44.96321" lon="3.84634">
        <ele>965.623</ele>
        <time>2011-05-30T09:05:24Z</time>
      </trkpt>
      <trkpt lat="44.96313" lon="3.8463">
        <ele>965.79</ele>
        <time>2011-05-30T09:05:34Z</time>
      </trkpt>
      <trkpt lat="44.963" lon="3.84626">
        <ele>964.548</ele>
        <time>2011-05-30T09:05:44Z</time>
      </trkpt>
      <trkpt lat="44.96289" lon="3.84621">
        <ele>965.602</ele>
        <time>2011-05-30T09:05:54Z</time>
      </trkpt>
      <trkpt lat="44.9629" lon="3.84619">
        <ele>965.488</ele>
        <time>2011-05-30T09:06:04Z</time>
      </trkpt>
      <trkpt lat="44.9629" lon="3.84618">
        <ele>965.607</ele>
        <time>2011-05-30T09:06:14Z</time>
      </trkpt>
      <trkpt lat="44.96289" lon="3.84616">
        <ele>965.752</ele>
        <time>2011-05-30T09:06:24Z</time>
      </trkpt>
      <trkpt lat="44.9629" lon="3.84615">
        <ele>965.79</ele>
        <time>2011-05-30T09:06:34Z</time>
      </trkpt>
      <trkpt lat="44.96289" lon="3.84614">
        <ele>967.103</ele>
        <time>2011-05-30T09:06:44Z</time>
      </trkpt>
      <trkpt lat="44.96281" lon="3.84611">
        <ele>966.025</ele>
        <time>2011-05-30T09:06:54Z</time>
      </trkpt>
      <trkpt lat="44.96274" lon="3.84608">
        <ele>966.057</ele>
        <time>2011-05-30T09:07:04Z</time>
      </trkpt>
      <trkpt lat="44.96259" lon="3.84606">
        <ele>966.582</ele>
        <time>2011-05-30T09:07:14Z</time>
      </trkpt>
      <trkpt lat="44.9625" lon="3.84604">
        <ele>966.499</ele>
        <time>2011-05-30T09:07:24Z</time>
      </trkpt>
      <trkpt lat="44.9624" lon="3.84599">
        <ele>968.275</ele>
        <time>2011-05-30T09:07:34Z</time>
      </trkpt>
      <trkpt lat="44.96227" lon="3.84595">
        <ele>967.973</ele>
        <time>2011-05-30T09:07:44Z</time>
      </trkpt>
      <trkpt lat="44.96216" lon="3.84592">
        <ele>967.94</ele>
        <time>2011-05-30T09:07:54Z</time>
      </trkpt>
      <trkpt lat="44.96207" lon="3.84589">
        <ele>968.817</ele>
        <time>2011-05-30T09:08:04Z</time>
      </trkpt>
      <trkpt lat="44.96193" lon="3.84586">
        <ele>968.854</ele>
        <time>2011-05-30T09:08:14Z</time>
      </trkpt>
      <trkpt lat="44.9618" lon="3.8458">
        <ele>970.746</ele>
        <time>2011-05-30T09:08:24Z</time>
      </trkpt>
      <trkpt lat="44.96169" lon="3.8457">
        <ele>969.013</ele>
        <time>2011-05-30T09:08:34Z</time>
      </trkpt>
      <trkpt lat="44.96155" lon="3.84563">
        <ele>968.871</ele>
        <time>2011-05-30T09:08:44Z</time>
      </trkpt>
      <trkpt lat="44.96143" lon="3.84558">
        <ele>968.794</ele>
        <time>2011-05-30T09:08:54Z</time>
      </trkpt>
      <trkpt lat="44.96132" lon="3.84552">
        <ele>968.822</ele>
        <time>2011-05-30T09:09:04Z</time>
      </trkpt>
      <trkpt lat="44.96119" lon="3.84548">
        <ele>968.164</ele>
        <time>2011-05-30T09:09:14Z</time>
      </trkpt>
      <trkpt lat="44.96108" lon="3.8454">
        <ele>968.154</ele>
        <time>2011-05-30T09:09:24Z</time>
      </trkpt>
      <trkpt lat="44.96096" lon="3.84534">
        <ele>966.939</ele>
        <time>2011-05-30T09:09:34Z</time>
      </trkpt>
      <trkpt lat="44.96082" lon="3.84532">
        <ele>967.135</ele>
        <time>2011-05-30T09:09:44Z</time>
      </trkpt>
      <trkpt lat="44.96071" lon="3.84528">
        <ele>967.105</ele>
        <time>2011-05-30T09:09:54Z</time>
      </trkpt>
      <trkpt lat="44.96056" lon="3.8453">
        <ele>966.751</ele>
        <time>2011-05-30T09:10:04Z</time>
      </trkpt>
      <trkpt lat="44.96044" lon="3.84527">
        <ele>966.753</ele>
        <time>2011-05-30T09:10:14Z</time>
      </trkpt>
      <trkpt lat="44.96032" lon="3.84526">
        <ele>965.918</ele>
        <time>2011-05-30T09:10:24Z</time>
      </trkpt>
      <trkpt lat="44.96024" lon="3.84519">
        <ele>965.554</ele>
        <time>2011-05-30T09:10:34Z</time>
      </trkpt>
      <trkpt lat="44.96006" lon="3.84516">
        <ele>963.464</ele>
        <time>2011-05-30T09:10:44Z</time>
      </trkpt>
      <trkpt lat="44.95995" lon="3.84522">
        <ele>962.952</ele>
        <time>2011-05-30T09:10:54Z</time>
      </trkpt>
      <trkpt lat="44.95981" lon="3.84517">
        <ele>962.817</ele>
        <time>2011-05-30T09:11:04Z</time>
      </trkpt>
      <trkpt lat="44.9597" lon="3.84513">
        <ele>963.732</ele>
        <time>2011-05-30T09:11:14Z</time>
      </trkpt>
      <trkpt lat="44.95956" lon="3.84505">
        <ele>963.512</ele>
        <time>2011-05-30T09:11:24Z</time>
      </trkpt>
      <trkpt lat="44.95943" lon="3.84512">
        <ele>962.074</ele>
        <time>2011-05-30T09:11:34Z</time>
      </trkpt>
      <trkpt lat="44.95932" lon="3.84516">
        <ele>961.388</ele>
        <time>2011-05-30T09:11:44Z</time>
      </trkpt>
      <trkpt lat="44.95919" lon="3.84522">
        <ele>961.172</ele>
        <time>2011-05-30T09:11:54Z</time>
      </trkpt>
      <trkpt lat="44.95906" lon="3.84528">
        <ele>960.142</ele>
        <time>2011-05-30T09:12:04Z</time>
      </trkpt>
      <trkpt lat="44.95891" lon="3.84534">
        <ele>959.913</ele>
        <time>2011-05-30T09:12:14Z</time>
      </trkpt>
      <trkpt lat="44.95881" lon="3.84542">
        <ele>957.494</ele>
        <time>2011-05-30T09:12:24Z</time>
      </trkpt>
      <trkpt lat="44.95871" lon="3.84548">
        <ele>958.038</ele>
        <time>2011-05-30T09:12:34Z</time>
      </trkpt>
      <trkpt lat="44.95858" lon="3.84554">
        <ele>958.178</ele>
        <time>2011-05-30T09:12:44Z</time>
      </trkpt>
      <trkpt lat="44.95847" lon="3.84558">
        <ele>957.003</ele>
        <time>2011-05-30T09:12:54Z</time>
      </trkpt>
      <trkpt lat="44.95832" lon="3.84565">
        <ele>955.169</ele>
        <time>2011-05-30T09:13:04Z</time>
      </trkpt>
      <trkpt lat="44.95822" lon="3.8457">
        <ele>954.063</ele>
        <time>2011-05-30T09:13:14Z</time>
      </trkpt>
      <trkpt lat="44.95809" lon="3.84573">
        <ele>953.32</ele>
        <time>2011-05-30T09:13:24Z</time>
      </trkpt>
      <trkpt lat="44.95794" lon="3.84576">
        <ele>951.293</ele>
        <time>2011-05-30T09:13:34Z</time>
      </trkpt>
      <trkpt lat="44.95783" lon="3.84575">
        <ele>950.281</ele>
        <time>2011-05-30T09:13:44Z</time>
      </trkpt>
      <trkpt lat="44.95771" lon="3.84576">
        <ele>949.169</ele>
        <time>2011-05-30T09:13:54Z</time>
      </trkpt>
      <trkpt lat="44.95759" lon="3.84581">
        <ele>949.286</ele>
        <time>2011-05-30T09:14:04Z</time>
      </trkpt>
      <trkpt lat="44.95746" lon="3.84589">
        <ele>949.799</ele>
        <time>2011-05-30T09:14:14Z</time>
      </trkpt>
      <trkpt lat="44.95732" lon="3.84596">
        <ele>951.105</ele>
        <time>2011-05-30T09:14:24Z</time>
      </trkpt>
      <trkpt lat="44.9572" lon="3.84604">
        <ele>952.217</ele>
        <time>2011-05-30T09:14:34Z</time>
      </trkpt>
      <trkpt lat="44.95707" lon="3.84603">
        <ele>953.319</ele>
        <time>2011-05-30T09:14:44Z</time>
      </trkpt>
      <trkpt lat="44.95699" lon="3.84598">
        <ele>953.546</ele>
        <time>2011-05-30T09:14:54Z</time>
      </trkpt>
      <trkpt lat="44.95688" lon="3.84594">
        <ele>955.012</ele>
        <time>2011-05-30T09:15:04Z</time>
      </trkpt>
      <trkpt lat="44.95675" lon="3.84593">
        <ele>955.981</ele>
        <time>2011-05-30T09:15:14Z</time>
      </trkpt>
      <trkpt lat="44.95664" lon="3.8459">
        <ele>957.096</ele>
        <time>2011-05-30T09:15:24Z</time>
      </trkpt>
      <trkpt lat="44.95653" lon="3.84588">
        <ele>957.98</ele>
        <time>2011-05-30T09:15:34Z</time>
      </trkpt>
      <trkpt lat="44.95641" lon="3.84586">
        <ele>957.786</ele>
        <time>2011-05-30T09:15:44Z</time>
      </trkpt>
      <trkpt lat="44.9563" lon="3.84581">
        <ele>958.235</ele>
        <time>2011-05-30T09:15:54Z</time>
      </trkpt>
      <trkpt lat="44.95621" lon="3.84576">
        <ele>959.142</ele>
        <time>2011-05-30T09:16:04Z</time>
      </trkpt>
      <trkpt lat="44.95618" lon="3.84576">
        <ele>959.022</ele>
        <time>2011-05-30T09:16:14Z</time>
      </trkpt>
      <trkpt lat="44.95617" lon="3.84575">
        <ele>959.565</ele>
        <time>2011-05-30T09:16:24Z</time>
      </trkpt>
      <trkpt lat="44.95617" lon="3.84575">
        <ele>958.964</ele>
        <time>2011-05-30T09:16:34Z</time>
      </trkpt>
      <trkpt lat="44.95617" lon="3.84577">
        <ele>959.194</ele>
        <time>2011-05-30T09:16:44Z</time>
      </trkpt>
      <trkpt lat="44.95614" lon="3.84579">
        <ele>959.296</ele>
        <time>2011-05-30T09:16:54Z</time>
      </trkpt>
      <trkpt lat="44.95615" lon="3.84589">
        <ele>958.702</ele>
        <time>2011-05-30T09:17:04Z</time>
      </trkpt>
      <trkpt lat="44.95613" lon="3.84603">
        <ele>959.428</ele>
        <time>2011-05-30T09:17:14Z</time>
      </trkpt>
      <trkpt lat="44.95615" lon="3.84599">
        <ele>959.941</ele>
        <time>2011-05-30T09:17:24Z</time>
      </trkpt>
      <trkpt lat="44.95617" lon="3.8459">
        <ele>959.065</ele>
        <time>2011-05-30T09:17:34Z</time>
      </trkpt>
      <trkpt lat="44.95618" lon="3.84587">
        <ele>959.776</ele>
        <time>2011-05-30T09:17:44Z</time>
      </trkpt>
      <trkpt lat="44.95617" lon="3.84588">
        <ele>959.259</ele>
        <time>2011-05-30T09:17:54Z</time>
      </trkpt>
      <trkpt lat="44.95616" lon="3.84588">
        <ele>959.162</ele>
        <time>2011-05-30T09:18:04Z</time>
      </trkpt>
      <trkpt lat="44.95616" lon="3.8458">
        <ele>959.515</ele>
        <time>2011-05-30T09:18:14Z</time>
      </trkpt>
      <trkpt lat="44.95608" lon="3.84567">
        <ele>958.836</ele>
        <time>2011-05-30T09:18:24Z</time>
      </trkpt>
      <trkpt lat="44.95598" lon="3.84566">
        <ele>959.859</ele>
        <time>2011-05-30T09:18:34Z</time>
      </trkpt>
      <trkpt lat="44.95587" lon="3.84565">
        <ele>960.147</ele>
        <time>2011-05-30T09:18:44Z</time>
      </trkpt>
      <trkpt lat="44.95577" lon="3.84564">
        <ele>961.526</ele>
        <time>2011-05-30T09:18:54Z</time>
      </trkpt>
      <trkpt lat="44.95563" lon="3.84568">
        <ele>961.383</ele>
        <time>2011-05-30T09:19:04Z</time>
      </trkpt>
      <trkpt lat="44.95548" lon="3.84571">
        <ele>961.442</ele>
        <time>2011-05-30T09:19:14Z</time>
      </trkpt>
      <trkpt lat="44.95541" lon="3.84566">
        <ele>962.608</ele>
        <time>2011-05-30T09:19:24Z</time>
      </trkpt>
      <trkpt lat="44.95535" lon="3.84565">
        <ele>962.837</ele>
        <time>2011-05-30T09:19:34Z</time>
      </trkpt>
      <trkpt lat="44.95525" lon="3.84564">
        <ele>963.437</ele>
        <time>2011-05-30T09:19:44Z</time>
      </trkpt>
      <trkpt lat="44.95513" lon="3.84565">
        <ele>963.305</ele>
        <time>2011-05-30T09:19:54Z</time>
      </trkpt>
      <trkpt lat="44.95501" lon="3.84569">
        <ele>964.567</ele>
        <time>2011-05-30T09:20:04Z</time>
      </trkpt>
      <trkpt lat="44.95489" lon="3.84574">
        <ele>964.671</ele>
        <time>2011-05-30T09:20:14Z</time>
      </trkpt>
      <trkpt lat="44.95478" lon="3.8458">
        <ele>966.341</ele>
        <time>2011-05-30T09:20:24Z</time>
      </trkpt>
      <trkpt lat="44.95472" lon="3.84591">
        <ele>966.624</ele>
        <time>2011-05-30T09:20:34Z</time>
      </trkpt>
      <trkpt lat="44.95463" lon="3.84598">
        <ele>967.729</ele>
        <time>2011-05-30T09:20:44Z</time>
      </trkpt>
      <trkpt lat="44.95453" lon="3.84604">
        <ele>968.56</ele>
        <time>2011-05-30T09:20:54Z</time>
      </trkpt>
      <trkpt lat="44.95444" lon="3.84608">
        <ele>969.827</ele>
        <time>2011-05-30T09:21:04Z</time>
      </trkpt>
      <trkpt lat="44.95432" lon="3.84614">
        <ele>970.825</ele>
        <time>2011-05-30T09:21:14Z</time>
      </trkpt>
      <trkpt lat="44.95423" lon="3.84614">
        <ele>971.912</ele>
        <time>2011-05-30T09:21:24Z</time>
      </trkpt>
      <trkpt lat="44.95415" lon="3.84615">
        <ele>973.291</ele>
        <time>2011-05-30T09:21:34Z</time>
      </trkpt>
      <trkpt lat="44.95401" lon="3.8462">
        <ele>973.038</ele>
        <time>2011-05-30T09:21:44Z</time>
      </trkpt>
      <trkpt lat="44.9539" lon="3.84622">
        <ele>974.544</ele>
        <time>2011-05-30T09:21:54Z</time>
      </trkpt>
      <trkpt lat="44.9538" lon="3.84619">
        <ele>975.839</ele>
        <time>2011-05-30T09:22:04Z</time>
      </trkpt>
      <trkpt lat="44.95368" lon="3.84619">
        <ele>974.691</ele>
        <time>2011-05-30T09:22:14Z</time>
      </trkpt>
      <trkpt lat="44.95357" lon="3.84616">
        <ele>974.993</ele>
        <time>2011-05-30T09:22:24Z</time>
      </trkpt>
      <trkpt lat="44.95341" lon="3.84614">
        <ele>974.393</ele>
        <time>2011-05-30T09:22:34Z</time>
      </trkpt>
      <trkpt lat="44.95335" lon="3.84612">
        <ele>973.971</ele>
        <time>2011-05-30T09:22:44Z</time>
      </trkpt>
      <trkpt lat="44.95328" lon="3.84615">
        <ele>973.911</ele>
        <time>2011-05-30T09:22:54Z</time>
      </trkpt>
      <trkpt lat="44.95315" lon="3.84614">
        <ele>973.899</ele>
        <time>2011-05-30T09:23:04Z</time>
      </trkpt>
      <trkpt lat="44.95304" lon="3.84614">
        <ele>974.443</ele>
        <time>2011-05-30T09:23:14Z</time>
      </trkpt>
      <trkpt lat="44.95294" lon="3.84611">
        <ele>975.208</ele>
        <time>2011-05-30T09:23:24Z</time>
      </trkpt>
      <trkpt lat="44.95284" lon="3.84611">
        <ele>975.325</ele>
        <time>2011-05-30T09:23:34Z</time>
      </trkpt>
      <trkpt lat="44.95269" lon="3.84613">
        <ele>974.064</ele>
        <time>2011-05-30T09:23:44Z</time>
      </trkpt>
      <trkpt lat="44.95256" lon="3.84616">
        <ele>972.314</ele>
        <time>2011-05-30T09:23:54Z</time>
      </trkpt>
      <trkpt lat="44.95245" lon="3.84618">
        <ele>971.931</ele>
        <time>2011-05-30T09:24:04Z</time>
      </trkpt>
      <trkpt lat="44.95233" lon="3.84619">
        <ele>972.829</ele>
        <time>2011-05-30T09:24:14Z</time>
      </trkpt>
      <trkpt lat="44.95221" lon="3.84619">
        <ele>972.509</ele>
        <time>2011-05-30T09:24:24Z</time>
      </trkpt>
      <trkpt lat="44.95209" lon="3.84621">
        <ele>972.89</ele>
        <time>2011-05-30T09:24:34Z</time>
      </trkpt>
      <trkpt lat="44.95197" lon="3.84621">
        <ele>973.698</ele>
        <time>2011-05-30T09:24:44Z</time>
      </trkpt>
      <trkpt lat="44.95185" lon="3.84622">
        <ele>973.894</ele>
        <time>2011-05-30T09:24:54Z</time>
      </trkpt>
      <trkpt lat="44.95172" lon="3.84625">
        <ele>973.39</ele>
        <time>2011-05-30T09:25:04Z</time>
      </trkpt>
      <trkpt lat="44.9516" lon="3.84625">
        <ele>973.428</ele>
        <time>2011-05-30T09:25:14Z</time>
      </trkpt>
      <trkpt lat="44.9515" lon="3.84623">
        <ele>974.297</ele>
        <time>2011-05-30T09:25:24Z</time>
      </trkpt>
      <trkpt lat="44.95137" lon="3.84624">
        <ele>974.817</ele>
        <time>2011-05-30T09:25:34Z</time>
      </trkpt>
      <trkpt lat="44.95127" lon="3.84624">
        <ele>974.454</ele>
        <time>2011-05-30T09:25:44Z</time>
      </trkpt>
      <trkpt lat="44.95113" lon="3.84626">
        <ele>974.061</ele>
        <time>2011-05-30T09:25:54Z</time>
      </trkpt>
      <trkpt lat="44.951" lon="3.84627">
        <ele>973.934</ele>
        <time>2011-05-30T09:26:04Z</time>
      </trkpt>
      <trkpt lat="44.95088" lon="3.84621">
        <ele>974.068</ele>
        <time>2011-05-30T09:26:14Z</time>
      </trkpt>
      <trkpt lat="44.95076" lon="3.84615">
        <ele>974.959</ele>
        <time>2011-05-30T09:26:24Z</time>
      </trkpt>
      <trkpt lat="44.95065" lon="3.84611">
        <ele>973.972</ele>
        <time>2011-05-30T09:26:34Z</time>
      </trkpt>
      <trkpt lat="44.95051" lon="3.84609">
        <ele>974.892</ele>
        <time>2011-05-30T09:26:44Z</time>
      </trkpt>
      <trkpt lat="44.9504" lon="3.84609">
        <ele>974.75</ele>
        <time>2011-05-30T09:26:54Z</time>
      </trkpt>
      <trkpt lat="44.95029" lon="3.84606">
        <ele>975.418</ele>
        <time>2011-05-30T09:27:04Z</time>
      </trkpt>
      <trkpt lat="44.95016" lon="3.84604">
        <ele>975.011</ele>
        <time>2011-05-30T09:27:14Z</time>
      </trkpt>
      <trkpt lat="44.95003" lon="3.84602">
        <ele>975.379</ele>
        <time>2011-05-30T09:27:24Z</time>
      </trkpt>
      <trkpt lat="44.94992" lon="3.84601">
        <ele>975.472</ele>
        <time>2011-05-30T09:27:34Z</time>
      </trkpt>
      <trkpt lat="44.94983" lon="3.84605">
        <ele>976.744</ele>
        <time>2011-05-30T09:27:44Z</time>
      </trkpt>
      <trkpt lat="44.94971" lon="3.84609">
        <ele>976.892</ele>
        <time>2011-05-30T09:27:54Z</time>
      </trkpt>
      <trkpt lat="44.9496" lon="3.84613">
        <ele>975.117</ele>
        <time>2011-05-30T09:28:04Z</time>
      </trkpt>
      <trkpt lat="44.9495" lon="3.84617">
        <ele>977.352</ele>
        <time>2011-05-30T09:28:14Z</time>
      </trkpt>
      <trkpt lat="44.94946" lon="3.8462">
        <ele>977.341</ele>
        <time>2011-05-30T09:28:24Z</time>
      </trkpt>
      <trkpt lat="44.94936" lon="3.84623">
        <ele>978.311</ele>
        <time>2011-05-30T09:28:34Z</time>
      </trkpt>
      <trkpt lat="44.94925" lon="3.84627">
        <ele>977.938</ele>
        <time>2011-05-30T09:28:44Z</time>
      </trkpt>
      <trkpt lat="44.94916" lon="3.84632">
        <ele>978.588</ele>
        <time>2011-05-30T09:28:54Z</time>
      </trkpt>
      <trkpt lat="44.94905" lon="3.84636">
        <ele>979.419</ele>
        <time>2011-05-30T09:29:04Z</time>
      </trkpt>
      <trkpt lat="44.94895" lon="3.8464">
        <ele>980.649</ele>
        <time>2011-05-30T09:29:14Z</time>
      </trkpt>
      <trkpt lat="44.94885" lon="3.84643">
        <ele>980.04</ele>
        <time>2011-05-30T09:29:24Z</time>
      </trkpt>
      <trkpt lat="44.94874" lon="3.84648">
        <ele>980.929</ele>
        <time>2011-05-30T09:29:34Z</time>
      </trkpt>
      <trkpt lat="44.94864" lon="3.84653">
        <ele>982.286</ele>
        <time>2011-05-30T09:29:44Z</time>
      </trkpt>
      <trkpt lat="44.94853" lon="3.84657">
        <ele>982.734</ele>
        <time>2011-05-30T09:29:54Z</time>
      </trkpt>
      <trkpt lat="44.94841" lon="3.8466">
        <ele>983.188</ele>
        <time>2011-05-30T09:30:04Z</time>
      </trkpt>
      <trkpt lat="44.9483" lon="3.84665">
        <ele>984.321</ele>
        <time>2011-05-30T09:30:14Z</time>
      </trkpt>
      <trkpt lat="44.94818" lon="3.8467">
        <ele>985.492</ele>
        <time>2011-05-30T09:30:24Z</time>
      </trkpt>
      <trkpt lat="44.94807" lon="3.84675">
        <ele>985.536</ele>
        <time>2011-05-30T09:30:34Z</time>
      </trkpt>
      <trkpt lat="44.94796" lon="3.8468">
        <ele>985.931</ele>
        <time>2011-05-30T09:30:44Z</time>
      </trkpt>
      <trkpt lat="44.94785" lon="3.84684">
        <ele>987.111</ele>
        <time>2011-05-30T09:30:54Z</time>
      </trkpt>
      <trkpt lat="44.94772" lon="3.84688">
        <ele>987.052</ele>
        <time>2011-05-30T09:31:04Z</time>
      </trkpt>
      <trkpt lat="44.94761" lon="3.84695">
        <ele>987.384</ele>
        <time>2011-05-30T09:31:14Z</time>
      </trkpt>
      <trkpt lat="44.94749" lon="3.84701">
        <ele>987.838</ele>
        <time>2011-05-30T09:31:24Z</time>
      </trkpt>
      <trkpt lat="44.94738" lon="3.84705">
        <ele>988.807</ele>
        <time>2011-05-30T09:31:34Z</time>
      </trkpt>
      <trkpt lat="44.94726" lon="3.8471">
        <ele>989.607</ele>
        <time>2011-05-30T09:31:44Z</time>
      </trkpt>
      <trkpt lat="44.94716" lon="3.84716">
        <ele>989.375</ele>
        <time>2011-05-30T09:31:54Z</time>
      </trkpt>
      <trkpt lat="44.94704" lon="3.84719">
        <ele>990.336</ele>
        <time>2011-05-30T09:32:04Z</time>
      </trkpt>
      <trkpt lat="44.94694" lon="3.84722">
        <ele>991.597</ele>
        <time>2011-05-30T09:32:14Z</time>
      </trkpt>
      <trkpt lat="44.94683" lon="3.84727">
        <ele>993.124</ele>
        <time>2011-05-30T09:32:24Z</time>
      </trkpt>
      <trkpt lat="44.94672" lon="3.84732">
        <ele>991.833</ele>
        <time>2011-05-30T09:32:34Z</time>
      </trkpt>
      <trkpt lat="44.94661" lon="3.84735">
        <ele>992.928</ele>
        <time>2011-05-30T09:32:44Z</time>
      </trkpt>
      <trkpt lat="44.94649" lon="3.84739">
        <ele>993.807</ele>
        <time>2011-05-30T09:32:54Z</time>
      </trkpt>
      <trkpt lat="44.94639" lon="3.84744">
        <ele>994.04</ele>
        <time>2011-05-30T09:33:04Z</time>
      </trkpt>
      <trkpt lat="44.94628" lon="3.84748">
        <ele>995.035</ele>
        <time>2011-05-30T09:33:14Z</time>
      </trkpt>
      <trkpt lat="44.94618" lon="3.84753">
        <ele>995.769</ele>
        <time>2011-05-30T09:33:24Z</time>
      </trkpt>
      <trkpt lat="44.94608" lon="3.84756">
        <ele>993.826</ele>
        <time>2011-05-30T09:33:34Z</time>
      </trkpt>
      <trkpt lat="44.94598" lon="3.8476">
        <ele>994.371</ele>
        <time>2011-05-30T09:33:44Z</time>
      </trkpt>
      <trkpt lat="44.94587" lon="3.84765">
        <ele>995.594</ele>
        <time>2011-05-30T09:33:54Z</time>
      </trkpt>
      <trkpt lat="44.94576" lon="3.8477">
        <ele>996.091</ele>
        <time>2011-05-30T09:34:04Z</time>
      </trkpt>
      <trkpt lat="44.94566" lon="3.84774">
        <ele>998.531</ele>
        <time>2011-05-30T09:34:14Z</time>
      </trkpt>
      <trkpt lat="44.94556" lon="3.84776">
        <ele>998.833</ele>
        <time>2011-05-30T09:34:24Z</time>
      </trkpt>
      <trkpt lat="44.94544" lon="3.84781">
        <ele>1000.329</ele>
        <time>2011-05-30T09:34:34Z</time>
      </trkpt>
      <trkpt lat="44.94533" lon="3.84789">
        <ele>1001.06</ele>
        <time>2011-05-30T09:34:44Z</time>
      </trkpt>
      <trkpt lat="44.94522" lon="3.84795">
        <ele>1000.533</ele>
        <time>2011-05-30T09:34:54Z</time>
      </trkpt>
      <trkpt lat="44.94512" lon="3.84798">
        <ele>1001.535</ele>
        <time>2011-05-30T09:35:04Z</time>
      </trkpt>
      <trkpt lat="44.94502" lon="3.84801">
        <ele>1003.01</ele>
        <time>2011-05-30T09:35:14Z</time>
      </trkpt>
      <trkpt lat="44.94493" lon="3.84803">
        <ele>1004.795</ele>
        <time>2011-05-30T09:35:24Z</time>
      </trkpt>
      <trkpt lat="44.94483" lon="3.84807">
        <ele>1004.93</ele>
        <time>2011-05-30T09:35:34Z</time>
      </trkpt>
      <trkpt lat="44.94472" lon="3.84813">
        <ele>1006.018</ele>
        <time>2011-05-30T09:35:44Z</time>
      </trkpt>
      <trkpt lat="44.9446" lon="3.84815">
        <ele>1005.162</ele>
        <time>2011-05-30T09:35:54Z</time>
      </trkpt>
      <trkpt lat="44.94449" lon="3.84815">
        <ele>1004.912</ele>
        <time>2011-05-30T09:36:04Z</time>
      </trkpt>
      <trkpt lat="44.94439" lon="3.84814">
        <ele>1004.628</ele>
        <time>2011-05-30T09:36:14Z</time>
      </trkpt>
      <trkpt lat="44.94429" lon="3.84811">
        <ele>1003.627</ele>
        <time>2011-05-30T09:36:24Z</time>
      </trkpt>
      <trkpt lat="44.94418" lon="3.84809">
        <ele>1006.797</ele>
        <time>2011-05-30T09:36:34Z</time>
      </trkpt>
      <trkpt lat="44.94407" lon="3.84808">
        <ele>1006.583</ele>
        <time>2011-05-30T09:36:44Z</time>
      </trkpt>
      <trkpt lat="44.94394" lon="3.84806">
        <ele>1008.02</ele>
        <time>2011-05-30T09:36:54Z</time>
      </trkpt>
      <trkpt lat="44.94383" lon="3.84804">
        <ele>1007.79</ele>
        <time>2011-05-30T09:37:04Z</time>
      </trkpt>
      <trkpt lat="44.94372" lon="3.84803">
        <ele>1008.843</ele>
        <time>2011-05-30T09:37:14Z</time>
      </trkpt>
      <trkpt lat="44.9436" lon="3.848">
        <ele>1009.473</ele>
        <time>2011-05-30T09:37:24Z</time>
      </trkpt>
      <trkpt lat="44.94348" lon="3.84799">
        <ele>1010.162</ele>
        <time>2011-05-30T09:37:34Z</time>
      </trkpt>
      <trkpt lat="44.94337" lon="3.84797">
        <ele>1011.426</ele>
        <time>2011-05-30T09:37:44Z</time>
      </trkpt>
      <trkpt lat="44.94326" lon="3.84795">
        <ele>1009.885</ele>
        <time>2011-05-30T09:37:54Z</time>
      </trkpt>
      <trkpt lat="44.94315" lon="3.84792">
        <ele>1011.972</ele>
        <time>2011-05-30T09:38:04Z</time>
      </trkpt>
      <trkpt lat="44.94304" lon="3.84789">
        <ele>1013.163</ele>
        <time>2011-05-30T09:38:14Z</time>
      </trkpt>
      <trkpt lat="44.94294" lon="3.84786">
        <ele>1014.472</ele>
        <time>2011-05-30T09:38:24Z</time>
      </trkpt>
      <trkpt lat="44.94286" lon="3.84785">
        <ele>1015.131</ele>
        <time>2011-05-30T09:38:34Z</time>
      </trkpt>
      <trkpt lat="44.94277" lon="3.84788">
        <ele>1015.169</ele>
        <time>2011-05-30T09:38:44Z</time>
      </trkpt>
      <trkpt lat="44.94266" lon="3.84787">
        <ele>1015.06</ele>
        <time>2011-05-30T09:38:54Z</time>
      </trkpt>
      <trkpt lat="44.94256" lon="3.84785">
        <ele>1016.225</ele>
        <time>2011-05-30T09:39:04Z</time>
      </trkpt>
      <trkpt lat="44.94245" lon="3.84783">
        <ele>1016.577</ele>
        <time>2011-05-30T09:39:14Z</time>
      </trkpt>
      <trkpt lat="44.94235" lon="3.8478">
        <ele>1017.494</ele>
        <time>2011-05-30T09:39:24Z</time>
      </trkpt>
      <trkpt lat="44.94225" lon="3.84778">
        <ele>1017.089</ele>
        <time>2011-05-30T09:39:34Z</time>
      </trkpt>
      <trkpt lat="44.94214" lon="3.84776">
        <ele>1017.973</ele>
        <time>2011-05-30T09:39:44Z</time>
      </trkpt>
      <trkpt lat="44.94203" lon="3.84775">
        <ele>1018.422</ele>
        <time>2011-05-30T09:39:54Z</time>
      </trkpt>
      <trkpt lat="44.94192" lon="3.84773">
        <ele>1018.294</ele>
        <time>2011-05-30T09:40:04Z</time>
      </trkpt>
      <trkpt lat="44.94182" lon="3.8477">
        <ele>1017.961</ele>
        <time>2011-05-30T09:40:14Z</time>
      </trkpt>
      <trkpt lat="44.94171" lon="3.84768">
        <ele>1018.68</ele>
        <time>2011-05-30T09:40:24Z</time>
      </trkpt>
      <trkpt lat="44.9416" lon="3.84765">
        <ele>1018.397</ele>
        <time>2011-05-30T09:40:34Z</time>
      </trkpt>
      <trkpt lat="44.94148" lon="3.84763">
        <ele>1020.138</ele>
        <time>2011-05-30T09:40:44Z</time>
      </trkpt>
      <trkpt lat="44.94137" lon="3.84761">
        <ele>1021.085</ele>
        <time>2011-05-30T09:40:54Z</time>
      </trkpt>
      <trkpt lat="44.94126" lon="3.84758">
        <ele>1020.101</ele>
        <time>2011-05-30T09:41:04Z</time>
      </trkpt>
      <trkpt lat="44.94118" lon="3.84752">
        <ele>1018.555</ele>
        <time>2011-05-30T09:41:14Z</time>
      </trkpt>
      <trkpt lat="44.94118" lon="3.84751">
        <ele>1022.241</ele>
        <time>2011-05-30T09:41:24Z</time>
      </trkpt>
      <trkpt lat="44.94112" lon="3.84751">
        <ele>1022.365</ele>
        <time>2011-05-30T09:41:34Z</time>
      </trkpt>
      <trkpt lat="44.941" lon="3.8475">
        <ele>1019.914</ele>
        <time>2011-05-30T09:41:44Z</time>
      </trkpt>
      <trkpt lat="44.94089" lon="3.84747">
        <ele>1020.469</ele>
        <time>2011-05-30T09:41:54Z</time>
      </trkpt>
      <trkpt lat="44.94078" lon="3.84745">
        <ele>1023.024</ele>
        <time>2011-05-30T09:42:04Z</time>
      </trkpt>
      <trkpt lat="44.94066" lon="3.84743">
        <ele>1023.81</ele>
        <time>2011-05-30T09:42:14Z</time>
      </trkpt>
      <trkpt lat="44.94055" lon="3.84741">
        <ele>1024.033</ele>
        <time>2011-05-30T09:42:24Z</time>
      </trkpt>
      <trkpt lat="44.94044" lon="3.84738">
        <ele>1024.984</ele>
        <time>2011-05-30T09:42:34Z</time>
      </trkpt>
      <trkpt lat="44.94032" lon="3.84735">
        <ele>1023.499</ele>
        <time>2011-05-30T09:42:44Z</time>
      </trkpt>
      <trkpt lat="44.94021" lon="3.84733">
        <ele>1025.134</ele>
        <time>2011-05-30T09:42:54Z</time>
      </trkpt>
      <trkpt lat="44.9401" lon="3.84731">
        <ele>1026.078</ele>
        <time>2011-05-30T09:43:04Z</time>
      </trkpt>
      <trkpt lat="44.93999" lon="3.84728">
        <ele>1023.494</ele>
        <time>2011-05-30T09:43:14Z</time>
      </trkpt>
      <trkpt lat="44.93987" lon="3.84725">
        <ele>1025.297</ele>
        <time>2011-05-30T09:43:24Z</time>
      </trkpt>
      <trkpt lat="44.93976" lon="3.84721">
        <ele>1025.636</ele>
        <time>2011-05-30T09:43:34Z</time>
      </trkpt>
      <trkpt lat="44.93965" lon="3.84719">
        <ele>1027.357</ele>
        <time>2011-05-30T09:43:44Z</time>
      </trkpt>
      <trkpt lat="44.93955" lon="3.84716">
        <ele>1025.233</ele>
        <time>2011-05-30T09:43:54Z</time>
      </trkpt>
      <trkpt lat="44.93944" lon="3.84713">
        <ele>1026.436</ele>
        <time>2011-05-30T09:44:04Z</time>
      </trkpt>
      <trkpt lat="44.93932" lon="3.8471">
        <ele>1025.519</ele>
        <time>2011-05-30T09:44:14Z</time>
      </trkpt>
      <trkpt lat="44.93921" lon="3.84706">
        <ele>1025.36</ele>
        <time>2011-05-30T09:44:24Z</time>
      </trkpt>
      <trkpt lat="44.9391" lon="3.84703">
        <ele>1026.139</ele>
        <time>2011-05-30T09:44:34Z</time>
      </trkpt>
      <trkpt lat="44.939" lon="3.84698">
        <ele>1026.26</ele>
        <time>2011-05-30T09:44:44Z</time>
      </trkpt>
      <trkpt lat="44.93888" lon="3.84695">
        <ele>1024.045</ele>
        <time>2011-05-30T09:44:54Z</time>
      </trkpt>
      <trkpt lat="44.93876" lon="3.8469">
        <ele>1027.401</ele>
        <time>2011-05-30T09:45:04Z</time>
      </trkpt>
      <trkpt lat="44.93864" lon="3.84685">
        <ele>1027.071</ele>
        <time>2011-05-30T09:45:14Z</time>
      </trkpt>
      <trkpt lat="44.93852" lon="3.84682">
        <ele>1025.672</ele>
        <time>2011-05-30T09:45:24Z</time>
      </trkpt>
      <trkpt lat="44.93842" lon="3.84679">
        <ele>1028.242</ele>
        <time>2011-05-30T09:45:34Z</time>
      </trkpt>
      <trkpt lat="44.93829" lon="3.84675">
        <ele>1026.884</ele>
        <time>2011-05-30T09:45:44Z</time>
      </trkpt>
      <trkpt lat="44.93825" lon="3.84674">
        <ele>1028.69</ele>
        <time>2011-05-30T09:45:54Z</time>
      </trkpt>
      <trkpt lat="44.93824" lon="3.84674">
        <ele>1028.071</ele>
        <time>2011-05-30T09:46:04Z</time>
      </trkpt>
      <trkpt lat="44.93824" lon="3.84674">
        <ele>1028.555</ele>
        <time>2011-05-30T09:46:14Z</time>
      </trkpt>
      <trkpt lat="44.93824" lon="3.84673">
        <ele>1028.602</ele>
        <time>2011-05-30T09:46:24Z</time>
      </trkpt>
      <trkpt lat="44.93824" lon="3.84673">
        <ele>1028.888</ele>
        <time>2011-05-30T09:46:34Z</time>
      </trkpt>
      <trkpt lat="44.93824" lon="3.84673">
        <ele>1028.313</ele>
        <time>2011-05-30T09:46:44Z</time>
      </trkpt>
      <trkpt lat="44.93822" lon="3.84673">
        <ele>1028.392</ele>
        <time>2011-05-30T09:46:54Z</time>
      </trkpt>
      <trkpt lat="44.9381" lon="3.8467">
        <ele>1028.234</ele>
        <time>2011-05-30T09:47:04Z</time>
      </trkpt>
      <trkpt lat="44.93801" lon="3.84666">
        <ele>1025.082</ele>
        <time>2011-05-30T09:47:14Z</time>
      </trkpt>
      <trkpt lat="44.93792" lon="3.84665">
        <ele>1027.949</ele>
        <time>2011-05-30T09:47:24Z</time>
      </trkpt>
      <trkpt lat="44.93785" lon="3.84668">
        <ele>1027.868</ele>
        <time>2011-05-30T09:47:34Z</time>
      </trkpt>
      <trkpt lat="44.93776" lon="3.84677">
        <ele>1026.922</ele>
        <time>2011-05-30T09:47:44Z</time>
      </trkpt>
      <trkpt lat="44.93764" lon="3.84683">
        <ele>1027.4</ele>
        <time>2011-05-30T09:47:54Z</time>
      </trkpt>
      <trkpt lat="44.93754" lon="3.84688">
        <ele>1026.683</ele>
        <time>2011-05-30T09:48:04Z</time>
      </trkpt>
      <trkpt lat="44.93742" lon="3.84692">
        <ele>1026.755</ele>
        <time>2011-05-30T09:48:14Z</time>
      </trkpt>
      <trkpt lat="44.93731" lon="3.84696">
        <ele>1026.815</ele>
        <time>2011-05-30T09:48:24Z</time>
      </trkpt>
      <trkpt lat="44.9372" lon="3.84699">
        <ele>1027.031</ele>
        <time>2011-05-30T09:48:34Z</time>
      </trkpt>
      <trkpt lat="44.93709" lon="3.84703">
        <ele>1027.49</ele>
        <time>2011-05-30T09:48:44Z</time>
      </trkpt>
      <trkpt lat="44.93696" lon="3.84705">
        <ele>1027.761</ele>
        <time>2011-05-30T09:48:54Z</time>
      </trkpt>
      <trkpt lat="44.93683" lon="3.84709">
        <ele>1026.724</ele>
        <time>2011-05-30T09:49:04Z</time>
      </trkpt>
      <trkpt lat="44.93672" lon="3.84712">
        <ele>1026.28</ele>
        <time>2011-05-30T09:49:14Z</time>
      </trkpt>
      <trkpt lat="44.9366" lon="3.84714">
        <ele>1025.8</ele>
        <time>2011-05-30T09:49:24Z</time>
      </trkpt>
      <trkpt lat="44.9365" lon="3.84716">
        <ele>1026.714</ele>
        <time>2011-05-30T09:49:34Z</time>
      </trkpt>
      <trkpt lat="44.93649" lon="3.84719">
        <ele>1026.103</ele>
        <time>2011-05-30T09:49:44Z</time>
      </trkpt>
      <trkpt lat="44.93649" lon="3.84717">
        <ele>1026.568</ele>
        <time>2011-05-30T09:49:54Z</time>
      </trkpt>
      <trkpt lat="44.93648" lon="3.84716">
        <ele>1026.582</ele>
        <time>2011-05-30T09:50:04Z</time>
      </trkpt>
      <trkpt lat="44.93637" lon="3.84714">
        <ele>1026.309</ele>
        <time>2011-05-30T09:50:14Z</time>
      </trkpt>
      <trkpt lat="44.93627" lon="3.84716">
        <ele>1027.567</ele>
        <time>2011-05-30T09:50:24Z</time>
      </trkpt>
      <trkpt lat="44.93616" lon="3.84715">
        <ele>1025.926</ele>
        <time>2011-05-30T09:50:34Z</time>
      </trkpt>
      <trkpt lat="44.93604" lon="3.84713">
        <ele>1026.537</ele>
        <time>2011-05-30T09:50:44Z</time>
      </trkpt>
      <trkpt lat="44.93592" lon="3.84711">
        <ele>1026.897</ele>
        <time>2011-05-30T09:50:54Z</time>
      </trkpt>
      <trkpt lat="44.9358" lon="3.84709">
        <ele>1026.489</ele>
        <time>2011-05-30T09:51:04Z</time>
      </trkpt>
      <trkpt lat="44.93569" lon="3.84706">
        <ele>1026.952</ele>
        <time>2011-05-30T09:51:14Z</time>
      </trkpt>
      <trkpt lat="44.93557" lon="3.84703">
        <ele>1027.414</ele>
        <time>2011-05-30T09:51:24Z</time>
      </trkpt>
      <trkpt lat="44.93548" lon="3.84702">
        <ele>1027.399</ele>
        <time>2011-05-30T09:51:34Z</time>
      </trkpt>
      <trkpt lat="44.93537" lon="3.84698">
        <ele>1028.588</ele>
        <time>2011-05-30T09:51:44Z</time>
      </trkpt>
      <trkpt lat="44.93527" lon="3.84696">
        <ele>1027.938</ele>
        <time>2011-05-30T09:51:54Z</time>
      </trkpt>
      <trkpt lat="44.93515" lon="3.84691">
        <ele>1028.043</ele>
        <time>2011-05-30T09:52:04Z</time>
      </trkpt>
      <trkpt lat="44.93504" lon="3.84686">
        <ele>1028.629</ele>
        <time>2011-05-30T09:52:14Z</time>
      </trkpt>
      <trkpt lat="44.93493" lon="3.8468">
        <ele>1027.504</ele>
        <time>2011-05-30T09:52:24Z</time>
      </trkpt>
      <trkpt lat="44.93483" lon="3.84674">
        <ele>1029.655</ele>
        <time>2011-05-30T09:52:34Z</time>
      </trkpt>
      <trkpt lat="44.93473" lon="3.84669">
        <ele>1026.856</ele>
        <time>2011-05-30T09:52:44Z</time>
      </trkpt>
      <trkpt lat="44.93463" lon="3.84662">
        <ele>1029.741</ele>
        <time>2011-05-30T09:52:54Z</time>
      </trkpt>
      <trkpt lat="44.93451" lon="3.84656">
        <ele>1030.23</ele>
        <time>2011-05-30T09:53:04Z</time>
      </trkpt>
      <trkpt lat="44.93442" lon="3.84652">
        <ele>1029.266</ele>
        <time>2011-05-30T09:53:14Z</time>
      </trkpt>
      <trkpt lat="44.93433" lon="3.8465">
        <ele>1028.508</ele>
        <time>2011-05-30T09:53:24Z</time>
      </trkpt>
      <trkpt lat="44.93424" lon="3.84647">
        <ele>1028.625</ele>
        <time>2011-05-30T09:53:34Z</time>
      </trkpt>
      <trkpt lat="44.93413" lon="3.84644">
        <ele>1028.748</ele>
        <time>2011-05-30T09:53:44Z</time>
      </trkpt>
      <trkpt lat="44.93402" lon="3.84641">
        <ele>1027.713</ele>
        <time>2011-05-30T09:53:54Z</time>
      </trkpt>
      <trkpt lat="44.93393" lon="3.84638">
        <ele>1028.325</ele>
        <time>2011-05-30T09:54:04Z</time>
      </trkpt>
      <trkpt lat="44.93383" lon="3.84636">
        <ele>1031.313</ele>
        <time>2011-05-30T09:54:14Z</time>
      </trkpt>
      <trkpt lat="44.93372" lon="3.84634">
        <ele>1028.439</ele>
        <time>2011-05-30T09:54:24Z</time>
      </trkpt>
      <trkpt lat="44.93361" lon="3.84631">
        <ele>1028.591</ele>
        <time>2011-05-30T09:54:34Z</time>
      </trkpt>
      <trkpt lat="44.93351" lon="3.84628">
        <ele>1028.093</ele>
        <time>2011-05-30T09:54:44Z</time>
      </trkpt>
      <trkpt lat="44.9334" lon="3.84627">
        <ele>1029.35</ele>
        <time>2011-05-30T09:54:54Z</time>
      </trkpt>
      <trkpt lat="44.93328" lon="3.84625">
        <ele>1027.818</ele>
        <time>2011-05-30T09:55:04Z</time>
      </trkpt>
      <trkpt lat="44.93317" lon="3.84623">
        <ele>1028.763</ele>
        <time>2011-05-30T09:55:14Z</time>
      </trkpt>
      <trkpt lat="44.93306" lon="3.8462">
        <ele>1030.452</ele>
        <time>2011-05-30T09:55:24Z</time>
      </trkpt>
      <trkpt lat="44.93294" lon="3.84616">
        <ele>1030.231</ele>
        <time>2011-05-30T09:55:34Z</time>
      </trkpt>
      <trkpt lat="44.93282" lon="3.84613">
        <ele>1030.148</ele>
        <time>2011-05-30T09:55:44Z</time>
      </trkpt>
      <trkpt lat="44.9327" lon="3.8461">
        <ele>1030.922</ele>
        <time>2011-05-30T09:55:54Z</time>
      </trkpt>
      <trkpt lat="44.93259" lon="3.84608">
        <ele>1031.128</ele>
        <time>2011-05-30T09:56:04Z</time>
      </trkpt>
      <trkpt lat="44.93248" lon="3.84606">
        <ele>1031.437</ele>
        <time>2011-05-30T09:56:14Z</time>
      </trkpt>
      <trkpt lat="44.93236" lon="3.84604">
        <ele>1031.627</ele>
        <time>2011-05-30T09:56:24Z</time>
      </trkpt>
      <trkpt lat="44.93225" lon="3.84603">
        <ele>1031.08</ele>
        <time>2011-05-30T09:56:34Z</time>
      </trkpt>
      <trkpt lat="44.93214" lon="3.84601">
        <ele>1030.616</ele>
        <time>2011-05-30T09:56:44Z</time>
      </trkpt>
      <trkpt lat="44.93203" lon="3.846">
        <ele>1030.536</ele>
        <time>2011-05-30T09:56:54Z</time>
      </trkpt>
      <trkpt lat="44.93193" lon="3.84598">
        <ele>1031.218</ele>
        <time>2011-05-30T09:57:04Z</time>
      </trkpt>
      <trkpt lat="44.93182" lon="3.84597">
        <ele>1030.793</ele>
        <time>2011-05-30T09:57:14Z</time>
      </trkpt>
      <trkpt lat="44.93171" lon="3.84594">
        <ele>1031.612</ele>
        <time>2011-05-30T09:57:24Z</time>
      </trkpt>
      <trkpt lat="44.9316" lon="3.8459">
        <ele>1031.556</ele>
        <time>2011-05-30T09:57:34Z</time>
      </trkpt>
      <trkpt lat="44.93149" lon="3.84588">
        <ele>1031.957</ele>
        <time>2011-05-30T09:57:44Z</time>
      </trkpt>
      <trkpt lat="44.93138" lon="3.84586">
        <ele>1031.71</ele>
        <time>2011-05-30T09:57:54Z</time>
      </trkpt>
      <trkpt lat="44.93127" lon="3.84585">
        <ele>1030.082</ele>
        <time>2011-05-30T09:58:04Z</time>
      </trkpt>
      <trkpt lat="44.93116" lon="3.84583">
        <ele>1029.61</ele>
        <time>2011-05-30T09:58:14Z</time>
      </trkpt>
      <trkpt lat="44.93105" lon="3.84581">
        <ele>1029.45</ele>
        <time>2011-05-30T09:58:24Z</time>
      </trkpt>
      <trkpt lat="44.93094" lon="3.84579">
        <ele>1028.43</ele>
        <time>2011-05-30T09:58:34Z</time>
      </trkpt>
      <trkpt lat="44.93082" lon="3.84576">
        <ele>1027.836</ele>
        <time>2011-05-30T09:58:44Z</time>
      </trkpt>
      <trkpt lat="44.93071" lon="3.84573">
        <ele>1028.545</ele>
        <time>2011-05-30T09:58:54Z</time>
      </trkpt>
      <trkpt lat="44.93062" lon="3.84571">
        <ele>1029.052</ele>
        <time>2011-05-30T09:59:04Z</time>
      </trkpt>
      <trkpt lat="44.93059" lon="3.84572">
        <ele>1029.05</ele>
        <time>2011-05-30T09:59:14Z</time>
      </trkpt>
      <trkpt lat="44.93049" lon="3.84569">
        <ele>1028.957</ele>
        <time>2011-05-30T09:59:24Z</time>
      </trkpt>
      <trkpt lat="44.93041" lon="3.84569">
        <ele>1029.76</ele>
        <time>2011-05-30T09:59:34Z</time>
      </trkpt>
      <trkpt lat="44.93029" lon="3.84566">
        <ele>1028.922</ele>
        <time>2011-05-30T09:59:44Z</time>
      </trkpt>
      <trkpt lat="44.93018" lon="3.84565">
        <ele>1028.774</ele>
        <time>2011-05-30T09:59:54Z</time>
      </trkpt>
      <trkpt lat="44.93008" lon="3.84563">
        <ele>1028.04</ele>
        <time>2011-05-30T10:00:04Z</time>
      </trkpt>
      <trkpt lat="44.92997" lon="3.84561">
        <ele>1025.051</ele>
        <time>2011-05-30T10:00:14Z</time>
      </trkpt>
      <trkpt lat="44.92986" lon="3.8456">
        <ele>1027.55</ele>
        <time>2011-05-30T10:00:24Z</time>
      </trkpt>
      <trkpt lat="44.92975" lon="3.84558">
        <ele>1025.355</ele>
        <time>2011-05-30T10:00:34Z</time>
      </trkpt>
      <trkpt lat="44.92964" lon="3.84556">
        <ele>1024.694</ele>
        <time>2011-05-30T10:00:44Z</time>
      </trkpt>
      <trkpt lat="44.92952" lon="3.84555">
        <ele>1023.772</ele>
        <time>2011-05-30T10:00:54Z</time>
      </trkpt>
      <trkpt lat="44.92941" lon="3.84553">
        <ele>1024.088</ele>
        <time>2011-05-30T10:01:04Z</time>
      </trkpt>
      <trkpt lat="44.92939" lon="3.84554">
        <ele>1025.561</ele>
        <time>2011-05-30T10:01:14Z</time>
      </trkpt>
      <trkpt lat="44.92932" lon="3.84559">
        <ele>1025.247</ele>
        <time>2011-05-30T10:01:24Z</time>
      </trkpt>
      <trkpt lat="44.92925" lon="3.84569">
        <ele>1024.14</ele>
        <time>2011-05-30T10:01:34Z</time>
      </trkpt>
      <trkpt lat="44.92918" lon="3.84582">
        <ele>1023.618</ele>
        <time>2011-05-30T10:01:44Z</time>
      </trkpt>
      <trkpt lat="44.92914" lon="3.84588">
        <ele>1024.047</ele>
        <time>2011-05-30T10:01:54Z</time>
      </trkpt>
      <trkpt lat="44.92907" lon="3.846">
        <ele>1023.715</ele>
        <time>2011-05-30T10:02:04Z</time>
      </trkpt>
      <trkpt lat="44.92901" lon="3.84613">
        <ele>1024.404</ele>
        <time>2011-05-30T10:02:14Z</time>
      </trkpt>
      <trkpt lat="44.92895" lon="3.84624">
        <ele>1024.192</ele>
        <time>2011-05-30T10:02:24Z</time>
      </trkpt>
      <trkpt lat="44.92889" lon="3.84638">
        <ele>1024.446</ele>
        <time>2011-05-30T10:02:34Z</time>
      </trkpt>
      <trkpt lat="44.92882" lon="3.84651">
        <ele>1024.43</ele>
        <time>2011-05-30T10:02:44Z</time>
      </trkpt>
      <trkpt lat="44.92875" lon="3.84665">
        <ele>1024.492</ele>
        <time>2011-05-30T10:02:54Z</time>
      </trkpt>
      <trkpt lat="44.92869" lon="3.84677">
        <ele>1024.615</ele>
        <time>2011-05-30T10:03:04Z</time>
      </trkpt>
      <trkpt lat="44.92862" lon="3.8469">
        <ele>1024.47</ele>
        <time>2011-05-30T10:03:14Z</time>
      </trkpt>
      <trkpt lat="44.92856" lon="3.84701">
        <ele>1024.283</ele>
        <time>2011-05-30T10:03:24Z</time>
      </trkpt>
      <trkpt lat="44.92849" lon="3.84713">
        <ele>1024.367</ele>
        <time>2011-05-30T10:03:34Z</time>
      </trkpt>
      <trkpt lat="44.92841" lon="3.84727">
        <ele>1022.813</ele>
        <time>2011-05-30T10:03:44Z</time>
      </trkpt>
      <trkpt lat="44.92834" lon="3.8474">
        <ele>1022.398</ele>
        <time>2011-05-30T10:03:54Z</time>
      </trkpt>
      <trkpt lat="44.92827" lon="3.84753">
        <ele>1022.574</ele>
        <time>2011-05-30T10:04:04Z</time>
      </trkpt>
      <trkpt lat="44.9282" lon="3.84764">
        <ele>1022.91</ele>
        <time>2011-05-30T10:04:14Z</time>
      </trkpt>
      <trkpt lat="44.92813" lon="3.84775">
        <ele>1023.447</ele>
        <time>2011-05-30T10:04:24Z</time>
      </trkpt>
      <trkpt lat="44.92806" lon="3.84787">
        <ele>1023.166</ele>
        <time>2011-05-30T10:04:34Z</time>
      </trkpt>
      <trkpt lat="44.92803" lon="3.84797">
        <ele>1023.567</ele>
        <time>2011-05-30T10:04:44Z</time>
      </trkpt>
      <trkpt lat="44.92797" lon="3.84806">
        <ele>1023.242</ele>
        <time>2011-05-30T10:04:54Z</time>
      </trkpt>
      <trkpt lat="44.92789" lon="3.84819">
        <ele>1023.526</ele>
        <time>2011-05-30T10:05:04Z</time>
      </trkpt>
      <trkpt lat="44.92782" lon="3.84831">
        <ele>1024.147</ele>
        <time>2011-05-30T10:05:14Z</time>
      </trkpt>
      <trkpt lat="44.92777" lon="3.84843">
        <ele>1023.821</ele>
        <time>2011-05-30T10:05:24Z</time>
      </trkpt>
      <trkpt lat="44.92774" lon="3.84859">
        <ele>1023.807</ele>
        <time>2011-05-30T10:05:34Z</time>
      </trkpt>
      <trkpt lat="44.92768" lon="3.84876">
        <ele>1023.41</ele>
        <time>2011-05-30T10:05:44Z</time>
      </trkpt>
      <trkpt lat="44.92767" lon="3.84893">
        <ele>1023.378</ele>
        <time>2011-05-30T10:05:54Z</time>
      </trkpt>
      <trkpt lat="44.92765" lon="3.84909">
        <ele>1022.997</ele>
        <time>2011-05-30T10:06:04Z</time>
      </trkpt>
      <trkpt lat="44.92765" lon="3.84926">
        <ele>1023.109</ele>
        <time>2011-05-30T10:06:14Z</time>
      </trkpt>
      <trkpt lat="44.92765" lon="3.84942">
        <ele>1023.087</ele>
        <time>2011-05-30T10:06:24Z</time>
      </trkpt>
      <trkpt lat="44.92764" lon="3.84959">
        <ele>1022.195</ele>
        <time>2011-05-30T10:06:34Z</time>
      </trkpt>
      <trkpt lat="44.9276" lon="3.84975">
        <ele>1022.317</ele>
        <time>2011-05-30T10:06:44Z</time>
      </trkpt>
      <trkpt lat="44.92755" lon="3.8499">
        <ele>1021.99</ele>
        <time>2011-05-30T10:06:54Z</time>
      </trkpt>
      <trkpt lat="44.92748" lon="3.85007">
        <ele>1021.279</ele>
        <time>2011-05-30T10:07:04Z</time>
      </trkpt>
      <trkpt lat="44.92742" lon="3.85021">
        <ele>1021.063</ele>
        <time>2011-05-30T10:07:14Z</time>
      </trkpt>
      <trkpt lat="44.92735" lon="3.85035">
        <ele>1020.553</ele>
        <time>2011-05-30T10:07:24Z</time>
      </trkpt>
      <trkpt lat="44.92728" lon="3.85049">
        <ele>1020.763</ele>
        <time>2011-05-30T10:07:34Z</time>
      </trkpt>
      <trkpt lat="44.92723" lon="3.85066">
        <ele>1020.57</ele>
        <time>2011-05-30T10:07:44Z</time>
      </trkpt>
      <trkpt lat="44.92717" lon="3.85082">
        <ele>1019.166</ele>
        <time>2011-05-30T10:07:54Z</time>
      </trkpt>
      <trkpt lat="44.92711" lon="3.85098">
        <ele>1018.977</ele>
        <time>2011-05-30T10:08:04Z</time>
      </trkpt>
      <trkpt lat="44.92705" lon="3.85112">
        <ele>1016.318</ele>
        <time>2011-05-30T10:08:14Z</time>
      </trkpt>
      <trkpt lat="44.92699" lon="3.85128">
        <ele>1017.02</ele>
        <time>2011-05-30T10:08:24Z</time>
      </trkpt>
      <trkpt lat="44.92696" lon="3.85141">
        <ele>1016.522</ele>
        <time>2011-05-30T10:08:34Z</time>
      </trkpt>
      <trkpt lat="44.92691" lon="3.85158">
        <ele>1015.226</ele>
        <time>2011-05-30T10:08:44Z</time>
      </trkpt>
      <trkpt lat="44.92687" lon="3.85171">
        <ele>1014.977</ele>
        <time>2011-05-30T10:08:54Z</time>
      </trkpt>
      <trkpt lat="44.92682" lon="3.85192">
        <ele>1014.2</ele>
        <time>2011-05-30T10:09:04Z</time>
      </trkpt>
      <trkpt lat="44.9268" lon="3.85207">
        <ele>1013.397</ele>
        <time>2011-05-30T10:09:14Z</time>
      </trkpt>
      <trkpt lat="44.92676" lon="3.85226">
        <ele>1012.768</ele>
        <time>2011-05-30T10:09:24Z</time>
      </trkpt>
      <trkpt lat="44.92671" lon="3.85246">
        <ele>1012.241</ele>
        <time>2011-05-30T10:09:34Z</time>
      </trkpt>
      <trkpt lat="44.92665" lon="3.85263">
        <ele>1012.135</ele>
        <time>2011-05-30T10:09:44Z</time>
      </trkpt>
      <trkpt lat="44.92661" lon="3.85281">
        <ele>1011.043</ele>
        <time>2011-05-30T10:09:54Z</time>
      </trkpt>
      <trkpt lat="44.92658" lon="3.85297">
        <ele>1010.727</ele>
        <time>2011-05-30T10:10:04Z</time>
      </trkpt>
      <trkpt lat="44.92653" lon="3.85311">
        <ele>1009.817</ele>
        <time>2011-05-30T10:10:14Z</time>
      </trkpt>
      <trkpt lat="44.92644" lon="3.85318">
        <ele>1010.987</ele>
        <time>2011-05-30T10:10:24Z</time>
      </trkpt>
      <trkpt lat="44.92633" lon="3.85324">
        <ele>1010.046</ele>
        <time>2011-05-30T10:10:34Z</time>
      </trkpt>
      <trkpt lat="44.92621" lon="3.85336">
        <ele>1008.762</ele>
        <time>2011-05-30T10:10:44Z</time>
      </trkpt>
      <trkpt lat="44.92613" lon="3.85345">
        <ele>1007.449</ele>
        <time>2011-05-30T10:10:54Z</time>
      </trkpt>
      <trkpt lat="44.92605" lon="3.85353">
        <ele>1007.508</ele>
        <time>2011-05-30T10:11:04Z</time>
      </trkpt>
      <trkpt lat="44.92595" lon="3.85361">
        <ele>1007.558</ele>
        <time>2011-05-30T10:11:14Z</time>
      </trkpt>
      <trkpt lat="44.92586" lon="3.85364">
        <ele>1006.424</ele>
        <time>2011-05-30T10:11:24Z</time>
      </trkpt>
      <trkpt lat="44.92578" lon="3.85372">
        <ele>1005.758</ele>
        <time>2011-05-30T10:11:34Z</time>
      </trkpt>
      <trkpt lat="44.92572" lon="3.8538">
        <ele>1005.239</ele>
        <time>2011-05-30T10:11:44Z</time>
      </trkpt>
      <trkpt lat="44.92572" lon="3.8539">
        <ele>1005.205</ele>
        <time>2011-05-30T10:11:54Z</time>
      </trkpt>
      <trkpt lat="44.92569" lon="3.85403">
        <ele>1003.737</ele>
        <time>2011-05-30T10:12:04Z</time>
      </trkpt>
      <trkpt lat="44.92568" lon="3.85418">
        <ele>1002.989</ele>
        <time>2011-05-30T10:12:14Z</time>
      </trkpt>
      <trkpt lat="44.92564" lon="3.85427">
        <ele>1002.947</ele>
        <time>2011-05-30T10:12:24Z</time>
      </trkpt>
      <trkpt lat="44.92559" lon="3.85435">
        <ele>1001.498</ele>
        <time>2011-05-30T10:12:34Z</time>
      </trkpt>
      <trkpt lat="44.92553" lon="3.85448">
        <ele>1000.263</ele>
        <time>2011-05-30T10:12:44Z</time>
      </trkpt>
      <trkpt lat="44.92549" lon="3.85464">
        <ele>999.867</ele>
        <time>2011-05-30T10:12:54Z</time>
      </trkpt>
      <trkpt lat="44.9254" lon="3.85475">
        <ele>1000.11</ele>
        <time>2011-05-30T10:13:04Z</time>
      </trkpt>
      <trkpt lat="44.92533" lon="3.85486">
        <ele>999.901</ele>
        <time>2011-05-30T10:13:14Z</time>
      </trkpt>
      <trkpt lat="44.92528" lon="3.85498">
        <ele>999.469</ele>
        <time>2011-05-30T10:13:24Z</time>
      </trkpt>
      <trkpt lat="44.92525" lon="3.85506">
        <ele>999.776</ele>
        <time>2011-05-30T10:13:34Z</time>
      </trkpt>
      <trkpt lat="44.92524" lon="3.85504">
        <ele>999.261</ele>
        <time>2011-05-30T10:13:44Z</time>
      </trkpt>
      <trkpt lat="44.92524" lon="3.85508">
        <ele>998.83</ele>
        <time>2011-05-30T10:13:54Z</time>
      </trkpt>
      <trkpt lat="44.92523" lon="3.85524">
        <ele>998.126</ele>
        <time>2011-05-30T10:14:04Z</time>
      </trkpt>
      <trkpt lat="44.92522" lon="3.85538">
        <ele>997.329</ele>
        <time>2011-05-30T10:14:14Z</time>
      </trkpt>
      <trkpt lat="44.92522" lon="3.85552">
        <ele>995.492</ele>
        <time>2011-05-30T10:14:24Z</time>
      </trkpt>
      <trkpt lat="44.92515" lon="3.85562">
        <ele>994.622</ele>
        <time>2011-05-30T10:14:34Z</time>
      </trkpt>
      <trkpt lat="44.92507" lon="3.85571">
        <ele>992.548</ele>
        <time>2011-05-30T10:14:44Z</time>
      </trkpt>
      <trkpt lat="44.92499" lon="3.85582">
        <ele>991.101</ele>
        <time>2011-05-30T10:14:54Z</time>
      </trkpt>
      <trkpt lat="44.92488" lon="3.85586">
        <ele>989.936</ele>
        <time>2011-05-30T10:15:04Z</time>
      </trkpt>
      <trkpt lat="44.92477" lon="3.85587">
        <ele>990.654</ele>
        <time>2011-05-30T10:15:14Z</time>
      </trkpt>
      <trkpt lat="44.92468" lon="3.85582">
        <ele>988.703</ele>
        <time>2011-05-30T10:15:24Z</time>
      </trkpt>
      <trkpt lat="44.92458" lon="3.85574">
        <ele>988.821</ele>
        <time>2011-05-30T10:15:34Z</time>
      </trkpt>
      <trkpt lat="44.9245" lon="3.85566">
        <ele>986.89</ele>
        <time>2011-05-30T10:15:44Z</time>
      </trkpt>
      <trkpt lat="44.92443" lon="3.85555">
        <ele>986.173</ele>
        <time>2011-05-30T10:15:54Z</time>
      </trkpt>
      <trkpt lat="44.92436" lon="3.85542">
        <ele>985.603</ele>
        <time>2011-05-30T10:16:04Z</time>
      </trkpt>
      <trkpt lat="44.92432" lon="3.85535">
        <ele>985.405</ele>
        <time>2011-05-30T10:16:14Z</time>
      </trkpt>
      <trkpt lat="44.92423" lon="3.85525">
        <ele>983.457</ele>
        <time>2011-05-30T10:16:24Z</time>
      </trkpt>
      <trkpt lat="44.92414" lon="3.85519">
        <ele>984.51</ele>
        <time>2011-05-30T10:16:34Z</time>
      </trkpt>
      <trkpt lat="44.92406" lon="3.85515">
        <ele>983.685</ele>
        <time>2011-05-30T10:16:44Z</time>
      </trkpt>
      <trkpt lat="44.92394" lon="3.8551">
        <ele>982.469</ele>
        <time>2011-05-30T10:16:54Z</time>
      </trkpt>
      <trkpt lat="44.92383" lon="3.85503">
        <ele>982.258</ele>
        <time>2011-05-30T10:17:04Z</time>
      </trkpt>
      <trkpt lat="44.92372" lon="3.85496">
        <ele>981.479</ele>
        <time>2011-05-30T10:17:14Z</time>
      </trkpt>
      <trkpt lat="44.92361" lon="3.85489">
        <ele>981.725</ele>
        <time>2011-05-30T10:17:24Z</time>
      </trkpt>
      <trkpt lat="44.9235" lon="3.85488">
        <ele>980.925</ele>
        <time>2011-05-30T10:17:34Z</time>
      </trkpt>
      <trkpt lat="44.92341" lon="3.85486">
        <ele>980.888</ele>
        <time>2011-05-30T10:17:44Z</time>
      </trkpt>
      <trkpt lat="44.92338" lon="3.85486">
        <ele>981.202</ele>
        <time>2011-05-30T10:17:54Z</time>
      </trkpt>
      <trkpt lat="44.92331" lon="3.85482">
        <ele>980.845</ele>
        <time>2011-05-30T10:18:04Z</time>
      </trkpt>
      <trkpt lat="44.92322" lon="3.85481">
        <ele>981.227</ele>
        <time>2011-05-30T10:18:14Z</time>
      </trkpt>
      <trkpt lat="44.92315" lon="3.85477">
        <ele>982.4</ele>
        <time>2011-05-30T10:18:24Z</time>
      </trkpt>
      <trkpt lat="44.92303" lon="3.85474">
        <ele>983.315</ele>
        <time>2011-05-30T10:18:34Z</time>
      </trkpt>
      <trkpt lat="44.92294" lon="3.8547">
        <ele>983.946</ele>
        <time>2011-05-30T10:18:44Z</time>
      </trkpt>
      <trkpt lat="44.92286" lon="3.85469">
        <ele>986.056</ele>
        <time>2011-05-30T10:18:54Z</time>
      </trkpt>
      <trkpt lat="44.92278" lon="3.8547">
        <ele>985.7</ele>
        <time>2011-05-30T10:19:04Z</time>
      </trkpt>
      <trkpt lat="44.92271" lon="3.85467">
        <ele>988.26</ele>
        <time>2011-05-30T10:19:14Z</time>
      </trkpt>
      <trkpt lat="44.92264" lon="3.85465">
        <ele>988.413</ele>
        <time>2011-05-30T10:19:24Z</time>
      </trkpt>
      <trkpt lat="44.92259" lon="3.85461">
        <ele>988.571</ele>
        <time>2011-05-30T10:19:34Z</time>
      </trkpt>
      <trkpt lat="44.92257" lon="3.85468">
        <ele>989.401</ele>
        <time>2011-05-30T10:19:44Z</time>
      </trkpt>
      <trkpt lat="44.92261" lon="3.85477">
        <ele>990.811</ele>
        <time>2011-05-30T10:19:54Z</time>
      </trkpt>
      <trkpt lat="44.92269" lon="3.85476">
        <ele>990.816</ele>
        <time>2011-05-30T10:20:04Z</time>
      </trkpt>
      <trkpt lat="44.92271" lon="3.85481">
        <ele>990.453</ele>
        <time>2011-05-30T10:20:14Z</time>
      </trkpt>
      <trkpt lat="44.92268" lon="3.85492">
        <ele>990.654</ele>
        <time>2011-05-30T10:20:24Z</time>
      </trkpt>
      <trkpt lat="44.9227" lon="3.85491">
        <ele>990.228</ele>
        <time>2011-05-30T10:20:34Z</time>
      </trkpt>
      <trkpt lat="44.9227" lon="3.8549">
        <ele>990.331</ele>
        <time>2011-05-30T10:20:44Z</time>
      </trkpt>
      <trkpt lat="44.9227" lon="3.8549">
        <ele>989.791</ele>
        <time>2011-05-30T10:20:54Z</time>
      </trkpt>
      <trkpt lat="44.9227" lon="3.8549">
        <ele>990.948</ele>
        <time>2011-05-30T10:21:04Z</time>
      </trkpt>
      <trkpt lat="44.92269" lon="3.8549">
        <ele>989.866</ele>
        <time>2011-05-30T10:21:14Z</time>
      </trkpt>
      <trkpt lat="44.9227" lon="3.85492">
        <ele>990.041</ele>
        <time>2011-05-30T10:21:24Z</time>
      </trkpt>
      <trkpt lat="44.9227" lon="3.85492">
        <ele>990.107</ele>
        <time>2011-05-30T10:21:34Z</time>
      </trkpt>
      <trkpt lat="44.9227" lon="3.85492">
        <ele>989.739</ele>
        <time>2011-05-30T10:21:44Z</time>
      </trkpt>
      <trkpt lat="44.9227" lon="3.85492">
        <ele>989.301</ele>
        <time>2011-05-30T10:21:54Z</time>
      </trkpt>
      <trkpt lat="44.9227" lon="3.85492">
        <ele>989.685</ele>
        <time>2011-05-30T10:22:04Z</time>
      </trkpt>
      <trkpt lat="44.9227" lon="3.85492">
        <ele>989.707</ele>
        <time>2011-05-30T10:22:14Z</time>
      </trkpt>
      <trkpt lat="44.9227" lon="3.85495">
        <ele>989.215</ele>
        <time>2011-05-30T10:22:24Z</time>
      </trkpt>
      <trkpt lat="44.92273" lon="3.85496">
        <ele>988.837</ele>
        <time>2011-05-30T10:22:34Z</time>
      </trkpt>
      <trkpt lat="44.92273" lon="3.85497">
        <ele>989.439</ele>
        <time>2011-05-30T10:22:44Z</time>
      </trkpt>
      <trkpt lat="44.92272" lon="3.85498">
        <ele>989.249</ele>
        <time>2011-05-30T10:22:54Z</time>
      </trkpt>
      <trkpt lat="44.92272" lon="3.85498">
        <ele>989.491</ele>
        <time>2011-05-30T10:23:04Z</time>
      </trkpt>
      <trkpt lat="44.92273" lon="3.85499">
        <ele>989.272</ele>
        <time>2011-05-30T10:23:14Z</time>
      </trkpt>
      <trkpt lat="44.92272" lon="3.85499">
        <ele>988.915</ele>
        <time>2011-05-30T10:23:24Z</time>
      </trkpt>
      <trkpt lat="44.92272" lon="3.85499">
        <ele>988.848</ele>
        <time>2011-05-30T10:23:34Z</time>
      </trkpt>
      <trkpt lat="44.92277" lon="3.85502">
        <ele>988.975</ele>
        <time>2011-05-30T10:23:44Z</time>
      </trkpt>
      <trkpt lat="44.92278" lon="3.85505">
        <ele>988.657</ele>
        <time>2011-05-30T10:23:54Z</time>
      </trkpt>
      <trkpt lat="44.92279" lon="3.85505">
        <ele>988.719</ele>
        <time>2011-05-30T10:24:04Z</time>
      </trkpt>
      <trkpt lat="44.92279" lon="3.85505">
        <ele>988.565</ele>
        <time>2011-05-30T10:24:14Z</time>
      </trkpt>
      <trkpt lat="44.92279" lon="3.85505">
        <ele>988.003</ele>
        <time>2011-05-30T10:24:24Z</time>
      </trkpt>
      <trkpt lat="44.92279" lon="3.85505">
        <ele>988.311</ele>
        <time>2011-05-30T10:24:34Z</time>
      </trkpt>
      <trkpt lat="44.9228" lon="3.85504">
        <ele>988.514</ele>
        <time>2011-05-30T10:24:44Z</time>
      </trkpt>
      <trkpt lat="44.92279" lon="3.85505">
        <ele>987.903</ele>
        <time>2011-05-30T10:24:54Z</time>
      </trkpt>
      <trkpt lat="44.92279" lon="3.85504">
        <ele>987.939</ele>
        <time>2011-05-30T10:25:04Z</time>
      </trkpt>
      <trkpt lat="44.92279" lon="3.85504">
        <ele>988.17</ele>
        <time>2011-05-30T10:25:14Z</time>
      </trkpt>
      <trkpt lat="44.92279" lon="3.85504">
        <ele>987.534</ele>
        <time>2011-05-30T10:25:24Z</time>
      </trkpt>
      <trkpt lat="44.92279" lon="3.85504">
        <ele>988.37</ele>
        <time>2011-05-30T10:25:34Z</time>
      </trkpt>
      <trkpt lat="44.92279" lon="3.85504">
        <ele>988.122</ele>
        <time>2011-05-30T10:25:44Z</time>
      </trkpt>
      <trkpt lat="44.92279" lon="3.85504">
        <ele>988.229</ele>
        <time>2011-05-30T10:25:54Z</time>
      </trkpt>
      <trkpt lat="44.92279" lon="3.85504">
        <ele>987.75</ele>
        <time>2011-05-30T10:26:04Z</time>
      </trkpt>
      <trkpt lat="44.92279" lon="3.85504">
        <ele>988.268</ele>
        <time>2011-05-30T10:26:14Z</time>
      </trkpt>
      <trkpt lat="44.92279" lon="3.85504">
        <ele>987.791</ele>
        <time>2011-05-30T10:26:24Z</time>
      </trkpt>
      <trkpt lat="44.92279" lon="3.85504">
        <ele>987.934</ele>
        <time>2011-05-30T10:26:34Z</time>
      </trkpt>
      <trkpt lat="44.92279" lon="3.85504">
        <ele>987.451</ele>
        <time>2011-05-30T10:26:44Z</time>
      </trkpt>
      <trkpt lat="44.92279" lon="3.85504">
        <ele>987.622</ele>
        <time>2011-05-30T10:26:54Z</time>
      </trkpt>
      <trkpt lat="44.92279" lon="3.85504">
        <ele>987.859</ele>
        <time>2011-05-30T10:27:04Z</time>
      </trkpt>
      <trkpt lat="44.92279" lon="3.85504">
        <ele>988.368</ele>
        <time>2011-05-30T10:27:14Z</time>
      </trkpt>
      <trkpt lat="44.92279" lon="3.85504">
        <ele>987.773</ele>
        <time>2011-05-30T10:27:24Z</time>
      </trkpt>
      <trkpt lat="44.92279" lon="3.85504">
        <ele>987.835</ele>
        <time>2011-05-30T10:27:34Z</time>
      </trkpt>
      <trkpt lat="44.92279" lon="3.85504">
        <ele>987.352</ele>
        <time>2011-05-30T10:27:44Z</time>
      </trkpt>
      <trkpt lat="44.92279" lon="3.85504">
        <ele>988</ele>
        <time>2011-05-30T10:27:54Z</time>
      </trkpt>
      <trkpt lat="44.92279" lon="3.85504">
        <ele>987.338</ele>
        <time>2011-05-30T10:28:04Z</time>
      </trkpt>
      <trkpt lat="44.92279" lon="3.85504">
        <ele>987.507</ele>
        <time>2011-05-30T10:28:14Z</time>
      </trkpt>
      <trkpt lat="44.92279" lon="3.85504">
        <ele>987.595</ele>
        <time>2011-05-30T10:28:24Z</time>
      </trkpt>
      <trkpt lat="44.92279" lon="3.85504">
        <ele>987.528</ele>
        <time>2011-05-30T10:28:34Z</time>
      </trkpt>
      <trkpt lat="44.92279" lon="3.85504">
        <ele>987.683</ele>
        <time>2011-05-30T10:28:44Z</time>
      </trkpt>
      <trkpt lat="44.92279" lon="3.85504">
        <ele>987.236</ele>
        <time>2011-05-30T10:28:54Z</time>
      </trkpt>
      <trkpt lat="44.92279" lon="3.85504">
        <ele>987.421</ele>
        <time>2011-05-30T10:29:04Z</time>
      </trkpt>
      <trkpt lat="44.92279" lon="3.85504">
        <ele>987.44</ele>
        <time>2011-05-30T10:29:14Z</time>
      </trkpt>
      <trkpt lat="44.92279" lon="3.85504">
        <ele>987.788</ele>
        <time>2011-05-30T10:29:24Z</time>
      </trkpt>
      <trkpt lat="44.92279" lon="3.85504">
        <ele>987.629</ele>
        <time>2011-05-30T10:29:34Z</time>
      </trkpt>
      <trkpt lat="44.92279" lon="3.85504">
        <ele>987.183</ele>
        <time>2011-05-30T10:29:44Z</time>
      </trkpt>
      <trkpt lat="44.92279" lon="3.85504">
        <ele>987.593</ele>
        <time>2011-05-30T10:29:54Z</time>
      </trkpt>
      <trkpt lat="44.92279" lon="3.85504">
        <ele>987.924</ele>
        <time>2011-05-30T10:30:04Z</time>
      </trkpt>
      <trkpt lat="44.92279" lon="3.85504">
        <ele>987.51</ele>
        <time>2011-05-30T10:30:14Z</time>
      </trkpt>
      <trkpt lat="44.92279" lon="3.85504">
        <ele>987.42</ele>
        <time>2011-05-30T10:30:24Z</time>
      </trkpt>
      <trkpt lat="44.92279" lon="3.85504">
        <ele>987.239</ele>
        <time>2011-05-30T10:30:34Z</time>
      </trkpt>
      <trkpt lat="44.92279" lon="3.85504">
        <ele>987.571</ele>
        <time>2011-05-30T10:30:44Z</time>
      </trkpt>
      <trkpt lat="44.92279" lon="3.85504">
        <ele>987.127</ele>
        <time>2011-05-30T10:30:54Z</time>
      </trkpt>
      <trkpt lat="44.92279" lon="3.85504">
        <ele>987.208</ele>
        <time>2011-05-30T10:31:04Z</time>
      </trkpt>
      <trkpt lat="44.92279" lon="3.85504">
        <ele>987.725</ele>
        <time>2011-05-30T10:31:14Z</time>
      </trkpt>
      <trkpt lat="44.92279" lon="3.85504">
        <ele>987.233</ele>
        <time>2011-05-30T10:31:24Z</time>
      </trkpt>
      <trkpt lat="44.92279" lon="3.85504">
        <ele>986.896</ele>
        <time>2011-05-30T10:31:34Z</time>
      </trkpt>
      <trkpt lat="44.92279" lon="3.85504">
        <ele>987.545</ele>
        <time>2011-05-30T10:31:44Z</time>
      </trkpt>
      <trkpt lat="44.92279" lon="3.85504">
        <ele>987.579</ele>
        <time>2011-05-30T10:31:54Z</time>
      </trkpt>
      <trkpt lat="44.92279" lon="3.85504">
        <ele>987.815</ele>
        <time>2011-05-30T10:32:04Z</time>
      </trkpt>
      <trkpt lat="44.92279" lon="3.85504">
        <ele>987.558</ele>
        <time>2011-05-30T10:32:14Z</time>
      </trkpt>
      <trkpt lat="44.9228" lon="3.85504">
        <ele>987.896</ele>
        <time>2011-05-30T10:32:24Z</time>
      </trkpt>
      <trkpt lat="44.9228" lon="3.85504">
        <ele>988.249</ele>
        <time>2011-05-30T10:32:34Z</time>
      </trkpt>
      <trkpt lat="44.9228" lon="3.85504">
        <ele>988.002</ele>
        <time>2011-05-30T10:32:44Z</time>
      </trkpt>
      <trkpt lat="44.9228" lon="3.85504">
        <ele>988.364</ele>
        <time>2011-05-30T10:32:54Z</time>
      </trkpt>
      <trkpt lat="44.9228" lon="3.85504">
        <ele>988.323</ele>
        <time>2011-05-30T10:33:04Z</time>
      </trkpt>
      <trkpt lat="44.9228" lon="3.85504">
        <ele>988.367</ele>
        <time>2011-05-30T10:33:14Z</time>
      </trkpt>
      <trkpt lat="44.9228" lon="3.85504">
        <ele>988.281</ele>
        <time>2011-05-30T10:33:24Z</time>
      </trkpt>
      <trkpt lat="44.9228" lon="3.85504">
        <ele>988.128</ele>
        <time>2011-05-30T10:33:34Z</time>
      </trkpt>
      <trkpt lat="44.9228" lon="3.85504">
        <ele>988.395</ele>
        <time>2011-05-30T10:33:44Z</time>
      </trkpt>
      <trkpt lat="44.9228" lon="3.85504">
        <ele>988.275</ele>
        <time>2011-05-30T10:33:54Z</time>
      </trkpt>
      <trkpt lat="44.9228" lon="3.85504">
        <ele>987.632</ele>
        <time>2011-05-30T10:34:04Z</time>
      </trkpt>
      <trkpt lat="44.9228" lon="3.85504">
        <ele>988.146</ele>
        <time>2011-05-30T10:34:14Z</time>
      </trkpt>
      <trkpt lat="44.9228" lon="3.85504">
        <ele>988.272</ele>
        <time>2011-05-30T10:34:24Z</time>
      </trkpt>
      <trkpt lat="44.9228" lon="3.85504">
        <ele>988.11</ele>
        <time>2011-05-30T10:34:34Z</time>
      </trkpt>
      <trkpt lat="44.9228" lon="3.85505">
        <ele>988.347</ele>
        <time>2011-05-30T10:34:44Z</time>
      </trkpt>
      <trkpt lat="44.9228" lon="3.85505">
        <ele>988.398</ele>
        <time>2011-05-30T10:34:54Z</time>
      </trkpt>
      <trkpt lat="44.9228" lon="3.85505">
        <ele>988.226</ele>
        <time>2011-05-30T10:35:04Z</time>
      </trkpt>
      <trkpt lat="44.9228" lon="3.85505">
        <ele>988.71</ele>
        <time>2011-05-30T10:35:14Z</time>
      </trkpt>
      <trkpt lat="44.9228" lon="3.85505">
        <ele>988.302</ele>
        <time>2011-05-30T10:35:24Z</time>
      </trkpt>
      <trkpt lat="44.9228" lon="3.85505">
        <ele>988.737</ele>
        <time>2011-05-30T10:35:34Z</time>
      </trkpt>
      <trkpt lat="44.9228" lon="3.85505">
        <ele>988.725</ele>
        <time>2011-05-30T10:35:44Z</time>
      </trkpt>
      <trkpt lat="44.9228" lon="3.85505">
        <ele>988.79</ele>
        <time>2011-05-30T10:35:54Z</time>
      </trkpt>
      <trkpt lat="44.9228" lon="3.85505">
        <ele>988.1</ele>
        <time>2011-05-30T10:36:04Z</time>
      </trkpt>
      <trkpt lat="44.9228" lon="3.85505">
        <ele>988.205</ele>
        <time>2011-05-30T10:36:14Z</time>
      </trkpt>
      <trkpt lat="44.9228" lon="3.85505">
        <ele>988.378</ele>
        <time>2011-05-30T10:36:24Z</time>
      </trkpt>
      <trkpt lat="44.9228" lon="3.85505">
        <ele>988.329</ele>
        <time>2011-05-30T10:36:34Z</time>
      </trkpt>
      <trkpt lat="44.9228" lon="3.85505">
        <ele>988.244</ele>
        <time>2011-05-30T10:36:44Z</time>
      </trkpt>
      <trkpt lat="44.9228" lon="3.85505">
        <ele>988.154</ele>
        <time>2011-05-30T10:36:54Z</time>
      </trkpt>
      <trkpt lat="44.9228" lon="3.85505">
        <ele>988.769</ele>
        <time>2011-05-30T10:37:04Z</time>
      </trkpt>
      <trkpt lat="44.9228" lon="3.85505">
        <ele>988.55</ele>
        <time>2011-05-30T10:37:14Z</time>
      </trkpt>
      <trkpt lat="44.9228" lon="3.85505">
        <ele>988.237</ele>
        <time>2011-05-30T10:37:24Z</time>
      </trkpt>
      <trkpt lat="44.9228" lon="3.85505">
        <ele>988.199</ele>
        <time>2011-05-30T10:37:34Z</time>
      </trkpt>
      <trkpt lat="44.9228" lon="3.85505">
        <ele>988.109</ele>
        <time>2011-05-30T10:37:44Z</time>
      </trkpt>
      <trkpt lat="44.9228" lon="3.85505">
        <ele>988.354</ele>
        <time>2011-05-30T10:37:54Z</time>
      </trkpt>
      <trkpt lat="44.9228" lon="3.85505">
        <ele>988.154</ele>
        <time>2011-05-30T10:38:04Z</time>
      </trkpt>
      <trkpt lat="44.9228" lon="3.85505">
        <ele>988.134</ele>
        <time>2011-05-30T10:38:14Z</time>
      </trkpt>
      <trkpt lat="44.9228" lon="3.85505">
        <ele>988.04</ele>
        <time>2011-05-30T10:38:24Z</time>
      </trkpt>
      <trkpt lat="44.9228" lon="3.85505">
        <ele>987.575</ele>
        <time>2011-05-30T10:38:34Z</time>
      </trkpt>
      <trkpt lat="44.9228" lon="3.85505">
        <ele>988.12</ele>
        <time>2011-05-30T10:38:44Z</time>
      </trkpt>
      <trkpt lat="44.9228" lon="3.85505">
        <ele>987.929</ele>
        <time>2011-05-30T10:38:54Z</time>
      </trkpt>
      <trkpt lat="44.9228" lon="3.85505">
        <ele>988.242</ele>
        <time>2011-05-30T10:39:04Z</time>
      </trkpt>
      <trkpt lat="44.9228" lon="3.85505">
        <ele>987.749</ele>
        <time>2011-05-30T10:39:14Z</time>
      </trkpt>
      <trkpt lat="44.9228" lon="3.85505">
        <ele>987.644</ele>
        <time>2011-05-30T10:39:24Z</time>
      </trkpt>
      <trkpt lat="44.9228" lon="3.85505">
        <ele>987.467</ele>
        <time>2011-05-30T10:39:34Z</time>
      </trkpt>
      <trkpt lat="44.9228" lon="3.85505">
        <ele>987.518</ele>
        <time>2011-05-30T10:39:44Z</time>
      </trkpt>
      <trkpt lat="44.9228" lon="3.85505">
        <ele>987.552</ele>
        <time>2011-05-30T10:39:54Z</time>
      </trkpt>
      <trkpt lat="44.9228" lon="3.85505">
        <ele>987.415</ele>
        <time>2011-05-30T10:40:04Z</time>
      </trkpt>
      <trkpt lat="44.9228" lon="3.85505">
        <ele>987.561</ele>
        <time>2011-05-30T10:40:14Z</time>
      </trkpt>
      <trkpt lat="44.9228" lon="3.85505">
        <ele>987.298</ele>
        <time>2011-05-30T10:40:24Z</time>
      </trkpt>
      <trkpt lat="44.9228" lon="3.85505">
        <ele>987.785</ele>
        <time>2011-05-30T10:40:34Z</time>
      </trkpt>
      <trkpt lat="44.9228" lon="3.85505">
        <ele>987.589</ele>
        <time>2011-05-30T10:40:44Z</time>
      </trkpt>
      <trkpt lat="44.9228" lon="3.85505">
        <ele>987.816</ele>
        <time>2011-05-30T10:40:54Z</time>
      </trkpt>
      <trkpt lat="44.9228" lon="3.85505">
        <ele>987.273</ele>
        <time>2011-05-30T10:41:04Z</time>
      </trkpt>
      <trkpt lat="44.9228" lon="3.85505">
        <ele>987.904</ele>
        <time>2011-05-30T10:41:14Z</time>
      </trkpt>
      <trkpt lat="44.9228" lon="3.85505">
        <ele>988.42</ele>
        <time>2011-05-30T10:41:24Z</time>
      </trkpt>
      <trkpt lat="44.9228" lon="3.85505">
        <ele>987.893</ele>
        <time>2011-05-30T10:41:34Z</time>
      </trkpt>
      <trkpt lat="44.9228" lon="3.85505">
        <ele>987.551</ele>
        <time>2011-05-30T10:41:44Z</time>
      </trkpt>
      <trkpt lat="44.9228" lon="3.85506">
        <ele>987.873</ele>
        <time>2011-05-30T10:41:54Z</time>
      </trkpt>
      <trkpt lat="44.9228" lon="3.85506">
        <ele>988.158</ele>
        <time>2011-05-30T10:42:04Z</time>
      </trkpt>
      <trkpt lat="44.9228" lon="3.85506">
        <ele>988.085</ele>
        <time>2011-05-30T10:42:14Z</time>
      </trkpt>
      <trkpt lat="44.9228" lon="3.85506">
        <ele>988.131</ele>
        <time>2011-05-30T10:42:24Z</time>
      </trkpt>
      <trkpt lat="44.9228" lon="3.85506">
        <ele>987.818</ele>
        <time>2011-05-30T10:42:34Z</time>
      </trkpt>
      <trkpt lat="44.9228" lon="3.85506">
        <ele>988.184</ele>
        <time>2011-05-30T10:42:44Z</time>
      </trkpt>
      <trkpt lat="44.9228" lon="3.85506">
        <ele>988.222</ele>
        <time>2011-05-30T10:42:54Z</time>
      </trkpt>
      <trkpt lat="44.9228" lon="3.85506">
        <ele>988.328</ele>
        <time>2011-05-30T10:43:04Z</time>
      </trkpt>
      <trkpt lat="44.9228" lon="3.85506">
        <ele>988.148</ele>
        <time>2011-05-30T10:43:14Z</time>
      </trkpt>
      <trkpt lat="44.9228" lon="3.85506">
        <ele>988.473</ele>
        <time>2011-05-30T10:43:24Z</time>
      </trkpt>
      <trkpt lat="44.9228" lon="3.85506">
        <ele>988.105</ele>
        <time>2011-05-30T10:43:34Z</time>
      </trkpt>
      <trkpt lat="44.9228" lon="3.85506">
        <ele>988.102</ele>
        <time>2011-05-30T10:43:44Z</time>
      </trkpt>
      <trkpt lat="44.9228" lon="3.85506">
        <ele>988.159</ele>
        <time>2011-05-30T10:43:54Z</time>
      </trkpt>
      <trkpt lat="44.9228" lon="3.85506">
        <ele>987.799</ele>
        <time>2011-05-30T10:44:04Z</time>
      </trkpt>
      <trkpt lat="44.9228" lon="3.85506">
        <ele>988.36</ele>
        <time>2011-05-30T10:44:14Z</time>
      </trkpt>
      <trkpt lat="44.9228" lon="3.85506">
        <ele>987.967</ele>
        <time>2011-05-30T10:44:24Z</time>
      </trkpt>
      <trkpt lat="44.9228" lon="3.85506">
        <ele>988.254</ele>
        <time>2011-05-30T10:44:34Z</time>
      </trkpt>
      <trkpt lat="44.9228" lon="3.85506">
        <ele>987.733</ele>
        <time>2011-05-30T10:44:44Z</time>
      </trkpt>
      <trkpt lat="44.9228" lon="3.85506">
        <ele>988.138</ele>
        <time>2011-05-30T10:44:54Z</time>
      </trkpt>
      <trkpt lat="44.9228" lon="3.85506">
        <ele>988.259</ele>
        <time>2011-05-30T10:45:04Z</time>
      </trkpt>
      <trkpt lat="44.9228" lon="3.85506">
        <ele>988.035</ele>
        <time>2011-05-30T10:45:14Z</time>
      </trkpt>
      <trkpt lat="44.9228" lon="3.85506">
        <ele>988.082</ele>
        <time>2011-05-30T10:45:24Z</time>
      </trkpt>
      <trkpt lat="44.9228" lon="3.85506">
        <ele>988.202</ele>
        <time>2011-05-30T10:45:34Z</time>
      </trkpt>
      <trkpt lat="44.9228" lon="3.85506">
        <ele>987.964</ele>
        <time>2011-05-30T10:45:44Z</time>
      </trkpt>
      <trkpt lat="44.9228" lon="3.85506">
        <ele>987.471</ele>
        <time>2011-05-30T10:45:54Z</time>
      </trkpt>
      <trkpt lat="44.9228" lon="3.85506">
        <ele>987.318</ele>
        <time>2011-05-30T10:46:04Z</time>
      </trkpt>
      <trkpt lat="44.9228" lon="3.85506">
        <ele>988.022</ele>
        <time>2011-05-30T10:46:14Z</time>
      </trkpt>
      <trkpt lat="44.9228" lon="3.85506">
        <ele>987.725</ele>
        <time>2011-05-30T10:46:24Z</time>
      </trkpt>
      <trkpt lat="44.9228" lon="3.85506">
        <ele>987.696</ele>
        <time>2011-05-30T10:46:34Z</time>
      </trkpt>
      <trkpt lat="44.9228" lon="3.85506">
        <ele>987.497</ele>
        <time>2011-05-30T10:46:44Z</time>
      </trkpt>
      <trkpt lat="44.9228" lon="3.85506">
        <ele>987.635</ele>
        <time>2011-05-30T10:46:54Z</time>
      </trkpt>
      <trkpt lat="44.9228" lon="3.85506">
        <ele>987.804</ele>
        <time>2011-05-30T10:47:04Z</time>
      </trkpt>
      <trkpt lat="44.9228" lon="3.85506">
        <ele>987.389</ele>
        <time>2011-05-30T10:47:14Z</time>
      </trkpt>
      <trkpt lat="44.9228" lon="3.85506">
        <ele>988.233</ele>
        <time>2011-05-30T10:47:24Z</time>
      </trkpt>
      <trkpt lat="44.9228" lon="3.85506">
        <ele>987.496</ele>
        <time>2011-05-30T10:47:34Z</time>
      </trkpt>
      <trkpt lat="44.9228" lon="3.85506">
        <ele>987.912</ele>
        <time>2011-05-30T10:47:44Z</time>
      </trkpt>
      <trkpt lat="44.9228" lon="3.85506">
        <ele>987.223</ele>
        <time>2011-05-30T10:47:54Z</time>
      </trkpt>
      <trkpt lat="44.9228" lon="3.85506">
        <ele>987.632</ele>
        <time>2011-05-30T10:48:04Z</time>
      </trkpt>
      <trkpt lat="44.9228" lon="3.85506">
        <ele>987.758</ele>
        <time>2011-05-30T10:48:14Z</time>
      </trkpt>
      <trkpt lat="44.9228" lon="3.85506">
        <ele>987.45</ele>
        <time>2011-05-30T10:48:24Z</time>
      </trkpt>
      <trkpt lat="44.9228" lon="3.85506">
        <ele>987.336</ele>
        <time>2011-05-30T10:48:34Z</time>
      </trkpt>
      <trkpt lat="44.9228" lon="3.85506">
        <ele>987.477</ele>
        <time>2011-05-30T10:48:44Z</time>
      </trkpt>
      <trkpt lat="44.9228" lon="3.85506">
        <ele>987.53</ele>
        <time>2011-05-30T10:48:54Z</time>
      </trkpt>
      <trkpt lat="44.9228" lon="3.85506">
        <ele>987.586</ele>
        <time>2011-05-30T10:49:04Z</time>
      </trkpt>
      <trkpt lat="44.9228" lon="3.85506">
        <ele>987.261</ele>
        <time>2011-05-30T10:49:14Z</time>
      </trkpt>
      <trkpt lat="44.9228" lon="3.85506">
        <ele>987.371</ele>
        <time>2011-05-30T10:49:24Z</time>
      </trkpt>
      <trkpt lat="44.9228" lon="3.85506">
        <ele>987.659</ele>
        <time>2011-05-30T10:49:34Z</time>
      </trkpt>
      <trkpt lat="44.9228" lon="3.85506">
        <ele>987.534</ele>
        <time>2011-05-30T10:49:44Z</time>
      </trkpt>
      <trkpt lat="44.9228" lon="3.85506">
        <ele>987.693</ele>
        <time>2011-05-30T10:49:54Z</time>
      </trkpt>
      <trkpt lat="44.9228" lon="3.85506">
        <ele>987.806</ele>
        <time>2011-05-30T10:50:04Z</time>
      </trkpt>
      <trkpt lat="44.9228" lon="3.85506">
        <ele>987.408</ele>
        <time>2011-05-30T10:50:14Z</time>
      </trkpt>
      <trkpt lat="44.9228" lon="3.85506">
        <ele>987.647</ele>
        <time>2011-05-30T10:50:24Z</time>
      </trkpt>
      <trkpt lat="44.9228" lon="3.85506">
        <ele>986.714</ele>
        <time>2011-05-30T10:50:34Z</time>
      </trkpt>
      <trkpt lat="44.9228" lon="3.85506">
        <ele>987.375</ele>
        <time>2011-05-30T10:50:44Z</time>
      </trkpt>
      <trkpt lat="44.9228" lon="3.85506">
        <ele>987.391</ele>
        <time>2011-05-30T10:50:54Z</time>
      </trkpt>
      <trkpt lat="44.9228" lon="3.85506">
        <ele>987.423</ele>
        <time>2011-05-30T10:51:04Z</time>
      </trkpt>
      <trkpt lat="44.9228" lon="3.85506">
        <ele>987.429</ele>
        <time>2011-05-30T10:51:14Z</time>
      </trkpt>
      <trkpt lat="44.9228" lon="3.85506">
        <ele>987.785</ele>
        <time>2011-05-30T10:51:24Z</time>
      </trkpt>
      <trkpt lat="44.9228" lon="3.85506">
        <ele>987.379</ele>
        <time>2011-05-30T10:51:34Z</time>
      </trkpt>
      <trkpt lat="44.9228" lon="3.85506">
        <ele>988.497</ele>
        <time>2011-05-30T10:51:44Z</time>
      </trkpt>
      <trkpt lat="44.9228" lon="3.85506">
        <ele>987.989</ele>
        <time>2011-05-30T10:51:54Z</time>
      </trkpt>
      <trkpt lat="44.9228" lon="3.85506">
        <ele>987.508</ele>
        <time>2011-05-30T10:52:04Z</time>
      </trkpt>
      <trkpt lat="44.9228" lon="3.85506">
        <ele>987.601</ele>
        <time>2011-05-30T10:52:14Z</time>
      </trkpt>
      <trkpt lat="44.9228" lon="3.85506">
        <ele>987.614</ele>
        <time>2011-05-30T10:52:24Z</time>
      </trkpt>
      <trkpt lat="44.9228" lon="3.85507">
        <ele>988.341</ele>
        <time>2011-05-30T10:52:34Z</time>
      </trkpt>
      <trkpt lat="44.9228" lon="3.85507">
        <ele>987.905</ele>
        <time>2011-05-30T10:52:44Z</time>
      </trkpt>
      <trkpt lat="44.9228" lon="3.85507">
        <ele>987.292</ele>
        <time>2011-05-30T10:52:54Z</time>
      </trkpt>
      <trkpt lat="44.9228" lon="3.85507">
        <ele>987.509</ele>
        <time>2011-05-30T10:53:04Z</time>
      </trkpt>
      <trkpt lat="44.9228" lon="3.85507">
        <ele>987.301</ele>
        <time>2011-05-30T10:53:14Z</time>
      </trkpt>
      <trkpt lat="44.9228" lon="3.85507">
        <ele>987.321</ele>
        <time>2011-05-30T10:53:24Z</time>
      </trkpt>
      <trkpt lat="44.9228" lon="3.85507">
        <ele>987.242</ele>
        <time>2011-05-30T10:53:34Z</time>
      </trkpt>
      <trkpt lat="44.9228" lon="3.85507">
        <ele>987.582</ele>
        <time>2011-05-30T10:53:44Z</time>
      </trkpt>
      <trkpt lat="44.9228" lon="3.85507">
        <ele>987.224</ele>
        <time>2011-05-30T10:53:54Z</time>
      </trkpt>
      <trkpt lat="44.9228" lon="3.85507">
        <ele>987.159</ele>
        <time>2011-05-30T10:54:04Z</time>
      </trkpt>
      <trkpt lat="44.9228" lon="3.85507">
        <ele>987.632</ele>
        <time>2011-05-30T10:54:14Z</time>
      </trkpt>
      <trkpt lat="44.9228" lon="3.85507">
        <ele>987.708</ele>
        <time>2011-05-30T10:54:24Z</time>
      </trkpt>
      <trkpt lat="44.9228" lon="3.85507">
        <ele>987.365</ele>
        <time>2011-05-30T10:54:34Z</time>
      </trkpt>
      <trkpt lat="44.9228" lon="3.85507">
        <ele>987.621</ele>
        <time>2011-05-30T10:54:44Z</time>
      </trkpt>
      <trkpt lat="44.9228" lon="3.85507">
        <ele>987.366</ele>
        <time>2011-05-30T10:54:54Z</time>
      </trkpt>
      <trkpt lat="44.9228" lon="3.85507">
        <ele>987.582</ele>
        <time>2011-05-30T10:55:04Z</time>
      </trkpt>
      <trkpt lat="44.9228" lon="3.85507">
        <ele>987.993</ele>
        <time>2011-05-30T10:55:14Z</time>
      </trkpt>
      <trkpt lat="44.9228" lon="3.85507">
        <ele>988.117</ele>
        <time>2011-05-30T10:55:24Z</time>
      </trkpt>
      <trkpt lat="44.9228" lon="3.85507">
        <ele>987.804</ele>
        <time>2011-05-30T10:55:34Z</time>
      </trkpt>
      <trkpt lat="44.9228" lon="3.85507">
        <ele>988.348</ele>
        <time>2011-05-30T10:55:44Z</time>
      </trkpt>
      <trkpt lat="44.9228" lon="3.85507">
        <ele>988.053</ele>
        <time>2011-05-30T10:55:54Z</time>
      </trkpt>
      <trkpt lat="44.9228" lon="3.85507">
        <ele>988.65</ele>
        <time>2011-05-30T10:56:04Z</time>
      </trkpt>
      <trkpt lat="44.9228" lon="3.85507">
        <ele>988.179</ele>
        <time>2011-05-30T10:56:14Z</time>
      </trkpt>
      <trkpt lat="44.9228" lon="3.85507">
        <ele>988.117</ele>
        <time>2011-05-30T10:56:24Z</time>
      </trkpt>
      <trkpt lat="44.9228" lon="3.85507">
        <ele>988.084</ele>
        <time>2011-05-30T10:56:34Z</time>
      </trkpt>
      <trkpt lat="44.9228" lon="3.85507">
        <ele>987.938</ele>
        <time>2011-05-30T10:56:44Z</time>
      </trkpt>
      <trkpt lat="44.9228" lon="3.85507">
        <ele>987.998</ele>
        <time>2011-05-30T10:56:54Z</time>
      </trkpt>
      <trkpt lat="44.9228" lon="3.85507">
        <ele>988.209</ele>
        <time>2011-05-30T10:57:04Z</time>
      </trkpt>
      <trkpt lat="44.9228" lon="3.85507">
        <ele>988.232</ele>
        <time>2011-05-30T10:57:14Z</time>
      </trkpt>
      <trkpt lat="44.9228" lon="3.85507">
        <ele>988.295</ele>
        <time>2011-05-30T10:57:24Z</time>
      </trkpt>
      <trkpt lat="44.9228" lon="3.85507">
        <ele>987.939</ele>
        <time>2011-05-30T10:57:34Z</time>
      </trkpt>
      <trkpt lat="44.9228" lon="3.85507">
        <ele>987.959</ele>
        <time>2011-05-30T10:57:44Z</time>
      </trkpt>
      <trkpt lat="44.9228" lon="3.85507">
        <ele>988.228</ele>
        <time>2011-05-30T10:57:54Z</time>
      </trkpt>
      <trkpt lat="44.9228" lon="3.85507">
        <ele>988.489</ele>
        <time>2011-05-30T10:58:04Z</time>
      </trkpt>
      <trkpt lat="44.9228" lon="3.85507">
        <ele>987.653</ele>
        <time>2011-05-30T10:58:14Z</time>
      </trkpt>
      <trkpt lat="44.9228" lon="3.85507">
        <ele>988.161</ele>
        <time>2011-05-30T10:58:24Z</time>
      </trkpt>
      <trkpt lat="44.9228" lon="3.85507">
        <ele>988.254</ele>
        <time>2011-05-30T10:58:34Z</time>
      </trkpt>
      <trkpt lat="44.9228" lon="3.85507">
        <ele>987.977</ele>
        <time>2011-05-30T10:58:44Z</time>
      </trkpt>
      <trkpt lat="44.9228" lon="3.85507">
        <ele>987.604</ele>
        <time>2011-05-30T10:58:54Z</time>
      </trkpt>
      <trkpt lat="44.9228" lon="3.85507">
        <ele>987.72</ele>
        <time>2011-05-30T10:59:04Z</time>
      </trkpt>
      <trkpt lat="44.9228" lon="3.85507">
        <ele>987.982</ele>
        <time>2011-05-30T10:59:14Z</time>
      </trkpt>
      <trkpt lat="44.9228" lon="3.85507">
        <ele>987.97</ele>
        <time>2011-05-30T10:59:24Z</time>
      </trkpt>
      <trkpt lat="44.9228" lon="3.85507">
        <ele>988.533</ele>
        <time>2011-05-30T10:59:34Z</time>
      </trkpt>
      <trkpt lat="44.9228" lon="3.85507">
        <ele>987.671</ele>
        <time>2011-05-30T10:59:44Z</time>
      </trkpt>
      <trkpt lat="44.9228" lon="3.85507">
        <ele>988.1</ele>
        <time>2011-05-30T10:59:54Z</time>
      </trkpt>
      <trkpt lat="44.9228" lon="3.85507">
        <ele>988.352</ele>
        <time>2011-05-30T11:00:04Z</time>
      </trkpt>
      <trkpt lat="44.9228" lon="3.85507">
        <ele>988.059</ele>
        <time>2011-05-30T11:00:14Z</time>
      </trkpt>
      <trkpt lat="44.9228" lon="3.85507">
        <ele>987.891</ele>
        <time>2011-05-30T11:00:24Z</time>
      </trkpt>
      <trkpt lat="44.9228" lon="3.85507">
        <ele>987.964</ele>
        <time>2011-05-30T11:00:34Z</time>
      </trkpt>
      <trkpt lat="44.9228" lon="3.85507">
        <ele>987.871</ele>
        <time>2011-05-30T11:00:44Z</time>
      </trkpt>
      <trkpt lat="44.9228" lon="3.85507">
        <ele>987.942</ele>
        <time>2011-05-30T11:00:54Z</time>
      </trkpt>
      <trkpt lat="44.9228" lon="3.85507">
        <ele>987.796</ele>
        <time>2011-05-30T11:01:04Z</time>
      </trkpt>
      <trkpt lat="44.9228" lon="3.85507">
        <ele>988.263</ele>
        <time>2011-05-30T11:01:14Z</time>
      </trkpt>
      <trkpt lat="44.9228" lon="3.85507">
        <ele>987.87</ele>
        <time>2011-05-30T11:01:24Z</time>
      </trkpt>
      <trkpt lat="44.9228" lon="3.85507">
        <ele>987.98</ele>
        <time>2011-05-30T11:01:34Z</time>
      </trkpt>
      <trkpt lat="44.9228" lon="3.85507">
        <ele>988.049</ele>
        <time>2011-05-30T11:01:44Z</time>
      </trkpt>
      <trkpt lat="44.9228" lon="3.85507">
        <ele>988.386</ele>
        <time>2011-05-30T11:01:54Z</time>
      </trkpt>
      <trkpt lat="44.9228" lon="3.85507">
        <ele>987.216</ele>
        <time>2011-05-30T11:02:04Z</time>
      </trkpt>
      <trkpt lat="44.9228" lon="3.85507">
        <ele>988.505</ele>
        <time>2011-05-30T11:02:14Z</time>
      </trkpt>
      <trkpt lat="44.9228" lon="3.85507">
        <ele>987.779</ele>
        <time>2011-05-30T11:02:24Z</time>
      </trkpt>
      <trkpt lat="44.9228" lon="3.85507">
        <ele>988.213</ele>
        <time>2011-05-30T11:02:34Z</time>
      </trkpt>
      <trkpt lat="44.9228" lon="3.85507">
        <ele>988.415</ele>
        <time>2011-05-30T11:02:44Z</time>
      </trkpt>
      <trkpt lat="44.9228" lon="3.85507">
        <ele>988.498</ele>
        <time>2011-05-30T11:02:54Z</time>
      </trkpt>
      <trkpt lat="44.9228" lon="3.85507">
        <ele>988.13</ele>
        <time>2011-05-30T11:03:04Z</time>
      </trkpt>
      <trkpt lat="44.9228" lon="3.85507">
        <ele>988.413</ele>
        <time>2011-05-30T11:03:14Z</time>
      </trkpt>
      <trkpt lat="44.9228" lon="3.85507">
        <ele>988.125</ele>
        <time>2011-05-30T11:03:24Z</time>
      </trkpt>
      <trkpt lat="44.9228" lon="3.85507">
        <ele>988.273</ele>
        <time>2011-05-30T11:03:34Z</time>
      </trkpt>
      <trkpt lat="44.9228" lon="3.85507">
        <ele>988.175</ele>
        <time>2011-05-30T11:03:44Z</time>
      </trkpt>
      <trkpt lat="44.9228" lon="3.85507">
        <ele>987.822</ele>
        <time>2011-05-30T11:03:54Z</time>
      </trkpt>
      <trkpt lat="44.9228" lon="3.85507">
        <ele>987.999</ele>
        <time>2011-05-30T11:04:04Z</time>
      </trkpt>
      <trkpt lat="44.9228" lon="3.85507">
        <ele>987.548</ele>
        <time>2011-05-30T11:04:14Z</time>
      </trkpt>
      <trkpt lat="44.9228" lon="3.85507">
        <ele>988.284</ele>
        <time>2011-05-30T11:04:24Z</time>
      </trkpt>
      <trkpt lat="44.9228" lon="3.85507">
        <ele>987.779</ele>
        <time>2011-05-30T11:04:34Z</time>
      </trkpt>
      <trkpt lat="44.9228" lon="3.85507">
        <ele>988.465</ele>
        <time>2011-05-30T11:04:44Z</time>
      </trkpt>
      <trkpt lat="44.9228" lon="3.85507">
        <ele>988.694</ele>
        <time>2011-05-30T11:04:54Z</time>
      </trkpt>
      <trkpt lat="44.9228" lon="3.85507">
        <ele>988.31</ele>
        <time>2011-05-30T11:05:04Z</time>
      </trkpt>
      <trkpt lat="44.9228" lon="3.85507">
        <ele>988.676</ele>
        <time>2011-05-30T11:05:14Z</time>
      </trkpt>
      <trkpt lat="44.9228" lon="3.85507">
        <ele>988.811</ele>
        <time>2011-05-30T11:05:24Z</time>
      </trkpt>
      <trkpt lat="44.9228" lon="3.85507">
        <ele>988.442</ele>
        <time>2011-05-30T11:05:34Z</time>
      </trkpt>
      <trkpt lat="44.9228" lon="3.85507">
        <ele>989.004</ele>
        <time>2011-05-30T11:05:44Z</time>
      </trkpt>
      <trkpt lat="44.9228" lon="3.85507">
        <ele>988.32</ele>
        <time>2011-05-30T11:05:54Z</time>
      </trkpt>
      <trkpt lat="44.9228" lon="3.85507">
        <ele>988.472</ele>
        <time>2011-05-30T11:06:04Z</time>
      </trkpt>
      <trkpt lat="44.9228" lon="3.85507">
        <ele>989.625</ele>
        <time>2011-05-30T11:06:14Z</time>
      </trkpt>
      <trkpt lat="44.92281" lon="3.85507">
        <ele>988.908</ele>
        <time>2011-05-30T11:06:24Z</time>
      </trkpt>
      <trkpt lat="44.92281" lon="3.85507">
        <ele>988.752</ele>
        <time>2011-05-30T11:06:34Z</time>
      </trkpt>
      <trkpt lat="44.92281" lon="3.85507">
        <ele>988.571</ele>
        <time>2011-05-30T11:06:44Z</time>
      </trkpt>
      <trkpt lat="44.92281" lon="3.85507">
        <ele>988.459</ele>
        <time>2011-05-30T11:06:54Z</time>
      </trkpt>
      <trkpt lat="44.92281" lon="3.85507">
        <ele>988.103</ele>
        <time>2011-05-30T11:07:04Z</time>
      </trkpt>
      <trkpt lat="44.92281" lon="3.85507">
        <ele>988.519</ele>
        <time>2011-05-30T11:07:14Z</time>
      </trkpt>
      <trkpt lat="44.92281" lon="3.85507">
        <ele>988.598</ele>
        <time>2011-05-30T11:07:24Z</time>
      </trkpt>
      <trkpt lat="44.92281" lon="3.85507">
        <ele>988.593</ele>
        <time>2011-05-30T11:07:34Z</time>
      </trkpt>
      <trkpt lat="44.92281" lon="3.85507">
        <ele>988.99</ele>
        <time>2011-05-30T11:07:44Z</time>
      </trkpt>
      <trkpt lat="44.92281" lon="3.85507">
        <ele>988.513</ele>
        <time>2011-05-30T11:07:54Z</time>
      </trkpt>
      <trkpt lat="44.92281" lon="3.85507">
        <ele>988.858</ele>
        <time>2011-05-30T11:08:04Z</time>
      </trkpt>
      <trkpt lat="44.92281" lon="3.85507">
        <ele>989.108</ele>
        <time>2011-05-30T11:08:14Z</time>
      </trkpt>
      <trkpt lat="44.92281" lon="3.85507">
        <ele>989.066</ele>
        <time>2011-05-30T11:08:24Z</time>
      </trkpt>
      <trkpt lat="44.92281" lon="3.85507">
        <ele>989.159</ele>
        <time>2011-05-30T11:08:34Z</time>
      </trkpt>
      <trkpt lat="44.92281" lon="3.85507">
        <ele>989.271</ele>
        <time>2011-05-30T11:08:44Z</time>
      </trkpt>
      <trkpt lat="44.92281" lon="3.85507">
        <ele>989.198</ele>
        <time>2011-05-30T11:08:54Z</time>
      </trkpt>
      <trkpt lat="44.92281" lon="3.85507">
        <ele>989.518</ele>
        <time>2011-05-30T11:09:04Z</time>
      </trkpt>
      <trkpt lat="44.92281" lon="3.85507">
        <ele>989.663</ele>
        <time>2011-05-30T11:09:14Z</time>
      </trkpt>
      <trkpt lat="44.92281" lon="3.85507">
        <ele>989.498</ele>
        <time>2011-05-30T11:09:24Z</time>
      </trkpt>
      <trkpt lat="44.92281" lon="3.85507">
        <ele>990.222</ele>
        <time>2011-05-30T11:09:34Z</time>
      </trkpt>
      <trkpt lat="44.92281" lon="3.85507">
        <ele>989.853</ele>
        <time>2011-05-30T11:09:44Z</time>
      </trkpt>
      <trkpt lat="44.92281" lon="3.85507">
        <ele>990.04</ele>
        <time>2011-05-30T11:09:54Z</time>
      </trkpt>
      <trkpt lat="44.92281" lon="3.85507">
        <ele>989.988</ele>
        <time>2011-05-30T11:10:04Z</time>
      </trkpt>
      <trkpt lat="44.92281" lon="3.85507">
        <ele>990.184</ele>
        <time>2011-05-30T11:10:14Z</time>
      </trkpt>
      <trkpt lat="44.92281" lon="3.85507">
        <ele>990.109</ele>
        <time>2011-05-30T11:10:24Z</time>
      </trkpt>
      <trkpt lat="44.92281" lon="3.85507">
        <ele>990.154</ele>
        <time>2011-05-30T11:10:34Z</time>
      </trkpt>
      <trkpt lat="44.92281" lon="3.85507">
        <ele>990.052</ele>
        <time>2011-05-30T11:10:44Z</time>
      </trkpt>
      <trkpt lat="44.92281" lon="3.85507">
        <ele>990.255</ele>
        <time>2011-05-30T11:10:54Z</time>
      </trkpt>
      <trkpt lat="44.92281" lon="3.85507">
        <ele>990.345</ele>
        <time>2011-05-30T11:11:04Z</time>
      </trkpt>
      <trkpt lat="44.92281" lon="3.85507">
        <ele>990.46</ele>
        <time>2011-05-30T11:11:14Z</time>
      </trkpt>
      <trkpt lat="44.92281" lon="3.85507">
        <ele>990.129</ele>
        <time>2011-05-30T11:11:24Z</time>
      </trkpt>
      <trkpt lat="44.92281" lon="3.85507">
        <ele>990.441</ele>
        <time>2011-05-30T11:11:34Z</time>
      </trkpt>
      <trkpt lat="44.92281" lon="3.85507">
        <ele>990.448</ele>
        <time>2011-05-30T11:11:44Z</time>
      </trkpt>
      <trkpt lat="44.92281" lon="3.85507">
        <ele>990.649</ele>
        <time>2011-05-30T11:11:54Z</time>
      </trkpt>
      <trkpt lat="44.92281" lon="3.85507">
        <ele>990.312</ele>
        <time>2011-05-30T11:12:04Z</time>
      </trkpt>
      <trkpt lat="44.92281" lon="3.85507">
        <ele>990.582</ele>
        <time>2011-05-30T11:12:14Z</time>
      </trkpt>
      <trkpt lat="44.92281" lon="3.85507">
        <ele>990.549</ele>
        <time>2011-05-30T11:12:24Z</time>
      </trkpt>
      <trkpt lat="44.92281" lon="3.85507">
        <ele>990.756</ele>
        <time>2011-05-30T11:12:34Z</time>
      </trkpt>
      <trkpt lat="44.92281" lon="3.85507">
        <ele>990.561</ele>
        <time>2011-05-30T11:12:44Z</time>
      </trkpt>
      <trkpt lat="44.92281" lon="3.85507">
        <ele>990.168</ele>
        <time>2011-05-30T11:12:54Z</time>
      </trkpt>
      <trkpt lat="44.92281" lon="3.85507">
        <ele>990.498</ele>
        <time>2011-05-30T11:13:04Z</time>
      </trkpt>
      <trkpt lat="44.92281" lon="3.85507">
        <ele>989.883</ele>
        <time>2011-05-30T11:13:14Z</time>
      </trkpt>
      <trkpt lat="44.92281" lon="3.85507">
        <ele>990.322</ele>
        <time>2011-05-30T11:13:24Z</time>
      </trkpt>
      <trkpt lat="44.92281" lon="3.85507">
        <ele>990.513</ele>
        <time>2011-05-30T11:13:34Z</time>
      </trkpt>
      <trkpt lat="44.92281" lon="3.85507">
        <ele>990.282</ele>
        <time>2011-05-30T11:13:44Z</time>
      </trkpt>
      <trkpt lat="44.92281" lon="3.85507">
        <ele>990.257</ele>
        <time>2011-05-30T11:13:54Z</time>
      </trkpt>
      <trkpt lat="44.92281" lon="3.85507">
        <ele>990.417</ele>
        <time>2011-05-30T11:14:04Z</time>
      </trkpt>
      <trkpt lat="44.92281" lon="3.85507">
        <ele>990.619</ele>
        <time>2011-05-30T11:14:14Z</time>
      </trkpt>
      <trkpt lat="44.92281" lon="3.85507">
        <ele>990.555</ele>
        <time>2011-05-30T11:14:24Z</time>
      </trkpt>
      <trkpt lat="44.92281" lon="3.85507">
        <ele>990.892</ele>
        <time>2011-05-30T11:14:34Z</time>
      </trkpt>
      <trkpt lat="44.92281" lon="3.85507">
        <ele>990.682</ele>
        <time>2011-05-30T11:14:44Z</time>
      </trkpt>
      <trkpt lat="44.92281" lon="3.85507">
        <ele>990.602</ele>
        <time>2011-05-30T11:14:54Z</time>
      </trkpt>
      <trkpt lat="44.92281" lon="3.85507">
        <ele>990.529</ele>
        <time>2011-05-30T11:15:04Z</time>
      </trkpt>
      <trkpt lat="44.92281" lon="3.85507">
        <ele>990.647</ele>
        <time>2011-05-30T11:15:14Z</time>
      </trkpt>
      <trkpt lat="44.92281" lon="3.85507">
        <ele>990.741</ele>
        <time>2011-05-30T11:15:24Z</time>
      </trkpt>
      <trkpt lat="44.92281" lon="3.85507">
        <ele>991.057</ele>
        <time>2011-05-30T11:15:34Z</time>
      </trkpt>
      <trkpt lat="44.92281" lon="3.85507">
        <ele>990.266</ele>
        <time>2011-05-30T11:15:44Z</time>
      </trkpt>
      <trkpt lat="44.92281" lon="3.85507">
        <ele>990.715</ele>
        <time>2011-05-30T11:15:54Z</time>
      </trkpt>
      <trkpt lat="44.92281" lon="3.85507">
        <ele>990.405</ele>
        <time>2011-05-30T11:16:04Z</time>
      </trkpt>
      <trkpt lat="44.92281" lon="3.85507">
        <ele>990.654</ele>
        <time>2011-05-30T11:16:14Z</time>
      </trkpt>
      <trkpt lat="44.92281" lon="3.85507">
        <ele>990.295</ele>
        <time>2011-05-30T11:16:24Z</time>
      </trkpt>
      <trkpt lat="44.92281" lon="3.85507">
        <ele>990.578</ele>
        <time>2011-05-30T11:16:34Z</time>
      </trkpt>
      <trkpt lat="44.92281" lon="3.85507">
        <ele>991.168</ele>
        <time>2011-05-30T11:16:44Z</time>
      </trkpt>
      <trkpt lat="44.92281" lon="3.85507">
        <ele>990.995</ele>
        <time>2011-05-30T11:16:54Z</time>
      </trkpt>
      <trkpt lat="44.92281" lon="3.85507">
        <ele>990.909</ele>
        <time>2011-05-30T11:17:04Z</time>
      </trkpt>
      <trkpt lat="44.92281" lon="3.85507">
        <ele>990.87</ele>
        <time>2011-05-30T11:17:14Z</time>
      </trkpt>
      <trkpt lat="44.92281" lon="3.85507">
        <ele>990.56</ele>
        <time>2011-05-30T11:17:24Z</time>
      </trkpt>
      <trkpt lat="44.92281" lon="3.85507">
        <ele>991.015</ele>
        <time>2011-05-30T11:17:34Z</time>
      </trkpt>
      <trkpt lat="44.92281" lon="3.85507">
        <ele>990.329</ele>
        <time>2011-05-30T11:17:44Z</time>
      </trkpt>
      <trkpt lat="44.92281" lon="3.85507">
        <ele>991.404</ele>
        <time>2011-05-30T11:17:54Z</time>
      </trkpt>
      <trkpt lat="44.92281" lon="3.85507">
        <ele>990.937</ele>
        <time>2011-05-30T11:18:04Z</time>
      </trkpt>
      <trkpt lat="44.92281" lon="3.85507">
        <ele>990.374</ele>
        <time>2011-05-30T11:18:14Z</time>
      </trkpt>
      <trkpt lat="44.92281" lon="3.85507">
        <ele>990.99</ele>
        <time>2011-05-30T11:18:24Z</time>
      </trkpt>
      <trkpt lat="44.92281" lon="3.85507">
        <ele>990.636</ele>
        <time>2011-05-30T11:18:34Z</time>
      </trkpt>
      <trkpt lat="44.92281" lon="3.85507">
        <ele>990.605</ele>
        <time>2011-05-30T11:18:44Z</time>
      </trkpt>
      <trkpt lat="44.92281" lon="3.85507">
        <ele>990.539</ele>
        <time>2011-05-30T11:18:54Z</time>
      </trkpt>
      <trkpt lat="44.92281" lon="3.85507">
        <ele>990.705</ele>
        <time>2011-05-30T11:19:04Z</time>
      </trkpt>
      <trkpt lat="44.92281" lon="3.85507">
        <ele>990.629</ele>
        <time>2011-05-30T11:19:14Z</time>
      </trkpt>
      <trkpt lat="44.92281" lon="3.85507">
        <ele>990.346</ele>
        <time>2011-05-30T11:19:24Z</time>
      </trkpt>
      <trkpt lat="44.92281" lon="3.85507">
        <ele>990.92</ele>
        <time>2011-05-30T11:19:34Z</time>
      </trkpt>
      <trkpt lat="44.92281" lon="3.85507">
        <ele>991.368</ele>
        <time>2011-05-30T11:19:44Z</time>
      </trkpt>
      <trkpt lat="44.92281" lon="3.85507">
        <ele>990.981</ele>
        <time>2011-05-30T11:19:54Z</time>
      </trkpt>
      <trkpt lat="44.92281" lon="3.85507">
        <ele>991.07</ele>
        <time>2011-05-30T11:20:04Z</time>
      </trkpt>
      <trkpt lat="44.92281" lon="3.85507">
        <ele>991.162</ele>
        <time>2011-05-30T11:20:14Z</time>
      </trkpt>
      <trkpt lat="44.92281" lon="3.85507">
        <ele>990.799</ele>
        <time>2011-05-30T11:20:24Z</time>
      </trkpt>
      <trkpt lat="44.92281" lon="3.85507">
        <ele>991.157</ele>
        <time>2011-05-30T11:20:34Z</time>
      </trkpt>
      <trkpt lat="44.92281" lon="3.85507">
        <ele>991.416</ele>
        <time>2011-05-30T11:20:44Z</time>
      </trkpt>
      <trkpt lat="44.92281" lon="3.85507">
        <ele>991.45</ele>
        <time>2011-05-30T11:20:54Z</time>
      </trkpt>
      <trkpt lat="44.92281" lon="3.85507">
        <ele>991.521</ele>
        <time>2011-05-30T11:21:04Z</time>
      </trkpt>
      <trkpt lat="44.92281" lon="3.85507">
        <ele>991.277</ele>
        <time>2011-05-30T11:21:14Z</time>
      </trkpt>
      <trkpt lat="44.92281" lon="3.85507">
        <ele>991.435</ele>
        <time>2011-05-30T11:21:24Z</time>
      </trkpt>
      <trkpt lat="44.92281" lon="3.85507">
        <ele>991.186</ele>
        <time>2011-05-30T11:21:34Z</time>
      </trkpt>
      <trkpt lat="44.92281" lon="3.85507">
        <ele>990.794</ele>
        <time>2011-05-30T11:21:44Z</time>
      </trkpt>
      <trkpt lat="44.92281" lon="3.85507">
        <ele>991.21</ele>
        <time>2011-05-30T11:21:54Z</time>
      </trkpt>
      <trkpt lat="44.92281" lon="3.85507">
        <ele>990.647</ele>
        <time>2011-05-30T11:22:04Z</time>
      </trkpt>
      <trkpt lat="44.92281" lon="3.85507">
        <ele>990.74</ele>
        <time>2011-05-30T11:22:14Z</time>
      </trkpt>
      <trkpt lat="44.92281" lon="3.85507">
        <ele>990.992</ele>
        <time>2011-05-30T11:22:24Z</time>
      </trkpt>
      <trkpt lat="44.92281" lon="3.85507">
        <ele>990.639</ele>
        <time>2011-05-30T11:22:34Z</time>
      </trkpt>
      <trkpt lat="44.92281" lon="3.85507">
        <ele>990.654</ele>
        <time>2011-05-30T11:22:44Z</time>
      </trkpt>
      <trkpt lat="44.92281" lon="3.85507">
        <ele>990.46</ele>
        <time>2011-05-30T11:22:54Z</time>
      </trkpt>
      <trkpt lat="44.92281" lon="3.85507">
        <ele>991.091</ele>
        <time>2011-05-30T11:23:04Z</time>
      </trkpt>
      <trkpt lat="44.92281" lon="3.85507">
        <ele>990.798</ele>
        <time>2011-05-30T11:23:14Z</time>
      </trkpt>
      <trkpt lat="44.92281" lon="3.85507">
        <ele>990.885</ele>
        <time>2011-05-30T11:23:24Z</time>
      </trkpt>
      <trkpt lat="44.92281" lon="3.85507">
        <ele>990.771</ele>
        <time>2011-05-30T11:23:34Z</time>
      </trkpt>
      <trkpt lat="44.92281" lon="3.85507">
        <ele>990.511</ele>
        <time>2011-05-30T11:23:44Z</time>
      </trkpt>
      <trkpt lat="44.92281" lon="3.85507">
        <ele>990.831</ele>
        <time>2011-05-30T11:23:54Z</time>
      </trkpt>
      <trkpt lat="44.92281" lon="3.85507">
        <ele>990.53</ele>
        <time>2011-05-30T11:24:04Z</time>
      </trkpt>
      <trkpt lat="44.92281" lon="3.85507">
        <ele>990.856</ele>
        <time>2011-05-30T11:24:14Z</time>
      </trkpt>
      <trkpt lat="44.92281" lon="3.85507">
        <ele>990.582</ele>
        <time>2011-05-30T11:24:24Z</time>
      </trkpt>
      <trkpt lat="44.92281" lon="3.85507">
        <ele>990.549</ele>
        <time>2011-05-30T11:24:34Z</time>
      </trkpt>
      <trkpt lat="44.92281" lon="3.85507">
        <ele>990.64</ele>
        <time>2011-05-30T11:24:44Z</time>
      </trkpt>
      <trkpt lat="44.92281" lon="3.85507">
        <ele>990.853</ele>
        <time>2011-05-30T11:24:54Z</time>
      </trkpt>
      <trkpt lat="44.92281" lon="3.85507">
        <ele>990.892</ele>
        <time>2011-05-30T11:25:04Z</time>
      </trkpt>
      <trkpt lat="44.92281" lon="3.85507">
        <ele>990.816</ele>
        <time>2011-05-30T11:25:14Z</time>
      </trkpt>
      <trkpt lat="44.92281" lon="3.85507">
        <ele>990.945</ele>
        <time>2011-05-30T11:25:24Z</time>
      </trkpt>
      <trkpt lat="44.92281" lon="3.85507">
        <ele>991.005</ele>
        <time>2011-05-30T11:25:34Z</time>
      </trkpt>
      <trkpt lat="44.92281" lon="3.85507">
        <ele>991.199</ele>
        <time>2011-05-30T11:25:44Z</time>
      </trkpt>
      <trkpt lat="44.92281" lon="3.85507">
        <ele>991.287</ele>
        <time>2011-05-30T11:25:54Z</time>
      </trkpt>
      <trkpt lat="44.92281" lon="3.85507">
        <ele>991.299</ele>
        <time>2011-05-30T11:26:04Z</time>
      </trkpt>
      <trkpt lat="44.92281" lon="3.85507">
        <ele>990.862</ele>
        <time>2011-05-30T11:26:14Z</time>
      </trkpt>
      <trkpt lat="44.92281" lon="3.85507">
        <ele>991.076</ele>
        <time>2011-05-30T11:26:24Z</time>
      </trkpt>
      <trkpt lat="44.92281" lon="3.85507">
        <ele>990.796</ele>
        <time>2011-05-30T11:26:34Z</time>
      </trkpt>
      <trkpt lat="44.92281" lon="3.85507">
        <ele>990.206</ele>
        <time>2011-05-30T11:26:44Z</time>
      </trkpt>
      <trkpt lat="44.92281" lon="3.85507">
        <ele>991.008</ele>
        <time>2011-05-30T11:26:54Z</time>
      </trkpt>
      <trkpt lat="44.92281" lon="3.85507">
        <ele>991.472</ele>
        <time>2011-05-30T11:27:04Z</time>
      </trkpt>
      <trkpt lat="44.92281" lon="3.85507">
        <ele>991.06</ele>
        <time>2011-05-30T11:27:14Z</time>
      </trkpt>
      <trkpt lat="44.92281" lon="3.85507">
        <ele>990.797</ele>
        <time>2011-05-30T11:27:24Z</time>
      </trkpt>
      <trkpt lat="44.92281" lon="3.85507">
        <ele>991.005</ele>
        <time>2011-05-30T11:27:34Z</time>
      </trkpt>
      <trkpt lat="44.92281" lon="3.85507">
        <ele>991.492</ele>
        <time>2011-05-30T11:27:44Z</time>
      </trkpt>
      <trkpt lat="44.92281" lon="3.85507">
        <ele>991.772</ele>
        <time>2011-05-30T11:27:54Z</time>
      </trkpt>
      <trkpt lat="44.92281" lon="3.85507">
        <ele>991.224</ele>
        <time>2011-05-30T11:28:04Z</time>
      </trkpt>
      <trkpt lat="44.92281" lon="3.85507">
        <ele>991.586</ele>
        <time>2011-05-30T11:28:14Z</time>
      </trkpt>
      <trkpt lat="44.92281" lon="3.85507">
        <ele>991.424</ele>
        <time>2011-05-30T11:28:24Z</time>
      </trkpt>
      <trkpt lat="44.92281" lon="3.85507">
        <ele>991.718</ele>
        <time>2011-05-30T11:28:34Z</time>
      </trkpt>
      <trkpt lat="44.92281" lon="3.85507">
        <ele>991.561</ele>
        <time>2011-05-30T11:28:44Z</time>
      </trkpt>
      <trkpt lat="44.92281" lon="3.85507">
        <ele>991.601</ele>
        <time>2011-05-30T11:28:54Z</time>
      </trkpt>
      <trkpt lat="44.92281" lon="3.85506">
        <ele>991.651</ele>
        <time>2011-05-30T11:29:04Z</time>
      </trkpt>
      <trkpt lat="44.92281" lon="3.85506">
        <ele>991.217</ele>
        <time>2011-05-30T11:29:14Z</time>
      </trkpt>
      <trkpt lat="44.92281" lon="3.85506">
        <ele>991.461</ele>
        <time>2011-05-30T11:29:24Z</time>
      </trkpt>
      <trkpt lat="44.92281" lon="3.85506">
        <ele>991.466</ele>
        <time>2011-05-30T11:29:34Z</time>
      </trkpt>
      <trkpt lat="44.92281" lon="3.85506">
        <ele>992.025</ele>
        <time>2011-05-30T11:29:44Z</time>
      </trkpt>
      <trkpt lat="44.92281" lon="3.85506">
        <ele>991.269</ele>
        <time>2011-05-30T11:29:54Z</time>
      </trkpt>
      <trkpt lat="44.92281" lon="3.85506">
        <ele>991.328</ele>
        <time>2011-05-30T11:30:04Z</time>
      </trkpt>
      <trkpt lat="44.92281" lon="3.85506">
        <ele>991.599</ele>
        <time>2011-05-30T11:30:14Z</time>
      </trkpt>
      <trkpt lat="44.92281" lon="3.85506">
        <ele>991.332</ele>
        <time>2011-05-30T11:30:24Z</time>
      </trkpt>
      <trkpt lat="44.92281" lon="3.85506">
        <ele>992.041</ele>
        <time>2011-05-30T11:30:34Z</time>
      </trkpt>
      <trkpt lat="44.92281" lon="3.85506">
        <ele>991.688</ele>
        <time>2011-05-30T11:30:44Z</time>
      </trkpt>
      <trkpt lat="44.92281" lon="3.85506">
        <ele>991.633</ele>
        <time>2011-05-30T11:30:54Z</time>
      </trkpt>
      <trkpt lat="44.92281" lon="3.85506">
        <ele>991.394</ele>
        <time>2011-05-30T11:31:04Z</time>
      </trkpt>
      <trkpt lat="44.92281" lon="3.85506">
        <ele>991.734</ele>
        <time>2011-05-30T11:31:14Z</time>
      </trkpt>
      <trkpt lat="44.92281" lon="3.85506">
        <ele>991.649</ele>
        <time>2011-05-30T11:31:24Z</time>
      </trkpt>
      <trkpt lat="44.92281" lon="3.85506">
        <ele>991.569</ele>
        <time>2011-05-30T11:31:34Z</time>
      </trkpt>
      <trkpt lat="44.92281" lon="3.85506">
        <ele>991.542</ele>
        <time>2011-05-30T11:31:44Z</time>
      </trkpt>
      <trkpt lat="44.92281" lon="3.85506">
        <ele>991.341</ele>
        <time>2011-05-30T11:31:54Z</time>
      </trkpt>
      <trkpt lat="44.92281" lon="3.85506">
        <ele>991.025</ele>
        <time>2011-05-30T11:32:04Z</time>
      </trkpt>
      <trkpt lat="44.92281" lon="3.85506">
        <ele>991.687</ele>
        <time>2011-05-30T11:32:14Z</time>
      </trkpt>
      <trkpt lat="44.92281" lon="3.85506">
        <ele>991.312</ele>
        <time>2011-05-30T11:32:24Z</time>
      </trkpt>
      <trkpt lat="44.92281" lon="3.85506">
        <ele>991.873</ele>
        <time>2011-05-30T11:32:34Z</time>
      </trkpt>
      <trkpt lat="44.92281" lon="3.85506">
        <ele>991.424</ele>
        <time>2011-05-30T11:32:44Z</time>
      </trkpt>
      <trkpt lat="44.92281" lon="3.85506">
        <ele>991.67</ele>
        <time>2011-05-30T11:32:54Z</time>
      </trkpt>
      <trkpt lat="44.92281" lon="3.85506">
        <ele>991.792</ele>
        <time>2011-05-30T11:33:04Z</time>
      </trkpt>
      <trkpt lat="44.92281" lon="3.85506">
        <ele>991.722</ele>
        <time>2011-05-30T11:33:14Z</time>
      </trkpt>
      <trkpt lat="44.92281" lon="3.85506">
        <ele>992.01</ele>
        <time>2011-05-30T11:33:24Z</time>
      </trkpt>
      <trkpt lat="44.92281" lon="3.85506">
        <ele>991.813</ele>
        <time>2011-05-30T11:33:34Z</time>
      </trkpt>
      <trkpt lat="44.92281" lon="3.85506">
        <ele>992.146</ele>
        <time>2011-05-30T11:33:44Z</time>
      </trkpt>
      <trkpt lat="44.92281" lon="3.85506">
        <ele>992.056</ele>
        <time>2011-05-30T11:33:54Z</time>
      </trkpt>
      <trkpt lat="44.92281" lon="3.85506">
        <ele>992.054</ele>
        <time>2011-05-30T11:34:04Z</time>
      </trkpt>
      <trkpt lat="44.92281" lon="3.85506">
        <ele>991.765</ele>
        <time>2011-05-30T11:34:14Z</time>
      </trkpt>
      <trkpt lat="44.92281" lon="3.85506">
        <ele>991.756</ele>
        <time>2011-05-30T11:34:24Z</time>
      </trkpt>
      <trkpt lat="44.92281" lon="3.85506">
        <ele>992.251</ele>
        <time>2011-05-30T11:34:34Z</time>
      </trkpt>
      <trkpt lat="44.92281" lon="3.85506">
        <ele>992.327</ele>
        <time>2011-05-30T11:34:44Z</time>
      </trkpt>
      <trkpt lat="44.92281" lon="3.85506">
        <ele>992.151</ele>
        <time>2011-05-30T11:34:54Z</time>
      </trkpt>
      <trkpt lat="44.92281" lon="3.85506">
        <ele>992.165</ele>
        <time>2011-05-30T11:35:04Z</time>
      </trkpt>
      <trkpt lat="44.92281" lon="3.85506">
        <ele>991.885</ele>
        <time>2011-05-30T11:35:14Z</time>
      </trkpt>
      <trkpt lat="44.92281" lon="3.85506">
        <ele>991.867</ele>
        <time>2011-05-30T11:35:24Z</time>
      </trkpt>
      <trkpt lat="44.92281" lon="3.85506">
        <ele>992.211</ele>
        <time>2011-05-30T11:35:34Z</time>
      </trkpt>
      <trkpt lat="44.92281" lon="3.85506">
        <ele>991.909</ele>
        <time>2011-05-30T11:35:44Z</time>
      </trkpt>
      <trkpt lat="44.92281" lon="3.85506">
        <ele>992.315</ele>
        <time>2011-05-30T11:35:54Z</time>
      </trkpt>
      <trkpt lat="44.92281" lon="3.85506">
        <ele>992.428</ele>
        <time>2011-05-30T11:36:04Z</time>
      </trkpt>
      <trkpt lat="44.92281" lon="3.85506">
        <ele>992.378</ele>
        <time>2011-05-30T11:36:14Z</time>
      </trkpt>
      <trkpt lat="44.92281" lon="3.85506">
        <ele>993.018</ele>
        <time>2011-05-30T11:36:24Z</time>
      </trkpt>
      <trkpt lat="44.92281" lon="3.85506">
        <ele>992.405</ele>
        <time>2011-05-30T11:36:34Z</time>
      </trkpt>
      <trkpt lat="44.92281" lon="3.85506">
        <ele>992.816</ele>
        <time>2011-05-30T11:36:44Z</time>
      </trkpt>
      <trkpt lat="44.92281" lon="3.85506">
        <ele>992.866</ele>
        <time>2011-05-30T11:36:54Z</time>
      </trkpt>
      <trkpt lat="44.92281" lon="3.85506">
        <ele>992.62</ele>
        <time>2011-05-30T11:37:04Z</time>
      </trkpt>
      <trkpt lat="44.92281" lon="3.85506">
        <ele>992.54</ele>
        <time>2011-05-30T11:37:14Z</time>
      </trkpt>
      <trkpt lat="44.92281" lon="3.85506">
        <ele>992.59</ele>
        <time>2011-05-30T11:37:24Z</time>
      </trkpt>
      <trkpt lat="44.92281" lon="3.85506">
        <ele>992.199</ele>
        <time>2011-05-30T11:37:34Z</time>
      </trkpt>
      <trkpt lat="44.92281" lon="3.85506">
        <ele>992.153</ele>
        <time>2011-05-30T11:37:44Z</time>
      </trkpt>
      <trkpt lat="44.92281" lon="3.85506">
        <ele>992.648</ele>
        <time>2011-05-30T11:37:54Z</time>
      </trkpt>
      <trkpt lat="44.92281" lon="3.85506">
        <ele>992.344</ele>
        <time>2011-05-30T11:38:04Z</time>
      </trkpt>
      <trkpt lat="44.92281" lon="3.85506">
        <ele>992.913</ele>
        <time>2011-05-30T11:38:14Z</time>
      </trkpt>
      <trkpt lat="44.92281" lon="3.85506">
        <ele>992.262</ele>
        <time>2011-05-30T11:38:24Z</time>
      </trkpt>
      <trkpt lat="44.92281" lon="3.85506">
        <ele>991.951</ele>
        <time>2011-05-30T11:38:34Z</time>
      </trkpt>
      <trkpt lat="44.92281" lon="3.85506">
        <ele>992.609</ele>
        <time>2011-05-30T11:38:44Z</time>
      </trkpt>
      <trkpt lat="44.92281" lon="3.85506">
        <ele>992.499</ele>
        <time>2011-05-30T11:38:54Z</time>
      </trkpt>
      <trkpt lat="44.92281" lon="3.85506">
        <ele>993.112</ele>
        <time>2011-05-30T11:39:04Z</time>
      </trkpt>
      <trkpt lat="44.92281" lon="3.85506">
        <ele>992.88</ele>
        <time>2011-05-30T11:39:14Z</time>
      </trkpt>
      <trkpt lat="44.92281" lon="3.85506">
        <ele>992.737</ele>
        <time>2011-05-30T11:39:24Z</time>
      </trkpt>
      <trkpt lat="44.92281" lon="3.85506">
        <ele>993.126</ele>
        <time>2011-05-30T11:39:34Z</time>
      </trkpt>
      <trkpt lat="44.92281" lon="3.85506">
        <ele>992.144</ele>
        <time>2011-05-30T11:39:44Z</time>
      </trkpt>
      <trkpt lat="44.92281" lon="3.85506">
        <ele>993.025</ele>
        <time>2011-05-30T11:39:54Z</time>
      </trkpt>
      <trkpt lat="44.92281" lon="3.85506">
        <ele>992.618</ele>
        <time>2011-05-30T11:40:04Z</time>
      </trkpt>
      <trkpt lat="44.92281" lon="3.85506">
        <ele>992.39</ele>
        <time>2011-05-30T11:40:14Z</time>
      </trkpt>
      <trkpt lat="44.92281" lon="3.85506">
        <ele>992.386</ele>
        <time>2011-05-30T11:40:24Z</time>
      </trkpt>
      <trkpt lat="44.92281" lon="3.85506">
        <ele>992.632</ele>
        <time>2011-05-30T11:40:34Z</time>
      </trkpt>
      <trkpt lat="44.92281" lon="3.85506">
        <ele>992.629</ele>
        <time>2011-05-30T11:40:44Z</time>
      </trkpt>
      <trkpt lat="44.92281" lon="3.85506">
        <ele>992.6</ele>
        <time>2011-05-30T11:40:54Z</time>
      </trkpt>
      <trkpt lat="44.92281" lon="3.85506">
        <ele>992.267</ele>
        <time>2011-05-30T11:41:04Z</time>
      </trkpt>
      <trkpt lat="44.92281" lon="3.85506">
        <ele>992.292</ele>
        <time>2011-05-30T11:41:14Z</time>
      </trkpt>
      <trkpt lat="44.92281" lon="3.85506">
        <ele>992.334</ele>
        <time>2011-05-30T11:41:24Z</time>
      </trkpt>
      <trkpt lat="44.92281" lon="3.85506">
        <ele>993.358</ele>
        <time>2011-05-30T11:41:34Z</time>
      </trkpt>
      <trkpt lat="44.92281" lon="3.85506">
        <ele>993.094</ele>
        <time>2011-05-30T11:41:44Z</time>
      </trkpt>
      <trkpt lat="44.92281" lon="3.85506">
        <ele>993.633</ele>
        <time>2011-05-30T11:41:54Z</time>
      </trkpt>
      <trkpt lat="44.92281" lon="3.85506">
        <ele>993.089</ele>
        <time>2011-05-30T11:42:04Z</time>
      </trkpt>
      <trkpt lat="44.92281" lon="3.85506">
        <ele>992.745</ele>
        <time>2011-05-30T11:42:14Z</time>
      </trkpt>
      <trkpt lat="44.92281" lon="3.85506">
        <ele>992.986</ele>
        <time>2011-05-30T11:42:24Z</time>
      </trkpt>
      <trkpt lat="44.92281" lon="3.85506">
        <ele>992.874</ele>
        <time>2011-05-30T11:42:34Z</time>
      </trkpt>
      <trkpt lat="44.92281" lon="3.85506">
        <ele>993.356</ele>
        <time>2011-05-30T11:42:44Z</time>
      </trkpt>
      <trkpt lat="44.92281" lon="3.85506">
        <ele>993.088</ele>
        <time>2011-05-30T11:42:54Z</time>
      </trkpt>
      <trkpt lat="44.92281" lon="3.85506">
        <ele>992.995</ele>
        <time>2011-05-30T11:43:04Z</time>
      </trkpt>
      <trkpt lat="44.92281" lon="3.85506">
        <ele>993.492</ele>
        <time>2011-05-30T11:43:14Z</time>
      </trkpt>
      <trkpt lat="44.92281" lon="3.85506">
        <ele>992.938</ele>
        <time>2011-05-30T11:43:24Z</time>
      </trkpt>
      <trkpt lat="44.9228" lon="3.85505">
        <ele>993.059</ele>
        <time>2011-05-30T11:43:34Z</time>
      </trkpt>
      <trkpt lat="44.9228" lon="3.85505">
        <ele>994.509</ele>
        <time>2011-05-30T11:43:44Z</time>
      </trkpt>
      <trkpt lat="44.9228" lon="3.85505">
        <ele>994.377</ele>
        <time>2011-05-30T11:43:54Z</time>
      </trkpt>
      <trkpt lat="44.9228" lon="3.85505">
        <ele>994.517</ele>
        <time>2011-05-30T11:44:04Z</time>
      </trkpt>
      <trkpt lat="44.9228" lon="3.85505">
        <ele>993.126</ele>
        <time>2011-05-30T11:44:14Z</time>
      </trkpt>
      <trkpt lat="44.9228" lon="3.85505">
        <ele>993.964</ele>
        <time>2011-05-30T11:44:24Z</time>
      </trkpt>
      <trkpt lat="44.9228" lon="3.85505">
        <ele>994.371</ele>
        <time>2011-05-30T11:44:34Z</time>
      </trkpt>
      <trkpt lat="44.9228" lon="3.85505">
        <ele>993.827</ele>
        <time>2011-05-30T11:44:44Z</time>
      </trkpt>
      <trkpt lat="44.9228" lon="3.85505">
        <ele>993.456</ele>
        <time>2011-05-30T11:44:54Z</time>
      </trkpt>
      <trkpt lat="44.9228" lon="3.85505">
        <ele>994.078</ele>
        <time>2011-05-30T11:45:04Z</time>
      </trkpt>
      <trkpt lat="44.9228" lon="3.85505">
        <ele>993.662</ele>
        <time>2011-05-30T11:45:14Z</time>
      </trkpt>
      <trkpt lat="44.9228" lon="3.85505">
        <ele>993.693</ele>
        <time>2011-05-30T11:45:24Z</time>
      </trkpt>
      <trkpt lat="44.9228" lon="3.85505">
        <ele>992.996</ele>
        <time>2011-05-30T11:45:34Z</time>
      </trkpt>
      <trkpt lat="44.9228" lon="3.85505">
        <ele>993.649</ele>
        <time>2011-05-30T11:45:44Z</time>
      </trkpt>
      <trkpt lat="44.9228" lon="3.85505">
        <ele>993.613</ele>
        <time>2011-05-30T11:45:54Z</time>
      </trkpt>
      <trkpt lat="44.9228" lon="3.85505">
        <ele>992.912</ele>
        <time>2011-05-30T11:46:04Z</time>
      </trkpt>
      <trkpt lat="44.9228" lon="3.85505">
        <ele>992.553</ele>
        <time>2011-05-30T11:46:14Z</time>
      </trkpt>
      <trkpt lat="44.9228" lon="3.85505">
        <ele>993.538</ele>
        <time>2011-05-30T11:46:24Z</time>
      </trkpt>
      <trkpt lat="44.9228" lon="3.85505">
        <ele>993.327</ele>
        <time>2011-05-30T11:46:34Z</time>
      </trkpt>
      <trkpt lat="44.9228" lon="3.85505">
        <ele>992.762</ele>
        <time>2011-05-30T11:46:44Z</time>
      </trkpt>
      <trkpt lat="44.9228" lon="3.85505">
        <ele>992.37</ele>
        <time>2011-05-30T11:46:54Z</time>
      </trkpt>
      <trkpt lat="44.9228" lon="3.85505">
        <ele>993.512</ele>
        <time>2011-05-30T11:47:04Z</time>
      </trkpt>
      <trkpt lat="44.9228" lon="3.85505">
        <ele>993.936</ele>
        <time>2011-05-30T11:47:14Z</time>
      </trkpt>
      <trkpt lat="44.92279" lon="3.85505">
        <ele>993.032</ele>
        <time>2011-05-30T11:47:24Z</time>
      </trkpt>
      <trkpt lat="44.92279" lon="3.85505">
        <ele>992.512</ele>
        <time>2011-05-30T11:47:34Z</time>
      </trkpt>
      <trkpt lat="44.92279" lon="3.85505">
        <ele>992.932</ele>
        <time>2011-05-30T11:47:44Z</time>
      </trkpt>
      <trkpt lat="44.92279" lon="3.85505">
        <ele>992.525</ele>
        <time>2011-05-30T11:47:54Z</time>
      </trkpt>
      <trkpt lat="44.92279" lon="3.85505">
        <ele>993.117</ele>
        <time>2011-05-30T11:48:04Z</time>
      </trkpt>
      <trkpt lat="44.92279" lon="3.85505">
        <ele>992.369</ele>
        <time>2011-05-30T11:48:14Z</time>
      </trkpt>
      <trkpt lat="44.92279" lon="3.85505">
        <ele>992.777</ele>
        <time>2011-05-30T11:48:24Z</time>
      </trkpt>
      <trkpt lat="44.92279" lon="3.85505">
        <ele>993.356</ele>
        <time>2011-05-30T11:48:34Z</time>
      </trkpt>
      <trkpt lat="44.92279" lon="3.85505">
        <ele>993.302</ele>
        <time>2011-05-30T11:48:44Z</time>
      </trkpt>
      <trkpt lat="44.92279" lon="3.85505">
        <ele>993.618</ele>
        <time>2011-05-30T11:48:54Z</time>
      </trkpt>
      <trkpt lat="44.92279" lon="3.85506">
        <ele>992.571</ele>
        <time>2011-05-30T11:49:04Z</time>
      </trkpt>
      <trkpt lat="44.92279" lon="3.85504">
        <ele>994.128</ele>
        <time>2011-05-30T11:49:15Z</time>
      </trkpt>
      <trkpt lat="44.92279" lon="3.85504">
        <ele>992.463</ele>
        <time>2011-05-30T11:49:25Z</time>
      </trkpt>
      <trkpt lat="44.9228" lon="3.85505">
        <ele>993.133</ele>
        <time>2011-05-30T11:49:35Z</time>
      </trkpt>
      <trkpt lat="44.9228" lon="3.85506">
        <ele>993.095</ele>
        <time>2011-05-30T11:49:45Z</time>
      </trkpt>
      <trkpt lat="44.9228" lon="3.85506">
        <ele>993.978</ele>
        <time>2011-05-30T11:49:55Z</time>
      </trkpt>
      <trkpt lat="44.92279" lon="3.85506">
        <ele>994.373</ele>
        <time>2011-05-30T11:50:05Z</time>
      </trkpt>
      <trkpt lat="44.92279" lon="3.85506">
        <ele>994.096</ele>
        <time>2011-05-30T11:50:15Z</time>
      </trkpt>
      <trkpt lat="44.92279" lon="3.85506">
        <ele>994.717</ele>
        <time>2011-05-30T11:50:25Z</time>
      </trkpt>
      <trkpt lat="44.92279" lon="3.85506">
        <ele>995.008</ele>
        <time>2011-05-30T11:50:35Z</time>
      </trkpt>
      <trkpt lat="44.92279" lon="3.85506">
        <ele>993.902</ele>
        <time>2011-05-30T11:50:45Z</time>
      </trkpt>
      <trkpt lat="44.92279" lon="3.85506">
        <ele>994.572</ele>
        <time>2011-05-30T11:50:55Z</time>
      </trkpt>
      <trkpt lat="44.92279" lon="3.85506">
        <ele>994.094</ele>
        <time>2011-05-30T11:51:05Z</time>
      </trkpt>
      <trkpt lat="44.92279" lon="3.85506">
        <ele>994.407</ele>
        <time>2011-05-30T11:51:15Z</time>
      </trkpt>
      <trkpt lat="44.92279" lon="3.85506">
        <ele>993.969</ele>
        <time>2011-05-30T11:51:25Z</time>
      </trkpt>
      <trkpt lat="44.92279" lon="3.85506">
        <ele>993.613</ele>
        <time>2011-05-30T11:51:35Z</time>
      </trkpt>
      <trkpt lat="44.92279" lon="3.85506">
        <ele>993.722</ele>
        <time>2011-05-30T11:51:45Z</time>
      </trkpt>
      <trkpt lat="44.92279" lon="3.85506">
        <ele>992.68</ele>
        <time>2011-05-30T11:51:55Z</time>
      </trkpt>
      <trkpt lat="44.92279" lon="3.85506">
        <ele>994.912</ele>
        <time>2011-05-30T11:52:05Z</time>
      </trkpt>
      <trkpt lat="44.92279" lon="3.85506">
        <ele>994.257</ele>
        <time>2011-05-30T11:52:15Z</time>
      </trkpt>
      <trkpt lat="44.92279" lon="3.85506">
        <ele>994.265</ele>
        <time>2011-05-30T11:52:25Z</time>
      </trkpt>
      <trkpt lat="44.92279" lon="3.85506">
        <ele>993.708</ele>
        <time>2011-05-30T11:52:35Z</time>
      </trkpt>
      <trkpt lat="44.92279" lon="3.85506">
        <ele>994.612</ele>
        <time>2011-05-30T11:52:45Z</time>
      </trkpt>
      <trkpt lat="44.92279" lon="3.85506">
        <ele>994.365</ele>
        <time>2011-05-30T11:52:55Z</time>
      </trkpt>
      <trkpt lat="44.92279" lon="3.85506">
        <ele>994.33</ele>
        <time>2011-05-30T11:53:05Z</time>
      </trkpt>
      <trkpt lat="44.92279" lon="3.85506">
        <ele>994.29</ele>
        <time>2011-05-30T11:53:15Z</time>
      </trkpt>
      <trkpt lat="44.92279" lon="3.85506">
        <ele>994.633</ele>
        <time>2011-05-30T11:53:25Z</time>
      </trkpt>
      <trkpt lat="44.92279" lon="3.85506">
        <ele>994.723</ele>
        <time>2011-05-30T11:53:35Z</time>
      </trkpt>
      <trkpt lat="44.92279" lon="3.85506">
        <ele>994.395</ele>
        <time>2011-05-30T11:53:45Z</time>
      </trkpt>
      <trkpt lat="44.92279" lon="3.85506">
        <ele>994.86</ele>
        <time>2011-05-30T11:53:55Z</time>
      </trkpt>
      <trkpt lat="44.92279" lon="3.85506">
        <ele>994.884</ele>
        <time>2011-05-30T11:54:05Z</time>
      </trkpt>
      <trkpt lat="44.92279" lon="3.85506">
        <ele>994.762</ele>
        <time>2011-05-30T11:54:15Z</time>
      </trkpt>
      <trkpt lat="44.92279" lon="3.85506">
        <ele>994.856</ele>
        <time>2011-05-30T11:54:25Z</time>
      </trkpt>
      <trkpt lat="44.92279" lon="3.85506">
        <ele>995.014</ele>
        <time>2011-05-30T11:54:35Z</time>
      </trkpt>
      <trkpt lat="44.92279" lon="3.85506">
        <ele>994.824</ele>
        <time>2011-05-30T11:54:45Z</time>
      </trkpt>
      <trkpt lat="44.92279" lon="3.85506">
        <ele>994.746</ele>
        <time>2011-05-30T11:54:55Z</time>
      </trkpt>
      <trkpt lat="44.92279" lon="3.85506">
        <ele>995.007</ele>
        <time>2011-05-30T11:55:05Z</time>
      </trkpt>
      <trkpt lat="44.92279" lon="3.85506">
        <ele>994.562</ele>
        <time>2011-05-30T11:55:15Z</time>
      </trkpt>
      <trkpt lat="44.92279" lon="3.85506">
        <ele>995.455</ele>
        <time>2011-05-30T11:55:25Z</time>
      </trkpt>
      <trkpt lat="44.92279" lon="3.85506">
        <ele>995.193</ele>
        <time>2011-05-30T11:55:35Z</time>
      </trkpt>
      <trkpt lat="44.92279" lon="3.85506">
        <ele>995.098</ele>
        <time>2011-05-30T11:55:45Z</time>
      </trkpt>
      <trkpt lat="44.92279" lon="3.85506">
        <ele>994.824</ele>
        <time>2011-05-30T11:55:55Z</time>
      </trkpt>
      <trkpt lat="44.92279" lon="3.85506">
        <ele>995.071</ele>
        <time>2011-05-30T11:56:05Z</time>
      </trkpt>
      <trkpt lat="44.92279" lon="3.85506">
        <ele>995.431</ele>
        <time>2011-05-30T11:56:15Z</time>
      </trkpt>
      <trkpt lat="44.92279" lon="3.85506">
        <ele>994.695</ele>
        <time>2011-05-30T11:56:25Z</time>
      </trkpt>
      <trkpt lat="44.92279" lon="3.85506">
        <ele>995.384</ele>
        <time>2011-05-30T11:56:35Z</time>
      </trkpt>
      <trkpt lat="44.92279" lon="3.85506">
        <ele>994.476</ele>
        <time>2011-05-30T11:56:45Z</time>
      </trkpt>
      <trkpt lat="44.92279" lon="3.85506">
        <ele>993.907</ele>
        <time>2011-05-30T11:56:55Z</time>
      </trkpt>
      <trkpt lat="44.92279" lon="3.85506">
        <ele>994.687</ele>
        <time>2011-05-30T11:57:05Z</time>
      </trkpt>
      <trkpt lat="44.92279" lon="3.85506">
        <ele>994.456</ele>
        <time>2011-05-30T11:57:15Z</time>
      </trkpt>
      <trkpt lat="44.92279" lon="3.85506">
        <ele>994.875</ele>
        <time>2011-05-30T11:57:25Z</time>
      </trkpt>
      <trkpt lat="44.92279" lon="3.85506">
        <ele>994.67</ele>
        <time>2011-05-30T11:57:35Z</time>
      </trkpt>
      <trkpt lat="44.92279" lon="3.85506">
        <ele>994.591</ele>
        <time>2011-05-30T11:57:45Z</time>
      </trkpt>
      <trkpt lat="44.92279" lon="3.85506">
        <ele>994.806</ele>
        <time>2011-05-30T11:57:55Z</time>
      </trkpt>
      <trkpt lat="44.92279" lon="3.85506">
        <ele>994.738</ele>
        <time>2011-05-30T11:58:05Z</time>
      </trkpt>
      <trkpt lat="44.92279" lon="3.85506">
        <ele>995.17</ele>
        <time>2011-05-30T11:58:15Z</time>
      </trkpt>
      <trkpt lat="44.92279" lon="3.85506">
        <ele>995.214</ele>
        <time>2011-05-30T11:58:25Z</time>
      </trkpt>
      <trkpt lat="44.92279" lon="3.85506">
        <ele>994.935</ele>
        <time>2011-05-30T11:58:35Z</time>
      </trkpt>
      <trkpt lat="44.92279" lon="3.85506">
        <ele>995.517</ele>
        <time>2011-05-30T11:58:45Z</time>
      </trkpt>
      <trkpt lat="44.92279" lon="3.85506">
        <ele>995.191</ele>
        <time>2011-05-30T11:58:55Z</time>
      </trkpt>
      <trkpt lat="44.92279" lon="3.85506">
        <ele>995.021</ele>
        <time>2011-05-30T11:59:05Z</time>
      </trkpt>
      <trkpt lat="44.92279" lon="3.85506">
        <ele>995.126</ele>
        <time>2011-05-30T11:59:15Z</time>
      </trkpt>
      <trkpt lat="44.92279" lon="3.85506">
        <ele>995.088</ele>
        <time>2011-05-30T11:59:25Z</time>
      </trkpt>
      <trkpt lat="44.92279" lon="3.85506">
        <ele>995.351</ele>
        <time>2011-05-30T11:59:35Z</time>
      </trkpt>
      <trkpt lat="44.92279" lon="3.85506">
        <ele>995.273</ele>
        <time>2011-05-30T11:59:45Z</time>
      </trkpt>
      <trkpt lat="44.92279" lon="3.85506">
        <ele>995.626</ele>
        <time>2011-05-30T11:59:55Z</time>
      </trkpt>
      <trkpt lat="44.92279" lon="3.85506">
        <ele>995.166</ele>
        <time>2011-05-30T12:00:05Z</time>
      </trkpt>
      <trkpt lat="44.92279" lon="3.85506">
        <ele>995.12</ele>
        <time>2011-05-30T12:00:15Z</time>
      </trkpt>
      <trkpt lat="44.92279" lon="3.85506">
        <ele>994.98</ele>
        <time>2011-05-30T12:00:25Z</time>
      </trkpt>
      <trkpt lat="44.92279" lon="3.85506">
        <ele>995.091</ele>
        <time>2011-05-30T12:00:35Z</time>
      </trkpt>
      <trkpt lat="44.92279" lon="3.85506">
        <ele>995.19</ele>
        <time>2011-05-30T12:00:45Z</time>
      </trkpt>
      <trkpt lat="44.92279" lon="3.85506">
        <ele>995.347</ele>
        <time>2011-05-30T12:00:55Z</time>
      </trkpt>
      <trkpt lat="44.92279" lon="3.85506">
        <ele>994.766</ele>
        <time>2011-05-30T12:01:05Z</time>
      </trkpt>
      <trkpt lat="44.92279" lon="3.85506">
        <ele>995.212</ele>
        <time>2011-05-30T12:01:15Z</time>
      </trkpt>
      <trkpt lat="44.92279" lon="3.85506">
        <ele>995.191</ele>
        <time>2011-05-30T12:01:25Z</time>
      </trkpt>
      <trkpt lat="44.92279" lon="3.85506">
        <ele>995.47</ele>
        <time>2011-05-30T12:01:35Z</time>
      </trkpt>
      <trkpt lat="44.92279" lon="3.85506">
        <ele>995.796</ele>
        <time>2011-05-30T12:01:45Z</time>
      </trkpt>
      <trkpt lat="44.92279" lon="3.85506">
        <ele>995.638</ele>
        <time>2011-05-30T12:01:55Z</time>
      </trkpt>
      <trkpt lat="44.92279" lon="3.85506">
        <ele>995.506</ele>
        <time>2011-05-30T12:02:05Z</time>
      </trkpt>
      <trkpt lat="44.92279" lon="3.85506">
        <ele>995.229</ele>
        <time>2011-05-30T12:02:15Z</time>
      </trkpt>
      <trkpt lat="44.92279" lon="3.85506">
        <ele>995.273</ele>
        <time>2011-05-30T12:02:25Z</time>
      </trkpt>
      <trkpt lat="44.92279" lon="3.85506">
        <ele>995.175</ele>
        <time>2011-05-30T12:02:35Z</time>
      </trkpt>
      <trkpt lat="44.92279" lon="3.85506">
        <ele>995.302</ele>
        <time>2011-05-30T12:02:45Z</time>
      </trkpt>
      <trkpt lat="44.92279" lon="3.85506">
        <ele>995.422</ele>
        <time>2011-05-30T12:02:55Z</time>
      </trkpt>
      <trkpt lat="44.92279" lon="3.85506">
        <ele>995.412</ele>
        <time>2011-05-30T12:03:05Z</time>
      </trkpt>
      <trkpt lat="44.92279" lon="3.85506">
        <ele>995.694</ele>
        <time>2011-05-30T12:03:15Z</time>
      </trkpt>
      <trkpt lat="44.92279" lon="3.85506">
        <ele>995.309</ele>
        <time>2011-05-30T12:03:25Z</time>
      </trkpt>
      <trkpt lat="44.92279" lon="3.85506">
        <ele>995.447</ele>
        <time>2011-05-30T12:03:35Z</time>
      </trkpt>
      <trkpt lat="44.92279" lon="3.85506">
        <ele>995.699</ele>
        <time>2011-05-30T12:03:45Z</time>
      </trkpt>
      <trkpt lat="44.92279" lon="3.85506">
        <ele>995.185</ele>
        <time>2011-05-30T12:03:55Z</time>
      </trkpt>
      <trkpt lat="44.92279" lon="3.85506">
        <ele>995.228</ele>
        <time>2011-05-30T12:04:05Z</time>
      </trkpt>
      <trkpt lat="44.92279" lon="3.85506">
        <ele>994.617</ele>
        <time>2011-05-30T12:04:15Z</time>
      </trkpt>
      <trkpt lat="44.92279" lon="3.85506">
        <ele>995.437</ele>
        <time>2011-05-30T12:04:25Z</time>
      </trkpt>
      <trkpt lat="44.92279" lon="3.85506">
        <ele>994.96</ele>
        <time>2011-05-30T12:04:35Z</time>
      </trkpt>
      <trkpt lat="44.92279" lon="3.85506">
        <ele>994.655</ele>
        <time>2011-05-30T12:04:45Z</time>
      </trkpt>
      <trkpt lat="44.92279" lon="3.85506">
        <ele>994.79</ele>
        <time>2011-05-30T12:04:55Z</time>
      </trkpt>
      <trkpt lat="44.92283" lon="3.85507">
        <ele>996.079</ele>
        <time>2011-05-30T12:05:05Z</time>
      </trkpt>
      <trkpt lat="44.92283" lon="3.85507">
        <ele>997.037</ele>
        <time>2011-05-30T12:05:15Z</time>
      </trkpt>
      <trkpt lat="44.92282" lon="3.85507">
        <ele>996.232</ele>
        <time>2011-05-30T12:05:25Z</time>
      </trkpt>
      <trkpt lat="44.92281" lon="3.85507">
        <ele>994.987</ele>
        <time>2011-05-30T12:05:35Z</time>
      </trkpt>
      <trkpt lat="44.92281" lon="3.85507">
        <ele>995.359</ele>
        <time>2011-05-30T12:05:45Z</time>
      </trkpt>
      <trkpt lat="44.92281" lon="3.85507">
        <ele>994.578</ele>
        <time>2011-05-30T12:05:55Z</time>
      </trkpt>
      <trkpt lat="44.92281" lon="3.85507">
        <ele>994.869</ele>
        <time>2011-05-30T12:06:05Z</time>
      </trkpt>
      <trkpt lat="44.92281" lon="3.85507">
        <ele>994.762</ele>
        <time>2011-05-30T12:06:15Z</time>
      </trkpt>
      <trkpt lat="44.92281" lon="3.85507">
        <ele>994.812</ele>
        <time>2011-05-30T12:06:25Z</time>
      </trkpt>
      <trkpt lat="44.92281" lon="3.85507">
        <ele>995.496</ele>
        <time>2011-05-30T12:06:35Z</time>
      </trkpt>
      <trkpt lat="44.92281" lon="3.85507">
        <ele>995.339</ele>
        <time>2011-05-30T12:06:45Z</time>
      </trkpt>
      <trkpt lat="44.92281" lon="3.85507">
        <ele>995.818</ele>
        <time>2011-05-30T12:06:55Z</time>
      </trkpt>
      <trkpt lat="44.92281" lon="3.85507">
        <ele>996.003</ele>
        <time>2011-05-30T12:07:05Z</time>
      </trkpt>
      <trkpt lat="44.92281" lon="3.85507">
        <ele>995.534</ele>
        <time>2011-05-30T12:07:15Z</time>
      </trkpt>
      <trkpt lat="44.92281" lon="3.85507">
        <ele>996.15</ele>
        <time>2011-05-30T12:07:25Z</time>
      </trkpt>
      <trkpt lat="44.92281" lon="3.85507">
        <ele>995.704</ele>
        <time>2011-05-30T12:07:35Z</time>
      </trkpt>
      <trkpt lat="44.92281" lon="3.85507">
        <ele>995.611</ele>
        <time>2011-05-30T12:07:45Z</time>
      </trkpt>
      <trkpt lat="44.92281" lon="3.85507">
        <ele>995.567</ele>
        <time>2011-05-30T12:07:55Z</time>
      </trkpt>
      <trkpt lat="44.92279" lon="3.85506">
        <ele>996.49</ele>
        <time>2011-05-30T12:08:05Z</time>
      </trkpt>
      <trkpt lat="44.92274" lon="3.85501">
        <ele>996.53</ele>
        <time>2011-05-30T12:08:15Z</time>
      </trkpt>
      <trkpt lat="44.92267" lon="3.8549">
        <ele>996.839</ele>
        <time>2011-05-30T12:08:25Z</time>
      </trkpt>
      <trkpt lat="44.92262" lon="3.85482">
        <ele>996.831</ele>
        <time>2011-05-30T12:08:35Z</time>
      </trkpt>
      <trkpt lat="44.92258" lon="3.85472">
        <ele>996.508</ele>
        <time>2011-05-30T12:08:45Z</time>
      </trkpt>
      <trkpt lat="44.92252" lon="3.85459">
        <ele>995.187</ele>
        <time>2011-05-30T12:08:55Z</time>
      </trkpt>
      <trkpt lat="44.92244" lon="3.85454">
        <ele>995.28</ele>
        <time>2011-05-30T12:09:05Z</time>
      </trkpt>
      <trkpt lat="44.92235" lon="3.85454">
        <ele>995.649</ele>
        <time>2011-05-30T12:09:15Z</time>
      </trkpt>
      <trkpt lat="44.92229" lon="3.85449">
        <ele>996.251</ele>
        <time>2011-05-30T12:09:25Z</time>
      </trkpt>
      <trkpt lat="44.92217" lon="3.85439">
        <ele>996.075</ele>
        <time>2011-05-30T12:09:35Z</time>
      </trkpt>
      <trkpt lat="44.92208" lon="3.85434">
        <ele>996.264</ele>
        <time>2011-05-30T12:09:45Z</time>
      </trkpt>
      <trkpt lat="44.92199" lon="3.85428">
        <ele>996.849</ele>
        <time>2011-05-30T12:09:55Z</time>
      </trkpt>
      <trkpt lat="44.92188" lon="3.85425">
        <ele>998.371</ele>
        <time>2011-05-30T12:10:05Z</time>
      </trkpt>
      <trkpt lat="44.92179" lon="3.85424">
        <ele>998.488</ele>
        <time>2011-05-30T12:10:15Z</time>
      </trkpt>
      <trkpt lat="44.92168" lon="3.85422">
        <ele>998.626</ele>
        <time>2011-05-30T12:10:25Z</time>
      </trkpt>
      <trkpt lat="44.92158" lon="3.85419">
        <ele>999.386</ele>
        <time>2011-05-30T12:10:35Z</time>
      </trkpt>
      <trkpt lat="44.92148" lon="3.85419">
        <ele>1000.656</ele>
        <time>2011-05-30T12:10:45Z</time>
      </trkpt>
      <trkpt lat="44.92137" lon="3.85414">
        <ele>1000.885</ele>
        <time>2011-05-30T12:10:55Z</time>
      </trkpt>
      <trkpt lat="44.92128" lon="3.85414">
        <ele>1002.038</ele>
        <time>2011-05-30T12:11:05Z</time>
      </trkpt>
      <trkpt lat="44.92118" lon="3.85407">
        <ele>1002.266</ele>
        <time>2011-05-30T12:11:15Z</time>
      </trkpt>
      <trkpt lat="44.92108" lon="3.854">
        <ele>1003.258</ele>
        <time>2011-05-30T12:11:25Z</time>
      </trkpt>
      <trkpt lat="44.92099" lon="3.85395">
        <ele>1004.347</ele>
        <time>2011-05-30T12:11:35Z</time>
      </trkpt>
      <trkpt lat="44.92089" lon="3.85393">
        <ele>1005.298</ele>
        <time>2011-05-30T12:11:45Z</time>
      </trkpt>
      <trkpt lat="44.92079" lon="3.8539">
        <ele>1005.834</ele>
        <time>2011-05-30T12:11:55Z</time>
      </trkpt>
      <trkpt lat="44.9207" lon="3.85387">
        <ele>1007.06</ele>
        <time>2011-05-30T12:12:05Z</time>
      </trkpt>
      <trkpt lat="44.9206" lon="3.85384">
        <ele>1007.232</ele>
        <time>2011-05-30T12:12:15Z</time>
      </trkpt>
      <trkpt lat="44.92052" lon="3.85382">
        <ele>1008.918</ele>
        <time>2011-05-30T12:12:25Z</time>
      </trkpt>
      <trkpt lat="44.92046" lon="3.85378">
        <ele>1010.081</ele>
        <time>2011-05-30T12:12:35Z</time>
      </trkpt>
      <trkpt lat="44.92043" lon="3.85377">
        <ele>1009.164</ele>
        <time>2011-05-30T12:12:45Z</time>
      </trkpt>
      <trkpt lat="44.92033" lon="3.85375">
        <ele>1009.88</ele>
        <time>2011-05-30T12:12:55Z</time>
      </trkpt>
      <trkpt lat="44.92025" lon="3.85376">
        <ele>1009.941</ele>
        <time>2011-05-30T12:13:05Z</time>
      </trkpt>
      <trkpt lat="44.92014" lon="3.85375">
        <ele>1011.914</ele>
        <time>2011-05-30T12:13:15Z</time>
      </trkpt>
      <trkpt lat="44.92002" lon="3.85374">
        <ele>1010.549</ele>
        <time>2011-05-30T12:13:25Z</time>
      </trkpt>
      <trkpt lat="44.91993" lon="3.85368">
        <ele>1010.931</ele>
        <time>2011-05-30T12:13:35Z</time>
      </trkpt>
      <trkpt lat="44.91983" lon="3.85362">
        <ele>1012.674</ele>
        <time>2011-05-30T12:13:45Z</time>
      </trkpt>
      <trkpt lat="44.91974" lon="3.85356">
        <ele>1011.862</ele>
        <time>2011-05-30T12:13:55Z</time>
      </trkpt>
      <trkpt lat="44.91963" lon="3.85352">
        <ele>1012.091</ele>
        <time>2011-05-30T12:14:05Z</time>
      </trkpt>
      <trkpt lat="44.91958" lon="3.85355">
        <ele>1012.411</ele>
        <time>2011-05-30T12:14:15Z</time>
      </trkpt>
      <trkpt lat="44.91946" lon="3.85358">
        <ele>1013.443</ele>
        <time>2011-05-30T12:14:25Z</time>
      </trkpt>
      <trkpt lat="44.91934" lon="3.85359">
        <ele>1013.259</ele>
        <time>2011-05-30T12:14:35Z</time>
      </trkpt>
      <trkpt lat="44.91926" lon="3.85358">
        <ele>1014.753</ele>
        <time>2011-05-30T12:14:45Z</time>
      </trkpt>
      <trkpt lat="44.91916" lon="3.85354">
        <ele>1014.047</ele>
        <time>2011-05-30T12:14:55Z</time>
      </trkpt>
      <trkpt lat="44.91907" lon="3.85349">
        <ele>1014.682</ele>
        <time>2011-05-30T12:15:05Z</time>
      </trkpt>
      <trkpt lat="44.91896" lon="3.85345">
        <ele>1014.98</ele>
        <time>2011-05-30T12:15:15Z</time>
      </trkpt>
      <trkpt lat="44.91884" lon="3.85345">
        <ele>1015.899</ele>
        <time>2011-05-30T12:15:25Z</time>
      </trkpt>
      <trkpt lat="44.91875" lon="3.85346">
        <ele>1016.324</ele>
        <time>2011-05-30T12:15:35Z</time>
      </trkpt>
      <trkpt lat="44.91866" lon="3.85348">
        <ele>1017.169</ele>
        <time>2011-05-30T12:15:45Z</time>
      </trkpt>
      <trkpt lat="44.91858" lon="3.85349">
        <ele>1017.159</ele>
        <time>2011-05-30T12:15:55Z</time>
      </trkpt>
      <trkpt lat="44.9185" lon="3.85348">
        <ele>1017.758</ele>
        <time>2011-05-30T12:16:05Z</time>
      </trkpt>
      <trkpt lat="44.91845" lon="3.85345">
        <ele>1018.614</ele>
        <time>2011-05-30T12:16:15Z</time>
      </trkpt>
      <trkpt lat="44.91844" lon="3.85346">
        <ele>1018.435</ele>
        <time>2011-05-30T12:16:25Z</time>
      </trkpt>
      <trkpt lat="44.91838" lon="3.85346">
        <ele>1019.414</ele>
        <time>2011-05-30T12:16:35Z</time>
      </trkpt>
      <trkpt lat="44.91823" lon="3.85344">
        <ele>1019.332</ele>
        <time>2011-05-30T12:16:45Z</time>
      </trkpt>
      <trkpt lat="44.91812" lon="3.85346">
        <ele>1019.862</ele>
        <time>2011-05-30T12:16:55Z</time>
      </trkpt>
      <trkpt lat="44.91803" lon="3.85347">
        <ele>1020.454</ele>
        <time>2011-05-30T12:17:05Z</time>
      </trkpt>
      <trkpt lat="44.91792" lon="3.8535">
        <ele>1020.825</ele>
        <time>2011-05-30T12:17:15Z</time>
      </trkpt>
      <trkpt lat="44.91782" lon="3.8535">
        <ele>1021.616</ele>
        <time>2011-05-30T12:17:25Z</time>
      </trkpt>
      <trkpt lat="44.91772" lon="3.85351">
        <ele>1021.671</ele>
        <time>2011-05-30T12:17:35Z</time>
      </trkpt>
      <trkpt lat="44.91762" lon="3.8535">
        <ele>1022.458</ele>
        <time>2011-05-30T12:17:45Z</time>
      </trkpt>
      <trkpt lat="44.91752" lon="3.85344">
        <ele>1022.695</ele>
        <time>2011-05-30T12:17:55Z</time>
      </trkpt>
      <trkpt lat="44.91741" lon="3.8534">
        <ele>1023.019</ele>
        <time>2011-05-30T12:18:05Z</time>
      </trkpt>
      <trkpt lat="44.91729" lon="3.85338">
        <ele>1024.254</ele>
        <time>2011-05-30T12:18:15Z</time>
      </trkpt>
      <trkpt lat="44.91719" lon="3.85338">
        <ele>1025.311</ele>
        <time>2011-05-30T12:18:25Z</time>
      </trkpt>
      <trkpt lat="44.91706" lon="3.85335">
        <ele>1025.452</ele>
        <time>2011-05-30T12:18:35Z</time>
      </trkpt>
      <trkpt lat="44.91696" lon="3.85336">
        <ele>1025.753</ele>
        <time>2011-05-30T12:18:45Z</time>
      </trkpt>
      <trkpt lat="44.91688" lon="3.85347">
        <ele>1026.38</ele>
        <time>2011-05-30T12:18:55Z</time>
      </trkpt>
      <trkpt lat="44.91679" lon="3.85355">
        <ele>1026.823</ele>
        <time>2011-05-30T12:19:05Z</time>
      </trkpt>
      <trkpt lat="44.91671" lon="3.8537">
        <ele>1027.223</ele>
        <time>2011-05-30T12:19:15Z</time>
      </trkpt>
      <trkpt lat="44.91663" lon="3.8538">
        <ele>1027.845</ele>
        <time>2011-05-30T12:19:25Z</time>
      </trkpt>
      <trkpt lat="44.91654" lon="3.85389">
        <ele>1028.508</ele>
        <time>2011-05-30T12:19:35Z</time>
      </trkpt>
      <trkpt lat="44.91646" lon="3.85402">
        <ele>1029.411</ele>
        <time>2011-05-30T12:19:45Z</time>
      </trkpt>
      <trkpt lat="44.91637" lon="3.85413">
        <ele>1029.975</ele>
        <time>2011-05-30T12:19:55Z</time>
      </trkpt>
      <trkpt lat="44.91626" lon="3.85422">
        <ele>1030.299</ele>
        <time>2011-05-30T12:20:05Z</time>
      </trkpt>
      <trkpt lat="44.91618" lon="3.85432">
        <ele>1031.046</ele>
        <time>2011-05-30T12:20:15Z</time>
      </trkpt>
      <trkpt lat="44.91607" lon="3.85439">
        <ele>1031.906</ele>
        <time>2011-05-30T12:20:25Z</time>
      </trkpt>
      <trkpt lat="44.91599" lon="3.85448">
        <ele>1032.264</ele>
        <time>2011-05-30T12:20:35Z</time>
      </trkpt>
      <trkpt lat="44.91591" lon="3.85457">
        <ele>1032.622</ele>
        <time>2011-05-30T12:20:45Z</time>
      </trkpt>
      <trkpt lat="44.91581" lon="3.85462">
        <ele>1033.068</ele>
        <time>2011-05-30T12:20:55Z</time>
      </trkpt>
      <trkpt lat="44.91573" lon="3.85471">
        <ele>1033.962</ele>
        <time>2011-05-30T12:21:05Z</time>
      </trkpt>
      <trkpt lat="44.91558" lon="3.85477">
        <ele>1034.309</ele>
        <time>2011-05-30T12:21:15Z</time>
      </trkpt>
      <trkpt lat="44.91545" lon="3.85482">
        <ele>1034.893</ele>
        <time>2011-05-30T12:21:25Z</time>
      </trkpt>
      <trkpt lat="44.91532" lon="3.85489">
        <ele>1035.116</ele>
        <time>2011-05-30T12:21:35Z</time>
      </trkpt>
      <trkpt lat="44.91522" lon="3.8549">
        <ele>1035.603</ele>
        <time>2011-05-30T12:21:45Z</time>
      </trkpt>
      <trkpt lat="44.91509" lon="3.85494">
        <ele>1036.087</ele>
        <time>2011-05-30T12:21:55Z</time>
      </trkpt>
      <trkpt lat="44.91499" lon="3.85497">
        <ele>1036.751</ele>
        <time>2011-05-30T12:22:05Z</time>
      </trkpt>
      <trkpt lat="44.91487" lon="3.855">
        <ele>1037.279</ele>
        <time>2011-05-30T12:22:15Z</time>
      </trkpt>
      <trkpt lat="44.91476" lon="3.85505">
        <ele>1038.184</ele>
        <time>2011-05-30T12:22:25Z</time>
      </trkpt>
      <trkpt lat="44.91464" lon="3.8551">
        <ele>1038.135</ele>
        <time>2011-05-30T12:22:35Z</time>
      </trkpt>
      <trkpt lat="44.91453" lon="3.85516">
        <ele>1038.464</ele>
        <time>2011-05-30T12:22:45Z</time>
      </trkpt>
      <trkpt lat="44.91441" lon="3.8552">
        <ele>1039.408</ele>
        <time>2011-05-30T12:22:55Z</time>
      </trkpt>
      <trkpt lat="44.9143" lon="3.85525">
        <ele>1040.519</ele>
        <time>2011-05-30T12:23:05Z</time>
      </trkpt>
      <trkpt lat="44.91419" lon="3.8553">
        <ele>1040.608</ele>
        <time>2011-05-30T12:23:15Z</time>
      </trkpt>
      <trkpt lat="44.91409" lon="3.85536">
        <ele>1040.962</ele>
        <time>2011-05-30T12:23:25Z</time>
      </trkpt>
      <trkpt lat="44.91397" lon="3.85542">
        <ele>1041.278</ele>
        <time>2011-05-30T12:23:35Z</time>
      </trkpt>
      <trkpt lat="44.91386" lon="3.85548">
        <ele>1041.164</ele>
        <time>2011-05-30T12:23:45Z</time>
      </trkpt>
      <trkpt lat="44.91375" lon="3.85556">
        <ele>1041.749</ele>
        <time>2011-05-30T12:23:55Z</time>
      </trkpt>
      <trkpt lat="44.91365" lon="3.85563">
        <ele>1042.262</ele>
        <time>2011-05-30T12:24:05Z</time>
      </trkpt>
      <trkpt lat="44.91355" lon="3.85571">
        <ele>1043.247</ele>
        <time>2011-05-30T12:24:15Z</time>
      </trkpt>
      <trkpt lat="44.91345" lon="3.85581">
        <ele>1043.737</ele>
        <time>2011-05-30T12:24:25Z</time>
      </trkpt>
      <trkpt lat="44.91335" lon="3.8559">
        <ele>1043.605</ele>
        <time>2011-05-30T12:24:35Z</time>
      </trkpt>
      <trkpt lat="44.91325" lon="3.85599">
        <ele>1043.357</ele>
        <time>2011-05-30T12:24:45Z</time>
      </trkpt>
      <trkpt lat="44.91315" lon="3.85608">
        <ele>1043.943</ele>
        <time>2011-05-30T12:24:55Z</time>
      </trkpt>
      <trkpt lat="44.91304" lon="3.85612">
        <ele>1043.78</ele>
        <time>2011-05-30T12:25:05Z</time>
      </trkpt>
      <trkpt lat="44.91291" lon="3.85615">
        <ele>1044.054</ele>
        <time>2011-05-30T12:25:15Z</time>
      </trkpt>
      <trkpt lat="44.91278" lon="3.85616">
        <ele>1044.583</ele>
        <time>2011-05-30T12:25:25Z</time>
      </trkpt>
      <trkpt lat="44.91265" lon="3.85618">
        <ele>1045.079</ele>
        <time>2011-05-30T12:25:35Z</time>
      </trkpt>
      <trkpt lat="44.91253" lon="3.8562">
        <ele>1044.836</ele>
        <time>2011-05-30T12:25:45Z</time>
      </trkpt>
      <trkpt lat="44.91241" lon="3.85626">
        <ele>1045.384</ele>
        <time>2011-05-30T12:25:55Z</time>
      </trkpt>
      <trkpt lat="44.91229" lon="3.8563">
        <ele>1045.553</ele>
        <time>2011-05-30T12:26:05Z</time>
      </trkpt>
      <trkpt lat="44.91219" lon="3.85635">
        <ele>1045.663</ele>
        <time>2011-05-30T12:26:15Z</time>
      </trkpt>
      <trkpt lat="44.91208" lon="3.85643">
        <ele>1045.83</ele>
        <time>2011-05-30T12:26:25Z</time>
      </trkpt>
      <trkpt lat="44.91198" lon="3.85651">
        <ele>1046.698</ele>
        <time>2011-05-30T12:26:35Z</time>
      </trkpt>
      <trkpt lat="44.91187" lon="3.85661">
        <ele>1045.95</ele>
        <time>2011-05-30T12:26:45Z</time>
      </trkpt>
      <trkpt lat="44.91177" lon="3.8567">
        <ele>1045.53</ele>
        <time>2011-05-30T12:26:55Z</time>
      </trkpt>
      <trkpt lat="44.91165" lon="3.85676">
        <ele>1045.603</ele>
        <time>2011-05-30T12:27:05Z</time>
      </trkpt>
      <trkpt lat="44.91152" lon="3.85681">
        <ele>1045.267</ele>
        <time>2011-05-30T12:27:15Z</time>
      </trkpt>
      <trkpt lat="44.91139" lon="3.85683">
        <ele>1045.471</ele>
        <time>2011-05-30T12:27:25Z</time>
      </trkpt>
      <trkpt lat="44.91126" lon="3.85684">
        <ele>1045.542</ele>
        <time>2011-05-30T12:27:35Z</time>
      </trkpt>
      <trkpt lat="44.91114" lon="3.85684">
        <ele>1045.38</ele>
        <time>2011-05-30T12:27:45Z</time>
      </trkpt>
      <trkpt lat="44.911" lon="3.85683">
        <ele>1045.177</ele>
        <time>2011-05-30T12:27:55Z</time>
      </trkpt>
      <trkpt lat="44.91088" lon="3.85682">
        <ele>1045.032</ele>
        <time>2011-05-30T12:28:05Z</time>
      </trkpt>
      <trkpt lat="44.91076" lon="3.85681">
        <ele>1045.489</ele>
        <time>2011-05-30T12:28:15Z</time>
      </trkpt>
      <trkpt lat="44.91064" lon="3.85679">
        <ele>1045.179</ele>
        <time>2011-05-30T12:28:25Z</time>
      </trkpt>
      <trkpt lat="44.91052" lon="3.85677">
        <ele>1043.696</ele>
        <time>2011-05-30T12:28:35Z</time>
      </trkpt>
      <trkpt lat="44.91039" lon="3.85675">
        <ele>1044.371</ele>
        <time>2011-05-30T12:28:45Z</time>
      </trkpt>
      <trkpt lat="44.91027" lon="3.85673">
        <ele>1045.117</ele>
        <time>2011-05-30T12:28:55Z</time>
      </trkpt>
      <trkpt lat="44.91014" lon="3.85671">
        <ele>1043.82</ele>
        <time>2011-05-30T12:29:05Z</time>
      </trkpt>
      <trkpt lat="44.91002" lon="3.85669">
        <ele>1045.098</ele>
        <time>2011-05-30T12:29:15Z</time>
      </trkpt>
      <trkpt lat="44.90989" lon="3.85666">
        <ele>1044.933</ele>
        <time>2011-05-30T12:29:25Z</time>
      </trkpt>
      <trkpt lat="44.90977" lon="3.85662">
        <ele>1044.478</ele>
        <time>2011-05-30T12:29:35Z</time>
      </trkpt>
      <trkpt lat="44.90965" lon="3.85661">
        <ele>1044.383</ele>
        <time>2011-05-30T12:29:45Z</time>
      </trkpt>
      <trkpt lat="44.90953" lon="3.85658">
        <ele>1044.077</ele>
        <time>2011-05-30T12:29:55Z</time>
      </trkpt>
      <trkpt lat="44.9094" lon="3.85656">
        <ele>1043.921</ele>
        <time>2011-05-30T12:30:05Z</time>
      </trkpt>
      <trkpt lat="44.90928" lon="3.85651">
        <ele>1044.012</ele>
        <time>2011-05-30T12:30:15Z</time>
      </trkpt>
      <trkpt lat="44.90919" lon="3.85644">
        <ele>1042.785</ele>
        <time>2011-05-30T12:30:25Z</time>
      </trkpt>
      <trkpt lat="44.90909" lon="3.85635">
        <ele>1042.874</ele>
        <time>2011-05-30T12:30:35Z</time>
      </trkpt>
      <trkpt lat="44.90902" lon="3.85623">
        <ele>1041.871</ele>
        <time>2011-05-30T12:30:45Z</time>
      </trkpt>
      <trkpt lat="44.90893" lon="3.85613">
        <ele>1040.979</ele>
        <time>2011-05-30T12:30:55Z</time>
      </trkpt>
      <trkpt lat="44.90883" lon="3.85602">
        <ele>1041.563</ele>
        <time>2011-05-30T12:31:05Z</time>
      </trkpt>
      <trkpt lat="44.90877" lon="3.85592">
        <ele>1041.444</ele>
        <time>2011-05-30T12:31:15Z</time>
      </trkpt>
      <trkpt lat="44.9087" lon="3.85579">
        <ele>1041.874</ele>
        <time>2011-05-30T12:31:25Z</time>
      </trkpt>
      <trkpt lat="44.90863" lon="3.85564">
        <ele>1041.294</ele>
        <time>2011-05-30T12:31:35Z</time>
      </trkpt>
      <trkpt lat="44.90856" lon="3.85548">
        <ele>1040.024</ele>
        <time>2011-05-30T12:31:45Z</time>
      </trkpt>
      <trkpt lat="44.90849" lon="3.85537">
        <ele>1039.194</ele>
        <time>2011-05-30T12:31:55Z</time>
      </trkpt>
      <trkpt lat="44.90839" lon="3.85517">
        <ele>1039.182</ele>
        <time>2011-05-30T12:32:05Z</time>
      </trkpt>
      <trkpt lat="44.9083" lon="3.85505">
        <ele>1039.162</ele>
        <time>2011-05-30T12:32:15Z</time>
      </trkpt>
      <trkpt lat="44.90818" lon="3.85496">
        <ele>1039.42</ele>
        <time>2011-05-30T12:32:25Z</time>
      </trkpt>
      <trkpt lat="44.90807" lon="3.85488">
        <ele>1038.773</ele>
        <time>2011-05-30T12:32:35Z</time>
      </trkpt>
      <trkpt lat="44.90795" lon="3.85484">
        <ele>1039.61</ele>
        <time>2011-05-30T12:32:45Z</time>
      </trkpt>
      <trkpt lat="44.90783" lon="3.85483">
        <ele>1040.794</ele>
        <time>2011-05-30T12:32:55Z</time>
      </trkpt>
      <trkpt lat="44.90771" lon="3.85484">
        <ele>1041.166</ele>
        <time>2011-05-30T12:33:05Z</time>
      </trkpt>
      <trkpt lat="44.9076" lon="3.85487">
        <ele>1040.969</ele>
        <time>2011-05-30T12:33:15Z</time>
      </trkpt>
      <trkpt lat="44.90747" lon="3.85493">
        <ele>1040.694</ele>
        <time>2011-05-30T12:33:25Z</time>
      </trkpt>
      <trkpt lat="44.90737" lon="3.85496">
        <ele>1041.627</ele>
        <time>2011-05-30T12:33:35Z</time>
      </trkpt>
      <trkpt lat="44.90725" lon="3.85503">
        <ele>1041.858</ele>
        <time>2011-05-30T12:33:45Z</time>
      </trkpt>
      <trkpt lat="44.90715" lon="3.85512">
        <ele>1041.707</ele>
        <time>2011-05-30T12:33:55Z</time>
      </trkpt>
      <trkpt lat="44.90705" lon="3.85521">
        <ele>1041.411</ele>
        <time>2011-05-30T12:34:05Z</time>
      </trkpt>
      <trkpt lat="44.90691" lon="3.8553">
        <ele>1041.382</ele>
        <time>2011-05-30T12:34:15Z</time>
      </trkpt>
      <trkpt lat="44.90681" lon="3.8554">
        <ele>1041.413</ele>
        <time>2011-05-30T12:34:25Z</time>
      </trkpt>
      <trkpt lat="44.9067" lon="3.85547">
        <ele>1041.692</ele>
        <time>2011-05-30T12:34:35Z</time>
      </trkpt>
      <trkpt lat="44.90661" lon="3.85555">
        <ele>1042.09</ele>
        <time>2011-05-30T12:34:45Z</time>
      </trkpt>
      <trkpt lat="44.9065" lon="3.85564">
        <ele>1041.66</ele>
        <time>2011-05-30T12:34:55Z</time>
      </trkpt>
      <trkpt lat="44.90643" lon="3.85575">
        <ele>1043.077</ele>
        <time>2011-05-30T12:35:05Z</time>
      </trkpt>
      <trkpt lat="44.90633" lon="3.85587">
        <ele>1042.188</ele>
        <time>2011-05-30T12:35:15Z</time>
      </trkpt>
      <trkpt lat="44.90624" lon="3.85602">
        <ele>1041.715</ele>
        <time>2011-05-30T12:35:25Z</time>
      </trkpt>
      <trkpt lat="44.90619" lon="3.85616">
        <ele>1041.716</ele>
        <time>2011-05-30T12:35:35Z</time>
      </trkpt>
      <trkpt lat="44.90611" lon="3.85628">
        <ele>1042.374</ele>
        <time>2011-05-30T12:35:45Z</time>
      </trkpt>
      <trkpt lat="44.90605" lon="3.85643">
        <ele>1042.836</ele>
        <time>2011-05-30T12:35:55Z</time>
      </trkpt>
      <trkpt lat="44.90604" lon="3.85661">
        <ele>1043.415</ele>
        <time>2011-05-30T12:36:05Z</time>
      </trkpt>
      <trkpt lat="44.90599" lon="3.85679">
        <ele>1043.187</ele>
        <time>2011-05-30T12:36:15Z</time>
      </trkpt>
      <trkpt lat="44.90602" lon="3.85695">
        <ele>1044.098</ele>
        <time>2011-05-30T12:36:25Z</time>
      </trkpt>
      <trkpt lat="44.90601" lon="3.85714">
        <ele>1044.137</ele>
        <time>2011-05-30T12:36:35Z</time>
      </trkpt>
      <trkpt lat="44.90602" lon="3.85727">
        <ele>1043.855</ele>
        <time>2011-05-30T12:36:45Z</time>
      </trkpt>
      <trkpt lat="44.90605" lon="3.85743">
        <ele>1044.392</ele>
        <time>2011-05-30T12:36:55Z</time>
      </trkpt>
      <trkpt lat="44.90601" lon="3.85761">
        <ele>1045.443</ele>
        <time>2011-05-30T12:37:05Z</time>
      </trkpt>
      <trkpt lat="44.90589" lon="3.85758">
        <ele>1045.769</ele>
        <time>2011-05-30T12:37:15Z</time>
      </trkpt>
      <trkpt lat="44.90577" lon="3.85753">
        <ele>1045.921</ele>
        <time>2011-05-30T12:37:25Z</time>
      </trkpt>
      <trkpt lat="44.90567" lon="3.85749">
        <ele>1046.372</ele>
        <time>2011-05-30T12:37:35Z</time>
      </trkpt>
      <trkpt lat="44.90556" lon="3.8574">
        <ele>1046.108</ele>
        <time>2011-05-30T12:37:45Z</time>
      </trkpt>
      <trkpt lat="44.90546" lon="3.85735">
        <ele>1047.066</ele>
        <time>2011-05-30T12:37:55Z</time>
      </trkpt>
      <trkpt lat="44.90535" lon="3.8573">
        <ele>1046.45</ele>
        <time>2011-05-30T12:38:05Z</time>
      </trkpt>
      <trkpt lat="44.90525" lon="3.85725">
        <ele>1046.926</ele>
        <time>2011-05-30T12:38:15Z</time>
      </trkpt>
      <trkpt lat="44.90513" lon="3.85717">
        <ele>1046.288</ele>
        <time>2011-05-30T12:38:25Z</time>
      </trkpt>
      <trkpt lat="44.90502" lon="3.85709">
        <ele>1047.537</ele>
        <time>2011-05-30T12:38:35Z</time>
      </trkpt>
      <trkpt lat="44.90489" lon="3.85704">
        <ele>1047.644</ele>
        <time>2011-05-30T12:38:45Z</time>
      </trkpt>
      <trkpt lat="44.90478" lon="3.85698">
        <ele>1048.415</ele>
        <time>2011-05-30T12:38:55Z</time>
      </trkpt>
      <trkpt lat="44.90467" lon="3.85691">
        <ele>1048.568</ele>
        <time>2011-05-30T12:39:05Z</time>
      </trkpt>
      <trkpt lat="44.90458" lon="3.85688">
        <ele>1048.675</ele>
        <time>2011-05-30T12:39:15Z</time>
      </trkpt>
      <trkpt lat="44.90447" lon="3.85682">
        <ele>1049.646</ele>
        <time>2011-05-30T12:39:25Z</time>
      </trkpt>
      <trkpt lat="44.90437" lon="3.85676">
        <ele>1049.991</ele>
        <time>2011-05-30T12:39:35Z</time>
      </trkpt>
      <trkpt lat="44.90426" lon="3.85667">
        <ele>1050.354</ele>
        <time>2011-05-30T12:39:45Z</time>
      </trkpt>
      <trkpt lat="44.90416" lon="3.85664">
        <ele>1050.318</ele>
        <time>2011-05-30T12:39:55Z</time>
      </trkpt>
      <trkpt lat="44.90404" lon="3.85657">
        <ele>1051.565</ele>
        <time>2011-05-30T12:40:05Z</time>
      </trkpt>
      <trkpt lat="44.90394" lon="3.85651">
        <ele>1052.148</ele>
        <time>2011-05-30T12:40:15Z</time>
      </trkpt>
      <trkpt lat="44.90384" lon="3.85645">
        <ele>1054.354</ele>
        <time>2011-05-30T12:40:25Z</time>
      </trkpt>
      <trkpt lat="44.90373" lon="3.8564">
        <ele>1052.584</ele>
        <time>2011-05-30T12:40:35Z</time>
      </trkpt>
      <trkpt lat="44.90362" lon="3.85634">
        <ele>1054.084</ele>
        <time>2011-05-30T12:40:45Z</time>
      </trkpt>
      <trkpt lat="44.90352" lon="3.85629">
        <ele>1055.331</ele>
        <time>2011-05-30T12:40:55Z</time>
      </trkpt>
      <trkpt lat="44.90342" lon="3.85627">
        <ele>1057.28</ele>
        <time>2011-05-30T12:41:05Z</time>
      </trkpt>
      <trkpt lat="44.90335" lon="3.85635">
        <ele>1058.102</ele>
        <time>2011-05-30T12:41:15Z</time>
      </trkpt>
      <trkpt lat="44.90325" lon="3.85638">
        <ele>1059.205</ele>
        <time>2011-05-30T12:41:25Z</time>
      </trkpt>
      <trkpt lat="44.90316" lon="3.85641">
        <ele>1059.862</ele>
        <time>2011-05-30T12:41:35Z</time>
      </trkpt>
      <trkpt lat="44.90307" lon="3.85641">
        <ele>1061.535</ele>
        <time>2011-05-30T12:41:45Z</time>
      </trkpt>
      <trkpt lat="44.90298" lon="3.85646">
        <ele>1063.832</ele>
        <time>2011-05-30T12:41:55Z</time>
      </trkpt>
      <trkpt lat="44.9029" lon="3.85647">
        <ele>1065.201</ele>
        <time>2011-05-30T12:42:05Z</time>
      </trkpt>
      <trkpt lat="44.90281" lon="3.85653">
        <ele>1067.714</ele>
        <time>2011-05-30T12:42:15Z</time>
      </trkpt>
      <trkpt lat="44.90273" lon="3.85654">
        <ele>1068.948</ele>
        <time>2011-05-30T12:42:25Z</time>
      </trkpt>
      <trkpt lat="44.90266" lon="3.85655">
        <ele>1071.436</ele>
        <time>2011-05-30T12:42:35Z</time>
      </trkpt>
      <trkpt lat="44.90258" lon="3.85655">
        <ele>1073.141</ele>
        <time>2011-05-30T12:42:45Z</time>
      </trkpt>
      <trkpt lat="44.90251" lon="3.85657">
        <ele>1074.435</ele>
        <time>2011-05-30T12:42:55Z</time>
      </trkpt>
      <trkpt lat="44.90246" lon="3.8566">
        <ele>1075.553</ele>
        <time>2011-05-30T12:43:05Z</time>
      </trkpt>
      <trkpt lat="44.90236" lon="3.8566">
        <ele>1078.512</ele>
        <time>2011-05-30T12:43:15Z</time>
      </trkpt>
      <trkpt lat="44.90226" lon="3.85661">
        <ele>1079.965</ele>
        <time>2011-05-30T12:43:25Z</time>
      </trkpt>
      <trkpt lat="44.90219" lon="3.85654">
        <ele>1081.053</ele>
        <time>2011-05-30T12:43:35Z</time>
      </trkpt>
      <trkpt lat="44.90207" lon="3.8565">
        <ele>1083.524</ele>
        <time>2011-05-30T12:43:45Z</time>
      </trkpt>
      <trkpt lat="44.90195" lon="3.85645">
        <ele>1083.577</ele>
        <time>2011-05-30T12:43:55Z</time>
      </trkpt>
      <trkpt lat="44.90184" lon="3.85642">
        <ele>1085.059</ele>
        <time>2011-05-30T12:44:05Z</time>
      </trkpt>
      <trkpt lat="44.90174" lon="3.8564">
        <ele>1086.16</ele>
        <time>2011-05-30T12:44:15Z</time>
      </trkpt>
      <trkpt lat="44.90164" lon="3.85637">
        <ele>1086.506</ele>
        <time>2011-05-30T12:44:25Z</time>
      </trkpt>
      <trkpt lat="44.90154" lon="3.85634">
        <ele>1087.318</ele>
        <time>2011-05-30T12:44:35Z</time>
      </trkpt>
      <trkpt lat="44.90145" lon="3.85632">
        <ele>1088.807</ele>
        <time>2011-05-30T12:44:45Z</time>
      </trkpt>
      <trkpt lat="44.90135" lon="3.85633">
        <ele>1089.638</ele>
        <time>2011-05-30T12:44:55Z</time>
      </trkpt>
      <trkpt lat="44.90124" lon="3.85637">
        <ele>1090.58</ele>
        <time>2011-05-30T12:45:05Z</time>
      </trkpt>
      <trkpt lat="44.90112" lon="3.85645">
        <ele>1091.795</ele>
        <time>2011-05-30T12:45:15Z</time>
      </trkpt>
      <trkpt lat="44.90106" lon="3.85645">
        <ele>1092.795</ele>
        <time>2011-05-30T12:45:25Z</time>
      </trkpt>
      <trkpt lat="44.90098" lon="3.85647">
        <ele>1093.479</ele>
        <time>2011-05-30T12:45:35Z</time>
      </trkpt>
      <trkpt lat="44.90087" lon="3.85652">
        <ele>1095.269</ele>
        <time>2011-05-30T12:45:45Z</time>
      </trkpt>
      <trkpt lat="44.9008" lon="3.85657">
        <ele>1096.264</ele>
        <time>2011-05-30T12:45:55Z</time>
      </trkpt>
      <trkpt lat="44.9007" lon="3.85659">
        <ele>1098.079</ele>
        <time>2011-05-30T12:46:05Z</time>
      </trkpt>
      <trkpt lat="44.9006" lon="3.85661">
        <ele>1098.775</ele>
        <time>2011-05-30T12:46:15Z</time>
      </trkpt>
      <trkpt lat="44.90051" lon="3.85668">
        <ele>1099.268</ele>
        <time>2011-05-30T12:46:25Z</time>
      </trkpt>
      <trkpt lat="44.90039" lon="3.8567">
        <ele>1100.661</ele>
        <time>2011-05-30T12:46:35Z</time>
      </trkpt>
      <trkpt lat="44.90032" lon="3.85659">
        <ele>1100.728</ele>
        <time>2011-05-30T12:46:45Z</time>
      </trkpt>
      <trkpt lat="44.90024" lon="3.85652">
        <ele>1099.498</ele>
        <time>2011-05-30T12:46:55Z</time>
      </trkpt>
      <trkpt lat="44.90021" lon="3.85644">
        <ele>1101.033</ele>
        <time>2011-05-30T12:47:05Z</time>
      </trkpt>
      <trkpt lat="44.90012" lon="3.85631">
        <ele>1099.617</ele>
        <time>2011-05-30T12:47:15Z</time>
      </trkpt>
      <trkpt lat="44.90005" lon="3.8562">
        <ele>1100.421</ele>
        <time>2011-05-30T12:47:25Z</time>
      </trkpt>
      <trkpt lat="44.89997" lon="3.85611">
        <ele>1099.477</ele>
        <time>2011-05-30T12:47:35Z</time>
      </trkpt>
      <trkpt lat="44.89996" lon="3.8561">
        <ele>1099.27</ele>
        <time>2011-05-30T12:47:45Z</time>
      </trkpt>
      <trkpt lat="44.89995" lon="3.8561">
        <ele>1099.755</ele>
        <time>2011-05-30T12:47:55Z</time>
      </trkpt>
      <trkpt lat="44.89993" lon="3.85603">
        <ele>1099.833</ele>
        <time>2011-05-30T12:48:05Z</time>
      </trkpt>
      <trkpt lat="44.89986" lon="3.85589">
        <ele>1099.187</ele>
        <time>2011-05-30T12:48:15Z</time>
      </trkpt>
      <trkpt lat="44.89978" lon="3.85575">
        <ele>1099.154</ele>
        <time>2011-05-30T12:48:25Z</time>
      </trkpt>
      <trkpt lat="44.89971" lon="3.85562">
        <ele>1099.141</ele>
        <time>2011-05-30T12:48:35Z</time>
      </trkpt>
      <trkpt lat="44.89966" lon="3.85545">
        <ele>1100.1</ele>
        <time>2011-05-30T12:48:45Z</time>
      </trkpt>
      <trkpt lat="44.89958" lon="3.85529">
        <ele>1099.998</ele>
        <time>2011-05-30T12:48:55Z</time>
      </trkpt>
      <trkpt lat="44.89952" lon="3.85511">
        <ele>1100.216</ele>
        <time>2011-05-30T12:49:05Z</time>
      </trkpt>
      <trkpt lat="44.89946" lon="3.85494">
        <ele>1100.72</ele>
        <time>2011-05-30T12:49:15Z</time>
      </trkpt>
      <trkpt lat="44.8994" lon="3.85477">
        <ele>1100.944</ele>
        <time>2011-05-30T12:49:25Z</time>
      </trkpt>
      <trkpt lat="44.89935" lon="3.85461">
        <ele>1100.881</ele>
        <time>2011-05-30T12:49:35Z</time>
      </trkpt>
      <trkpt lat="44.89927" lon="3.85449">
        <ele>1101.247</ele>
        <time>2011-05-30T12:49:45Z</time>
      </trkpt>
      <trkpt lat="44.89918" lon="3.85436">
        <ele>1101.42</ele>
        <time>2011-05-30T12:49:55Z</time>
      </trkpt>
      <trkpt lat="44.89909" lon="3.85425">
        <ele>1101.536</ele>
        <time>2011-05-30T12:50:05Z</time>
      </trkpt>
      <trkpt lat="44.89901" lon="3.85412">
        <ele>1101.552</ele>
        <time>2011-05-30T12:50:15Z</time>
      </trkpt>
      <trkpt lat="44.89892" lon="3.85401">
        <ele>1102.087</ele>
        <time>2011-05-30T12:50:25Z</time>
      </trkpt>
      <trkpt lat="44.89882" lon="3.8539">
        <ele>1100.077</ele>
        <time>2011-05-30T12:50:35Z</time>
      </trkpt>
      <trkpt lat="44.89873" lon="3.85379">
        <ele>1099.197</ele>
        <time>2011-05-30T12:50:45Z</time>
      </trkpt>
      <trkpt lat="44.89863" lon="3.85368">
        <ele>1097.116</ele>
        <time>2011-05-30T12:50:55Z</time>
      </trkpt>
      <trkpt lat="44.89854" lon="3.85358">
        <ele>1096.068</ele>
        <time>2011-05-30T12:51:05Z</time>
      </trkpt>
      <trkpt lat="44.89844" lon="3.85348">
        <ele>1094.896</ele>
        <time>2011-05-30T12:51:15Z</time>
      </trkpt>
      <trkpt lat="44.89834" lon="3.85339">
        <ele>1093.313</ele>
        <time>2011-05-30T12:51:25Z</time>
      </trkpt>
      <trkpt lat="44.89824" lon="3.85334">
        <ele>1091.731</ele>
        <time>2011-05-30T12:51:35Z</time>
      </trkpt>
      <trkpt lat="44.89816" lon="3.85325">
        <ele>1089.269</ele>
        <time>2011-05-30T12:51:45Z</time>
      </trkpt>
      <trkpt lat="44.8981" lon="3.85313">
        <ele>1085.19</ele>
        <time>2011-05-30T12:51:55Z</time>
      </trkpt>
      <trkpt lat="44.89805" lon="3.85302">
        <ele>1084.276</ele>
        <time>2011-05-30T12:52:05Z</time>
      </trkpt>
      <trkpt lat="44.89801" lon="3.85292">
        <ele>1083.323</ele>
        <time>2011-05-30T12:52:15Z</time>
      </trkpt>
      <trkpt lat="44.89795" lon="3.85279">
        <ele>1080.669</ele>
        <time>2011-05-30T12:52:25Z</time>
      </trkpt>
      <trkpt lat="44.8979" lon="3.85265">
        <ele>1081.281</ele>
        <time>2011-05-30T12:52:35Z</time>
      </trkpt>
      <trkpt lat="44.89784" lon="3.85252">
        <ele>1081.399</ele>
        <time>2011-05-30T12:52:45Z</time>
      </trkpt>
      <trkpt lat="44.89777" lon="3.85239">
        <ele>1080.111</ele>
        <time>2011-05-30T12:52:55Z</time>
      </trkpt>
      <trkpt lat="44.89772" lon="3.85225">
        <ele>1077.087</ele>
        <time>2011-05-30T12:53:05Z</time>
      </trkpt>
      <trkpt lat="44.89764" lon="3.85211">
        <ele>1075.392</ele>
        <time>2011-05-30T12:53:15Z</time>
      </trkpt>
      <trkpt lat="44.89757" lon="3.85198">
        <ele>1075.585</ele>
        <time>2011-05-30T12:53:25Z</time>
      </trkpt>
      <trkpt lat="44.89751" lon="3.85185">
        <ele>1071.949</ele>
        <time>2011-05-30T12:53:35Z</time>
      </trkpt>
      <trkpt lat="44.89744" lon="3.85172">
        <ele>1073.026</ele>
        <time>2011-05-30T12:53:45Z</time>
      </trkpt>
      <trkpt lat="44.89737" lon="3.8516">
        <ele>1075.046</ele>
        <time>2011-05-30T12:53:55Z</time>
      </trkpt>
      <trkpt lat="44.89731" lon="3.85146">
        <ele>1072.873</ele>
        <time>2011-05-30T12:54:05Z</time>
      </trkpt>
      <trkpt lat="44.89724" lon="3.85132">
        <ele>1073.367</ele>
        <time>2011-05-30T12:54:15Z</time>
      </trkpt>
      <trkpt lat="44.89717" lon="3.8512">
        <ele>1071.568</ele>
        <time>2011-05-30T12:54:25Z</time>
      </trkpt>
      <trkpt lat="44.89709" lon="3.85106">
        <ele>1072.217</ele>
        <time>2011-05-30T12:54:35Z</time>
      </trkpt>
      <trkpt lat="44.89701" lon="3.85091">
        <ele>1072.626</ele>
        <time>2011-05-30T12:54:45Z</time>
      </trkpt>
      <trkpt lat="44.89694" lon="3.85077">
        <ele>1072.32</ele>
        <time>2011-05-30T12:54:55Z</time>
      </trkpt>
      <trkpt lat="44.89687" lon="3.85063">
        <ele>1072.418</ele>
        <time>2011-05-30T12:55:05Z</time>
      </trkpt>
      <trkpt lat="44.89687" lon="3.85047">
        <ele>1073.184</ele>
        <time>2011-05-30T12:55:15Z</time>
      </trkpt>
      <trkpt lat="44.89686" lon="3.8503">
        <ele>1072.97</ele>
        <time>2011-05-30T12:55:25Z</time>
      </trkpt>
      <trkpt lat="44.89677" lon="3.85027">
        <ele>1073.411</ele>
        <time>2011-05-30T12:55:35Z</time>
      </trkpt>
      <trkpt lat="44.89664" lon="3.85023">
        <ele>1073.019</ele>
        <time>2011-05-30T12:55:45Z</time>
      </trkpt>
      <trkpt lat="44.89653" lon="3.85021">
        <ele>1073.128</ele>
        <time>2011-05-30T12:55:55Z</time>
      </trkpt>
      <trkpt lat="44.89642" lon="3.85019">
        <ele>1072.998</ele>
        <time>2011-05-30T12:56:05Z</time>
      </trkpt>
      <trkpt lat="44.89632" lon="3.85018">
        <ele>1072.613</ele>
        <time>2011-05-30T12:56:15Z</time>
      </trkpt>
      <trkpt lat="44.8962" lon="3.85014">
        <ele>1073.049</ele>
        <time>2011-05-30T12:56:25Z</time>
      </trkpt>
      <trkpt lat="44.89609" lon="3.85011">
        <ele>1073.457</ele>
        <time>2011-05-30T12:56:35Z</time>
      </trkpt>
      <trkpt lat="44.896" lon="3.85008">
        <ele>1073.177</ele>
        <time>2011-05-30T12:56:45Z</time>
      </trkpt>
      <trkpt lat="44.89586" lon="3.85003">
        <ele>1072.953</ele>
        <time>2011-05-30T12:56:55Z</time>
      </trkpt>
      <trkpt lat="44.89578" lon="3.85003">
        <ele>1072.694</ele>
        <time>2011-05-30T12:57:05Z</time>
      </trkpt>
      <trkpt lat="44.89567" lon="3.85001">
        <ele>1073.242</ele>
        <time>2011-05-30T12:57:15Z</time>
      </trkpt>
      <trkpt lat="44.89555" lon="3.84999">
        <ele>1073.319</ele>
        <time>2011-05-30T12:57:25Z</time>
      </trkpt>
      <trkpt lat="44.89544" lon="3.84994">
        <ele>1073.175</ele>
        <time>2011-05-30T12:57:35Z</time>
      </trkpt>
      <trkpt lat="44.89534" lon="3.84993">
        <ele>1072.545</ele>
        <time>2011-05-30T12:57:45Z</time>
      </trkpt>
      <trkpt lat="44.89522" lon="3.84989">
        <ele>1072.41</ele>
        <time>2011-05-30T12:57:55Z</time>
      </trkpt>
      <trkpt lat="44.89511" lon="3.84989">
        <ele>1071.973</ele>
        <time>2011-05-30T12:58:05Z</time>
      </trkpt>
      <trkpt lat="44.89502" lon="3.84987">
        <ele>1071.359</ele>
        <time>2011-05-30T12:58:15Z</time>
      </trkpt>
      <trkpt lat="44.8949" lon="3.84982">
        <ele>1072.82</ele>
        <time>2011-05-30T12:58:25Z</time>
      </trkpt>
      <trkpt lat="44.89479" lon="3.8498">
        <ele>1071.923</ele>
        <time>2011-05-30T12:58:35Z</time>
      </trkpt>
      <trkpt lat="44.89466" lon="3.84979">
        <ele>1071.441</ele>
        <time>2011-05-30T12:58:45Z</time>
      </trkpt>
      <trkpt lat="44.89453" lon="3.84976">
        <ele>1071.893</ele>
        <time>2011-05-30T12:58:55Z</time>
      </trkpt>
      <trkpt lat="44.89442" lon="3.84973">
        <ele>1070.537</ele>
        <time>2011-05-30T12:59:05Z</time>
      </trkpt>
      <trkpt lat="44.89435" lon="3.84976">
        <ele>1070.175</ele>
        <time>2011-05-30T12:59:15Z</time>
      </trkpt>
      <trkpt lat="44.89432" lon="3.84983">
        <ele>1072.121</ele>
        <time>2011-05-30T12:59:25Z</time>
      </trkpt>
      <trkpt lat="44.89432" lon="3.84991">
        <ele>1072.96</ele>
        <time>2011-05-30T12:59:35Z</time>
      </trkpt>
      <trkpt lat="44.89435" lon="3.84996">
        <ele>1072.451</ele>
        <time>2011-05-30T12:59:45Z</time>
      </trkpt>
      <trkpt lat="44.89441" lon="3.84997">
        <ele>1071.743</ele>
        <time>2011-05-30T12:59:55Z</time>
      </trkpt>
      <trkpt lat="44.8944" lon="3.84976">
        <ele>1071.905</ele>
        <time>2011-05-30T13:00:05Z</time>
      </trkpt>
      <trkpt lat="44.89433" lon="3.84962">
        <ele>1071.341</ele>
        <time>2011-05-30T13:00:15Z</time>
      </trkpt>
      <trkpt lat="44.8943" lon="3.84966">
        <ele>1070.407</ele>
        <time>2011-05-30T13:00:25Z</time>
      </trkpt>
      <trkpt lat="44.89423" lon="3.84962">
        <ele>1070.722</ele>
        <time>2011-05-30T13:00:35Z</time>
      </trkpt>
      <trkpt lat="44.89415" lon="3.84959">
        <ele>1069.787</ele>
        <time>2011-05-30T13:00:45Z</time>
      </trkpt>
      <trkpt lat="44.89408" lon="3.84954">
        <ele>1069.824</ele>
        <time>2011-05-30T13:00:55Z</time>
      </trkpt>
      <trkpt lat="44.89397" lon="3.84953">
        <ele>1068.374</ele>
        <time>2011-05-30T13:01:05Z</time>
      </trkpt>
      <trkpt lat="44.89388" lon="3.84947">
        <ele>1068.003</ele>
        <time>2011-05-30T13:01:15Z</time>
      </trkpt>
      <trkpt lat="44.89376" lon="3.84944">
        <ele>1068.995</ele>
        <time>2011-05-30T13:01:25Z</time>
      </trkpt>
      <trkpt lat="44.89369" lon="3.8494">
        <ele>1068.302</ele>
        <time>2011-05-30T13:01:35Z</time>
      </trkpt>
      <trkpt lat="44.89369" lon="3.84933">
        <ele>1068.256</ele>
        <time>2011-05-30T13:01:45Z</time>
      </trkpt>
      <trkpt lat="44.89362" lon="3.84924">
        <ele>1067.881</ele>
        <time>2011-05-30T13:01:55Z</time>
      </trkpt>
      <trkpt lat="44.89349" lon="3.84932">
        <ele>1067.889</ele>
        <time>2011-05-30T13:02:05Z</time>
      </trkpt>
      <trkpt lat="44.89337" lon="3.84927">
        <ele>1067.577</ele>
        <time>2011-05-30T13:02:15Z</time>
      </trkpt>
      <trkpt lat="44.89334" lon="3.84918">
        <ele>1067.75</ele>
        <time>2011-05-30T13:02:25Z</time>
      </trkpt>
      <trkpt lat="44.8933" lon="3.84915">
        <ele>1068.238</ele>
        <time>2011-05-30T13:02:35Z</time>
      </trkpt>
      <trkpt lat="44.89327" lon="3.84915">
        <ele>1067.73</ele>
        <time>2011-05-30T13:02:45Z</time>
      </trkpt>
      <trkpt lat="44.89323" lon="3.84902">
        <ele>1068.046</ele>
        <time>2011-05-30T13:02:55Z</time>
      </trkpt>
      <trkpt lat="44.89325" lon="3.84895">
        <ele>1067.369</ele>
        <time>2011-05-30T13:03:05Z</time>
      </trkpt>
      <trkpt lat="44.89326" lon="3.84894">
        <ele>1067.523</ele>
        <time>2011-05-30T13:03:15Z</time>
      </trkpt>
      <trkpt lat="44.89326" lon="3.84892">
        <ele>1067.001</ele>
        <time>2011-05-30T13:03:25Z</time>
      </trkpt>
      <trkpt lat="44.89327" lon="3.84893">
        <ele>1066.651</ele>
        <time>2011-05-30T13:03:35Z</time>
      </trkpt>
      <trkpt lat="44.89327" lon="3.84891">
        <ele>1066.221</ele>
        <time>2011-05-30T13:03:45Z</time>
      </trkpt>
      <trkpt lat="44.89327" lon="3.84888">
        <ele>1066.416</ele>
        <time>2011-05-30T13:03:55Z</time>
      </trkpt>
      <trkpt lat="44.89329" lon="3.84888">
        <ele>1066.173</ele>
        <time>2011-05-30T13:04:05Z</time>
      </trkpt>
      <trkpt lat="44.89332" lon="3.84895">
        <ele>1066.494</ele>
        <time>2011-05-30T13:04:15Z</time>
      </trkpt>
      <trkpt lat="44.89335" lon="3.84902">
        <ele>1066.109</ele>
        <time>2011-05-30T13:04:25Z</time>
      </trkpt>
      <trkpt lat="44.89335" lon="3.84903">
        <ele>1066.394</ele>
        <time>2011-05-30T13:04:35Z</time>
      </trkpt>
      <trkpt lat="44.89333" lon="3.84899">
        <ele>1066.246</ele>
        <time>2011-05-30T13:04:45Z</time>
      </trkpt>
      <trkpt lat="44.89334" lon="3.84901">
        <ele>1066.29</ele>
        <time>2011-05-30T13:04:55Z</time>
      </trkpt>
      <trkpt lat="44.89333" lon="3.84902">
        <ele>1066.539</ele>
        <time>2011-05-30T13:05:05Z</time>
      </trkpt>
      <trkpt lat="44.89334" lon="3.84903">
        <ele>1066.694</ele>
        <time>2011-05-30T13:05:15Z</time>
      </trkpt>
      <trkpt lat="44.89335" lon="3.84905">
        <ele>1066.578</ele>
        <time>2011-05-30T13:05:25Z</time>
      </trkpt>
      <trkpt lat="44.89335" lon="3.84907">
        <ele>1066.808</ele>
        <time>2011-05-30T13:05:35Z</time>
      </trkpt>
      <trkpt lat="44.89334" lon="3.84903">
        <ele>1066.679</ele>
        <time>2011-05-30T13:05:45Z</time>
      </trkpt>
      <trkpt lat="44.89332" lon="3.84899">
        <ele>1066.396</ele>
        <time>2011-05-30T13:05:55Z</time>
      </trkpt>
      <trkpt lat="44.8933" lon="3.84898">
        <ele>1066.317</ele>
        <time>2011-05-30T13:06:05Z</time>
      </trkpt>
      <trkpt lat="44.89331" lon="3.84897">
        <ele>1066.51</ele>
        <time>2011-05-30T13:06:15Z</time>
      </trkpt>
      <trkpt lat="44.89331" lon="3.84899">
        <ele>1066.549</ele>
        <time>2011-05-30T13:06:25Z</time>
      </trkpt>
      <trkpt lat="44.8933" lon="3.84896">
        <ele>1066.396</ele>
        <time>2011-05-30T13:06:35Z</time>
      </trkpt>
      <trkpt lat="44.89327" lon="3.84889">
        <ele>1066.161</ele>
        <time>2011-05-30T13:06:45Z</time>
      </trkpt>
      <trkpt lat="44.89326" lon="3.84883">
        <ele>1066.755</ele>
        <time>2011-05-30T13:06:55Z</time>
      </trkpt>
      <trkpt lat="44.89321" lon="3.8487">
        <ele>1066.51</ele>
        <time>2011-05-30T13:07:05Z</time>
      </trkpt>
      <trkpt lat="44.89319" lon="3.84862">
        <ele>1066.803</ele>
        <time>2011-05-30T13:07:15Z</time>
      </trkpt>
      <trkpt lat="44.89319" lon="3.84861">
        <ele>1066.296</ele>
        <time>2011-05-30T13:07:25Z</time>
      </trkpt>
      <trkpt lat="44.89319" lon="3.84857">
        <ele>1066.14</ele>
        <time>2011-05-30T13:07:35Z</time>
      </trkpt>
      <trkpt lat="44.89316" lon="3.84855">
        <ele>1066.457</ele>
        <time>2011-05-30T13:07:45Z</time>
      </trkpt>
      <trkpt lat="44.8931" lon="3.84854">
        <ele>1066.01</ele>
        <time>2011-05-30T13:07:55Z</time>
      </trkpt>
      <trkpt lat="44.89311" lon="3.84856">
        <ele>1066.388</ele>
        <time>2011-05-30T13:08:05Z</time>
      </trkpt>
      <trkpt lat="44.89313" lon="3.84855">
        <ele>1065.989</ele>
        <time>2011-05-30T13:08:15Z</time>
      </trkpt>
      <trkpt lat="44.89316" lon="3.84868">
        <ele>1066.549</ele>
        <time>2011-05-30T13:08:25Z</time>
      </trkpt>
      <trkpt lat="44.89321" lon="3.84884">
        <ele>1066.068</ele>
        <time>2011-05-30T13:08:35Z</time>
      </trkpt>
      <trkpt lat="44.89318" lon="3.84885">
        <ele>1066.169</ele>
        <time>2011-05-30T13:08:45Z</time>
      </trkpt>
      <trkpt lat="44.89318" lon="3.84888">
        <ele>1066.449</ele>
        <time>2011-05-30T13:08:55Z</time>
      </trkpt>
      <trkpt lat="44.89318" lon="3.84889">
        <ele>1066.422</ele>
        <time>2011-05-30T13:09:05Z</time>
      </trkpt>
      <trkpt lat="44.8932" lon="3.84889">
        <ele>1066.679</ele>
        <time>2011-05-30T13:09:15Z</time>
      </trkpt>
      <trkpt lat="44.89323" lon="3.84888">
        <ele>1066.251</ele>
        <time>2011-05-30T13:09:25Z</time>
      </trkpt>
      <trkpt lat="44.89324" lon="3.84887">
        <ele>1066.639</ele>
        <time>2011-05-30T13:09:35Z</time>
      </trkpt>
      <trkpt lat="44.89326" lon="3.8489">
        <ele>1066.309</ele>
        <time>2011-05-30T13:09:45Z</time>
      </trkpt>
      <trkpt lat="44.89332" lon="3.84894">
        <ele>1067.255</ele>
        <time>2011-05-30T13:09:55Z</time>
      </trkpt>
      <trkpt lat="44.8934" lon="3.84892">
        <ele>1067.215</ele>
        <time>2011-05-30T13:10:04Z</time>
      </trkpt>
      <trkpt lat="44.8934" lon="3.84892">
        <ele>1067.014</ele>
        <time>2011-05-30T13:10:05Z</time>
      </trkpt>
      <trkpt lat="44.89342" lon="3.8489">
        <ele>1066.771</ele>
        <time>2011-05-30T13:10:15Z</time>
      </trkpt>
      <trkpt lat="44.89341" lon="3.84894">
        <ele>1067.381</ele>
        <time>2011-05-30T13:10:25Z</time>
      </trkpt>
      <trkpt lat="44.89338" lon="3.84895">
        <ele>1066.689</ele>
        <time>2011-05-30T13:10:35Z</time>
      </trkpt>
      <trkpt lat="44.89337" lon="3.84901">
        <ele>1067.21</ele>
        <time>2011-05-30T13:10:45Z</time>
      </trkpt>
      <trkpt lat="44.8934" lon="3.84902">
        <ele>1066.93</ele>
        <time>2011-05-30T13:10:55Z</time>
      </trkpt>
      <trkpt lat="44.89351" lon="3.84901">
        <ele>1066.938</ele>
        <time>2011-05-30T13:11:05Z</time>
      </trkpt>
      <trkpt lat="44.89354" lon="3.84899">
        <ele>1066.93</ele>
        <time>2011-05-30T13:11:15Z</time>
      </trkpt>
    </trkseg>
  </trk>
</gpx>